<?xml version="1.0" encoding="UTF-8" standalone="no" ?>
<gpx xmlns="http://www.topografix.com/GPX/1/1" xmlns:xsi="http://www.w3.org/2001/XMLSchema-instance" xsi:schemaLocation="http://www.topografix.com/GPX/1/1 http://www.topografix.com/GPX/1/1/gpx.xsd" version="1.1" creator="VisuGPX - https://www.visugpx.com">
  <metadata>
    <name>Gorges de la Carança</name>
    <desc><![CDATA[Gorges de Carança]]></desc>
  </metadata>
  <trk>
    <name><![CDATA[Gorges de la Carança_1]]></name>
    <trkseg>
      <trkpt lat="42.52403" lon="2.22081">
        <ele>835.7</ele>
        <time>2017-07-22T11:18:32Z</time>
      </trkpt>
      <trkpt lat="42.52403" lon="2.22081">
        <ele>835.7</ele>
        <time>2017-07-22T11:18:34Z</time>
      </trkpt>
      <trkpt lat="42.52396" lon="2.22106">
        <ele>832</ele>
        <time>2017-07-22T11:18:36Z</time>
      </trkpt>
      <trkpt lat="42.52387" lon="2.22109">
        <ele>834.6</ele>
        <time>2017-07-22T11:18:38Z</time>
      </trkpt>
      <trkpt lat="42.52379" lon="2.22117">
        <ele>831.2</ele>
        <time>2017-07-22T11:18:44Z</time>
      </trkpt>
      <trkpt lat="42.52373" lon="2.22121">
        <ele>826.9</ele>
        <time>2017-07-22T11:18:49Z</time>
      </trkpt>
      <trkpt lat="42.52366" lon="2.22122">
        <ele>826.3</ele>
        <time>2017-07-22T11:18:56Z</time>
      </trkpt>
      <trkpt lat="42.52365" lon="2.22125">
        <ele>824.4</ele>
        <time>2017-07-22T11:19:03Z</time>
      </trkpt>
      <trkpt lat="42.52362" lon="2.22123">
        <ele>824.5</ele>
        <time>2017-07-22T11:19:10Z</time>
      </trkpt>
      <trkpt lat="42.52356" lon="2.22121">
        <ele>825</ele>
        <time>2017-07-22T11:19:17Z</time>
      </trkpt>
      <trkpt lat="42.5235" lon="2.22124">
        <ele>823.7</ele>
        <time>2017-07-22T11:19:24Z</time>
      </trkpt>
      <trkpt lat="42.52348" lon="2.22126">
        <ele>822.3</ele>
        <time>2017-07-22T11:19:31Z</time>
      </trkpt>
      <trkpt lat="42.52349" lon="2.22127">
        <ele>822.6</ele>
        <time>2017-07-22T11:19:38Z</time>
      </trkpt>
      <trkpt lat="42.52342" lon="2.22137">
        <ele>829.7</ele>
        <time>2017-07-22T11:19:40Z</time>
      </trkpt>
      <trkpt lat="42.52343" lon="2.22138">
        <ele>830.3</ele>
        <time>2017-07-22T11:19:47Z</time>
      </trkpt>
      <trkpt lat="42.52343" lon="2.22138">
        <ele>830.3</ele>
        <time>2017-07-22T11:19:48Z</time>
      </trkpt>
      <trkpt lat="42.52338" lon="2.22127">
        <ele>834.1</ele>
        <time>2017-07-22T11:20:34Z</time>
      </trkpt>
      <trkpt lat="42.52339" lon="2.22128">
        <ele>833.1</ele>
        <time>2017-07-22T11:20:41Z</time>
      </trkpt>
      <trkpt lat="42.52339" lon="2.22128">
        <ele>833.1</ele>
        <time>2017-07-22T11:20:44Z</time>
      </trkpt>
      <trkpt lat="42.52348" lon="2.22128">
        <ele>833</ele>
        <time>2017-07-22T11:21:06Z</time>
      </trkpt>
      <trkpt lat="42.52349" lon="2.22128">
        <ele>833.1</ele>
        <time>2017-07-22T11:21:13Z</time>
      </trkpt>
      <trkpt lat="42.52349" lon="2.22128">
        <ele>833.1</ele>
        <time>2017-07-22T11:21:16Z</time>
      </trkpt>
      <trkpt lat="42.5234" lon="2.2213">
        <ele>834.4</ele>
        <time>2017-07-22T11:22:04Z</time>
      </trkpt>
      <trkpt lat="42.52335" lon="2.22128">
        <ele>834.2</ele>
        <time>2017-07-22T11:22:11Z</time>
      </trkpt>
      <trkpt lat="42.52331" lon="2.22124">
        <ele>834.4</ele>
        <time>2017-07-22T11:22:18Z</time>
      </trkpt>
      <trkpt lat="42.52327" lon="2.22121">
        <ele>834.4</ele>
        <time>2017-07-22T11:22:25Z</time>
      </trkpt>
      <trkpt lat="42.52326" lon="2.22122">
        <ele>834</ele>
        <time>2017-07-22T11:22:32Z</time>
      </trkpt>
      <trkpt lat="42.52326" lon="2.22122">
        <ele>834</ele>
        <time>2017-07-22T11:22:35Z</time>
      </trkpt>
      <trkpt lat="42.52321" lon="2.22116">
        <ele>832.9</ele>
        <time>2017-07-22T11:22:42Z</time>
      </trkpt>
      <trkpt lat="42.5232" lon="2.22108">
        <ele>832.6</ele>
        <time>2017-07-22T11:22:49Z</time>
      </trkpt>
      <trkpt lat="42.52317" lon="2.22101">
        <ele>832.4</ele>
        <time>2017-07-22T11:22:56Z</time>
      </trkpt>
      <trkpt lat="42.52314" lon="2.22096">
        <ele>832</ele>
        <time>2017-07-22T11:23:03Z</time>
      </trkpt>
      <trkpt lat="42.5231" lon="2.22093">
        <ele>831.9</ele>
        <time>2017-07-22T11:23:10Z</time>
      </trkpt>
      <trkpt lat="42.52306" lon="2.22091">
        <ele>832.2</ele>
        <time>2017-07-22T11:23:17Z</time>
      </trkpt>
      <trkpt lat="42.52303" lon="2.22088">
        <ele>832.4</ele>
        <time>2017-07-22T11:23:24Z</time>
      </trkpt>
      <trkpt lat="42.52299" lon="2.22084">
        <ele>832.7</ele>
        <time>2017-07-22T11:23:31Z</time>
      </trkpt>
      <trkpt lat="42.52296" lon="2.2208">
        <ele>833</ele>
        <time>2017-07-22T11:23:38Z</time>
      </trkpt>
      <trkpt lat="42.52291" lon="2.22079">
        <ele>832.7</ele>
        <time>2017-07-22T11:23:45Z</time>
      </trkpt>
      <trkpt lat="42.52287" lon="2.22078">
        <ele>831.4</ele>
        <time>2017-07-22T11:23:52Z</time>
      </trkpt>
      <trkpt lat="42.52286" lon="2.22083">
        <ele>830</ele>
        <time>2017-07-22T11:23:59Z</time>
      </trkpt>
      <trkpt lat="42.52286" lon="2.2209">
        <ele>828.9</ele>
        <time>2017-07-22T11:24:06Z</time>
      </trkpt>
      <trkpt lat="42.52287" lon="2.22094">
        <ele>827.9</ele>
        <time>2017-07-22T11:24:13Z</time>
      </trkpt>
      <trkpt lat="42.52284" lon="2.22097">
        <ele>827</ele>
        <time>2017-07-22T11:24:20Z</time>
      </trkpt>
      <trkpt lat="42.52281" lon="2.22096">
        <ele>826.3</ele>
        <time>2017-07-22T11:24:27Z</time>
      </trkpt>
      <trkpt lat="42.52278" lon="2.22095">
        <ele>825.5</ele>
        <time>2017-07-22T11:24:34Z</time>
      </trkpt>
      <trkpt lat="42.52273" lon="2.22095">
        <ele>824.3</ele>
        <time>2017-07-22T11:24:41Z</time>
      </trkpt>
      <trkpt lat="42.52267" lon="2.22094">
        <ele>823.1</ele>
        <time>2017-07-22T11:24:48Z</time>
      </trkpt>
      <trkpt lat="42.52263" lon="2.22092">
        <ele>822.4</ele>
        <time>2017-07-22T11:24:55Z</time>
      </trkpt>
      <trkpt lat="42.52259" lon="2.22095">
        <ele>821.7</ele>
        <time>2017-07-22T11:25:02Z</time>
      </trkpt>
      <trkpt lat="42.52256" lon="2.22097">
        <ele>820.5</ele>
        <time>2017-07-22T11:25:09Z</time>
      </trkpt>
      <trkpt lat="42.52252" lon="2.221">
        <ele>818.4</ele>
        <time>2017-07-22T11:25:16Z</time>
      </trkpt>
      <trkpt lat="42.52247" lon="2.22102">
        <ele>816.9</ele>
        <time>2017-07-22T11:25:23Z</time>
      </trkpt>
      <trkpt lat="42.52243" lon="2.22107">
        <ele>816.1</ele>
        <time>2017-07-22T11:25:30Z</time>
      </trkpt>
      <trkpt lat="42.5224" lon="2.22111">
        <ele>814.8</ele>
        <time>2017-07-22T11:25:37Z</time>
      </trkpt>
      <trkpt lat="42.52236" lon="2.22111">
        <ele>813.1</ele>
        <time>2017-07-22T11:25:44Z</time>
      </trkpt>
      <trkpt lat="42.52232" lon="2.22109">
        <ele>812.7</ele>
        <time>2017-07-22T11:25:51Z</time>
      </trkpt>
      <trkpt lat="42.52228" lon="2.22109">
        <ele>811.5</ele>
        <time>2017-07-22T11:25:58Z</time>
      </trkpt>
      <trkpt lat="42.52223" lon="2.22109">
        <ele>810.4</ele>
        <time>2017-07-22T11:26:05Z</time>
      </trkpt>
      <trkpt lat="42.5222" lon="2.22106">
        <ele>808.7</ele>
        <time>2017-07-22T11:26:12Z</time>
      </trkpt>
      <trkpt lat="42.52216" lon="2.22102">
        <ele>807.7</ele>
        <time>2017-07-22T11:26:19Z</time>
      </trkpt>
      <trkpt lat="42.52215" lon="2.22102">
        <ele>807</ele>
        <time>2017-07-22T11:26:26Z</time>
      </trkpt>
      <trkpt lat="42.52209" lon="2.22103">
        <ele>805.4</ele>
        <time>2017-07-22T11:26:41Z</time>
      </trkpt>
      <trkpt lat="42.52204" lon="2.22105">
        <ele>804.3</ele>
        <time>2017-07-22T11:26:48Z</time>
      </trkpt>
      <trkpt lat="42.52197" lon="2.22102">
        <ele>804.3</ele>
        <time>2017-07-22T11:26:55Z</time>
      </trkpt>
      <trkpt lat="42.5219" lon="2.2209">
        <ele>808.1</ele>
        <time>2017-07-22T11:27:01Z</time>
      </trkpt>
      <trkpt lat="42.52183" lon="2.22091">
        <ele>810.5</ele>
        <time>2017-07-22T11:27:08Z</time>
      </trkpt>
      <trkpt lat="42.52174" lon="2.22092">
        <ele>819.3</ele>
        <time>2017-07-22T11:27:15Z</time>
      </trkpt>
      <trkpt lat="42.52168" lon="2.22086">
        <ele>827.1</ele>
        <time>2017-07-22T11:27:22Z</time>
      </trkpt>
      <trkpt lat="42.5216" lon="2.22085">
        <ele>834.8</ele>
        <time>2017-07-22T11:27:29Z</time>
      </trkpt>
      <trkpt lat="42.52156" lon="2.22081">
        <ele>840.5</ele>
        <time>2017-07-22T11:27:36Z</time>
      </trkpt>
      <trkpt lat="42.52154" lon="2.22075">
        <ele>845.1</ele>
        <time>2017-07-22T11:27:43Z</time>
      </trkpt>
      <trkpt lat="42.52152" lon="2.22067">
        <ele>849.3</ele>
        <time>2017-07-22T11:27:50Z</time>
      </trkpt>
      <trkpt lat="42.52149" lon="2.22059">
        <ele>853</ele>
        <time>2017-07-22T11:27:57Z</time>
      </trkpt>
      <trkpt lat="42.52149" lon="2.22056">
        <ele>855</ele>
        <time>2017-07-22T11:28:04Z</time>
      </trkpt>
      <trkpt lat="42.52149" lon="2.22056">
        <ele>855</ele>
        <time>2017-07-22T11:28:05Z</time>
      </trkpt>
      <trkpt lat="42.52145" lon="2.2205">
        <ele>858.4</ele>
        <time>2017-07-22T11:28:12Z</time>
      </trkpt>
      <trkpt lat="42.52143" lon="2.22047">
        <ele>860.4</ele>
        <time>2017-07-22T11:28:19Z</time>
      </trkpt>
      <trkpt lat="42.5214" lon="2.22043">
        <ele>861.2</ele>
        <time>2017-07-22T11:28:26Z</time>
      </trkpt>
      <trkpt lat="42.52138" lon="2.22037">
        <ele>862.7</ele>
        <time>2017-07-22T11:28:33Z</time>
      </trkpt>
      <trkpt lat="42.52138" lon="2.22037">
        <ele>862.7</ele>
        <time>2017-07-22T11:28:38Z</time>
      </trkpt>
      <trkpt lat="42.52134" lon="2.22029">
        <ele>866.2</ele>
        <time>2017-07-22T11:28:47Z</time>
      </trkpt>
      <trkpt lat="42.52132" lon="2.22027">
        <ele>867.1</ele>
        <time>2017-07-22T11:28:54Z</time>
      </trkpt>
      <trkpt lat="42.5213" lon="2.22023">
        <ele>869.6</ele>
        <time>2017-07-22T11:29:01Z</time>
      </trkpt>
      <trkpt lat="42.52129" lon="2.22018">
        <ele>871.7</ele>
        <time>2017-07-22T11:29:08Z</time>
      </trkpt>
      <trkpt lat="42.52127" lon="2.22014">
        <ele>873.8</ele>
        <time>2017-07-22T11:29:15Z</time>
      </trkpt>
      <trkpt lat="42.52123" lon="2.22011">
        <ele>875.6</ele>
        <time>2017-07-22T11:29:22Z</time>
      </trkpt>
      <trkpt lat="42.5212" lon="2.22007">
        <ele>877</ele>
        <time>2017-07-22T11:29:29Z</time>
      </trkpt>
      <trkpt lat="42.52117" lon="2.22001">
        <ele>878.4</ele>
        <time>2017-07-22T11:29:36Z</time>
      </trkpt>
      <trkpt lat="42.52116" lon="2.21994">
        <ele>880.3</ele>
        <time>2017-07-22T11:29:43Z</time>
      </trkpt>
      <trkpt lat="42.52116" lon="2.21988">
        <ele>882.2</ele>
        <time>2017-07-22T11:29:50Z</time>
      </trkpt>
      <trkpt lat="42.52113" lon="2.21984">
        <ele>884</ele>
        <time>2017-07-22T11:29:57Z</time>
      </trkpt>
      <trkpt lat="42.52112" lon="2.2198">
        <ele>885.5</ele>
        <time>2017-07-22T11:30:04Z</time>
      </trkpt>
      <trkpt lat="42.52109" lon="2.21976">
        <ele>887.4</ele>
        <time>2017-07-22T11:30:11Z</time>
      </trkpt>
      <trkpt lat="42.52107" lon="2.21971">
        <ele>888.7</ele>
        <time>2017-07-22T11:30:18Z</time>
      </trkpt>
      <trkpt lat="42.52107" lon="2.21969">
        <ele>889.6</ele>
        <time>2017-07-22T11:30:25Z</time>
      </trkpt>
      <trkpt lat="42.52107" lon="2.21966">
        <ele>889.9</ele>
        <time>2017-07-22T11:30:32Z</time>
      </trkpt>
      <trkpt lat="42.52107" lon="2.21966">
        <ele>889.9</ele>
        <time>2017-07-22T11:30:34Z</time>
      </trkpt>
      <trkpt lat="42.5211" lon="2.21956">
        <ele>894.9</ele>
        <time>2017-07-22T11:31:48Z</time>
      </trkpt>
      <trkpt lat="42.52109" lon="2.21949">
        <ele>895.4</ele>
        <time>2017-07-22T11:31:55Z</time>
      </trkpt>
      <trkpt lat="42.52108" lon="2.21943">
        <ele>896.2</ele>
        <time>2017-07-22T11:32:02Z</time>
      </trkpt>
      <trkpt lat="42.52106" lon="2.21939">
        <ele>897</ele>
        <time>2017-07-22T11:32:09Z</time>
      </trkpt>
      <trkpt lat="42.52106" lon="2.21939">
        <ele>897</ele>
        <time>2017-07-22T11:32:16Z</time>
      </trkpt>
      <trkpt lat="42.52105" lon="2.21929">
        <ele>899</ele>
        <time>2017-07-22T11:32:44Z</time>
      </trkpt>
      <trkpt lat="42.52102" lon="2.21925">
        <ele>899.7</ele>
        <time>2017-07-22T11:32:51Z</time>
      </trkpt>
      <trkpt lat="42.52098" lon="2.21917">
        <ele>900.6</ele>
        <time>2017-07-22T11:32:58Z</time>
      </trkpt>
      <trkpt lat="42.52094" lon="2.21914">
        <ele>901.3</ele>
        <time>2017-07-22T11:33:05Z</time>
      </trkpt>
      <trkpt lat="42.5209" lon="2.21909">
        <ele>902.2</ele>
        <time>2017-07-22T11:33:12Z</time>
      </trkpt>
      <trkpt lat="42.52088" lon="2.21907">
        <ele>902.9</ele>
        <time>2017-07-22T11:33:19Z</time>
      </trkpt>
      <trkpt lat="42.52084" lon="2.21906">
        <ele>903.4</ele>
        <time>2017-07-22T11:33:26Z</time>
      </trkpt>
      <trkpt lat="42.52081" lon="2.21905">
        <ele>903.8</ele>
        <time>2017-07-22T11:33:33Z</time>
      </trkpt>
      <trkpt lat="42.52077" lon="2.21905">
        <ele>903.9</ele>
        <time>2017-07-22T11:33:40Z</time>
      </trkpt>
      <trkpt lat="42.52076" lon="2.21905">
        <ele>903.9</ele>
        <time>2017-07-22T11:33:47Z</time>
      </trkpt>
      <trkpt lat="42.52076" lon="2.21905">
        <ele>903.9</ele>
        <time>2017-07-22T11:33:48Z</time>
      </trkpt>
      <trkpt lat="42.52073" lon="2.21895">
        <ele>904.6</ele>
        <time>2017-07-22T11:34:02Z</time>
      </trkpt>
      <trkpt lat="42.52071" lon="2.2189">
        <ele>905.3</ele>
        <time>2017-07-22T11:34:09Z</time>
      </trkpt>
      <trkpt lat="42.5207" lon="2.21885">
        <ele>905.7</ele>
        <time>2017-07-22T11:34:16Z</time>
      </trkpt>
      <trkpt lat="42.52067" lon="2.21881">
        <ele>905.8</ele>
        <time>2017-07-22T11:34:23Z</time>
      </trkpt>
      <trkpt lat="42.52066" lon="2.21878">
        <ele>906.4</ele>
        <time>2017-07-22T11:34:30Z</time>
      </trkpt>
      <trkpt lat="42.52066" lon="2.21878">
        <ele>906.4</ele>
        <time>2017-07-22T11:34:33Z</time>
      </trkpt>
      <trkpt lat="42.52059" lon="2.21874">
        <ele>909</ele>
        <time>2017-07-22T11:35:19Z</time>
      </trkpt>
      <trkpt lat="42.52058" lon="2.21873">
        <ele>910.2</ele>
        <time>2017-07-22T11:35:26Z</time>
      </trkpt>
      <trkpt lat="42.52057" lon="2.21873">
        <ele>910.3</ele>
        <time>2017-07-22T11:35:29Z</time>
      </trkpt>
      <trkpt lat="42.52058" lon="2.21873">
        <ele>910.6</ele>
        <time>2017-07-22T11:35:36Z</time>
      </trkpt>
      <trkpt lat="42.52055" lon="2.21864">
        <ele>911.8</ele>
        <time>2017-07-22T11:35:43Z</time>
      </trkpt>
      <trkpt lat="42.52053" lon="2.21858">
        <ele>912.6</ele>
        <time>2017-07-22T11:35:50Z</time>
      </trkpt>
      <trkpt lat="42.52049" lon="2.21853">
        <ele>913.6</ele>
        <time>2017-07-22T11:35:57Z</time>
      </trkpt>
      <trkpt lat="42.52045" lon="2.2185">
        <ele>915.1</ele>
        <time>2017-07-22T11:36:04Z</time>
      </trkpt>
      <trkpt lat="42.5204" lon="2.21846">
        <ele>917.1</ele>
        <time>2017-07-22T11:36:11Z</time>
      </trkpt>
      <trkpt lat="42.52039" lon="2.21848">
        <ele>918.7</ele>
        <time>2017-07-22T11:36:18Z</time>
      </trkpt>
      <trkpt lat="42.52036" lon="2.21849">
        <ele>920.4</ele>
        <time>2017-07-22T11:36:25Z</time>
      </trkpt>
      <trkpt lat="42.52036" lon="2.21853">
        <ele>922.4</ele>
        <time>2017-07-22T11:36:32Z</time>
      </trkpt>
      <trkpt lat="42.52036" lon="2.21859">
        <ele>924.2</ele>
        <time>2017-07-22T11:36:39Z</time>
      </trkpt>
      <trkpt lat="42.52035" lon="2.21859">
        <ele>926.2</ele>
        <time>2017-07-22T11:36:46Z</time>
      </trkpt>
      <trkpt lat="42.52031" lon="2.21858">
        <ele>927.9</ele>
        <time>2017-07-22T11:36:53Z</time>
      </trkpt>
      <trkpt lat="42.52029" lon="2.21856">
        <ele>929.5</ele>
        <time>2017-07-22T11:37:00Z</time>
      </trkpt>
      <trkpt lat="42.52026" lon="2.21853">
        <ele>930.5</ele>
        <time>2017-07-22T11:37:07Z</time>
      </trkpt>
      <trkpt lat="42.52026" lon="2.21851">
        <ele>930.9</ele>
        <time>2017-07-22T11:37:14Z</time>
      </trkpt>
      <trkpt lat="42.52024" lon="2.21846">
        <ele>931.2</ele>
        <time>2017-07-22T11:37:22Z</time>
      </trkpt>
      <trkpt lat="42.52023" lon="2.21842">
        <ele>931.8</ele>
        <time>2017-07-22T11:37:28Z</time>
      </trkpt>
      <trkpt lat="42.52023" lon="2.21842">
        <ele>931.8</ele>
        <time>2017-07-22T11:37:30Z</time>
      </trkpt>
      <trkpt lat="42.52029" lon="2.21835">
        <ele>939.7</ele>
        <time>2017-07-22T11:39:03Z</time>
      </trkpt>
      <trkpt lat="42.52033" lon="2.21841">
        <ele>940.3</ele>
        <time>2017-07-22T11:39:10Z</time>
      </trkpt>
      <trkpt lat="42.52034" lon="2.21847">
        <ele>940.6</ele>
        <time>2017-07-22T11:39:17Z</time>
      </trkpt>
      <trkpt lat="42.52036" lon="2.21848">
        <ele>940.9</ele>
        <time>2017-07-22T11:39:24Z</time>
      </trkpt>
      <trkpt lat="42.52036" lon="2.21848">
        <ele>940.9</ele>
        <time>2017-07-22T11:39:27Z</time>
      </trkpt>
      <trkpt lat="42.52032" lon="2.21845">
        <ele>942.1</ele>
        <time>2017-07-22T11:39:42Z</time>
      </trkpt>
      <trkpt lat="42.52028" lon="2.2184">
        <ele>942.4</ele>
        <time>2017-07-22T11:39:49Z</time>
      </trkpt>
      <trkpt lat="42.52024" lon="2.21839">
        <ele>943</ele>
        <time>2017-07-22T11:39:56Z</time>
      </trkpt>
      <trkpt lat="42.52024" lon="2.21842">
        <ele>943.5</ele>
        <time>2017-07-22T11:40:03Z</time>
      </trkpt>
      <trkpt lat="42.5202" lon="2.21845">
        <ele>943.9</ele>
        <time>2017-07-22T11:40:10Z</time>
      </trkpt>
      <trkpt lat="42.52022" lon="2.21849">
        <ele>944.5</ele>
        <time>2017-07-22T11:40:17Z</time>
      </trkpt>
      <trkpt lat="42.52022" lon="2.21849">
        <ele>944.5</ele>
        <time>2017-07-22T11:40:24Z</time>
      </trkpt>
      <trkpt lat="42.52017" lon="2.21855">
        <ele>944.8</ele>
        <time>2017-07-22T11:40:35Z</time>
      </trkpt>
      <trkpt lat="42.5201" lon="2.21859">
        <ele>944.1</ele>
        <time>2017-07-22T11:40:42Z</time>
      </trkpt>
      <trkpt lat="42.52012" lon="2.21864">
        <ele>943.7</ele>
        <time>2017-07-22T11:40:49Z</time>
      </trkpt>
      <trkpt lat="42.52017" lon="2.21865">
        <ele>943.9</ele>
        <time>2017-07-22T11:40:56Z</time>
      </trkpt>
      <trkpt lat="42.52017" lon="2.21863">
        <ele>943.6</ele>
        <time>2017-07-22T11:41:03Z</time>
      </trkpt>
      <trkpt lat="42.52015" lon="2.21858">
        <ele>944.8</ele>
        <time>2017-07-22T11:41:10Z</time>
      </trkpt>
      <trkpt lat="42.52015" lon="2.21858">
        <ele>944.9</ele>
        <time>2017-07-22T11:41:17Z</time>
      </trkpt>
      <trkpt lat="42.52008" lon="2.21859">
        <ele>946.9</ele>
        <time>2017-07-22T11:41:23Z</time>
      </trkpt>
      <trkpt lat="42.52002" lon="2.21858">
        <ele>947.3</ele>
        <time>2017-07-22T11:41:30Z</time>
      </trkpt>
      <trkpt lat="42.52" lon="2.21859">
        <ele>947.8</ele>
        <time>2017-07-22T11:41:37Z</time>
      </trkpt>
      <trkpt lat="42.51998" lon="2.21864">
        <ele>948.5</ele>
        <time>2017-07-22T11:41:44Z</time>
      </trkpt>
      <trkpt lat="42.51999" lon="2.21868">
        <ele>949.8</ele>
        <time>2017-07-22T11:41:51Z</time>
      </trkpt>
      <trkpt lat="42.51999" lon="2.21868">
        <ele>949.8</ele>
        <time>2017-07-22T11:41:54Z</time>
      </trkpt>
      <trkpt lat="42.52" lon="2.21868">
        <ele>953.6</ele>
        <time>2017-07-22T11:42:08Z</time>
      </trkpt>
      <trkpt lat="42.52002" lon="2.21864">
        <ele>954.3</ele>
        <time>2017-07-22T11:42:15Z</time>
      </trkpt>
      <trkpt lat="42.52001" lon="2.21864">
        <ele>954.9</ele>
        <time>2017-07-22T11:42:22Z</time>
      </trkpt>
      <trkpt lat="42.52001" lon="2.21863">
        <ele>955.1</ele>
        <time>2017-07-22T11:42:26Z</time>
      </trkpt>
      <trkpt lat="42.51996" lon="2.2186">
        <ele>956.8</ele>
        <time>2017-07-22T11:42:33Z</time>
      </trkpt>
      <trkpt lat="42.51993" lon="2.21863">
        <ele>957.5</ele>
        <time>2017-07-22T11:42:40Z</time>
      </trkpt>
      <trkpt lat="42.51988" lon="2.21866">
        <ele>957.6</ele>
        <time>2017-07-22T11:42:47Z</time>
      </trkpt>
      <trkpt lat="42.51991" lon="2.21868">
        <ele>958.1</ele>
        <time>2017-07-22T11:42:54Z</time>
      </trkpt>
      <trkpt lat="42.51991" lon="2.21868">
        <ele>958.1</ele>
        <time>2017-07-22T11:42:57Z</time>
      </trkpt>
      <trkpt lat="42.51982" lon="2.21867">
        <ele>962.7</ele>
        <time>2017-07-22T11:43:13Z</time>
      </trkpt>
      <trkpt lat="42.51978" lon="2.21872">
        <ele>962.7</ele>
        <time>2017-07-22T11:43:20Z</time>
      </trkpt>
      <trkpt lat="42.51977" lon="2.21873">
        <ele>962.6</ele>
        <time>2017-07-22T11:43:27Z</time>
      </trkpt>
      <trkpt lat="42.51972" lon="2.21873">
        <ele>963.2</ele>
        <time>2017-07-22T11:43:34Z</time>
      </trkpt>
      <trkpt lat="42.51965" lon="2.21872">
        <ele>963.7</ele>
        <time>2017-07-22T11:43:41Z</time>
      </trkpt>
      <trkpt lat="42.51963" lon="2.21873">
        <ele>963.3</ele>
        <time>2017-07-22T11:43:48Z</time>
      </trkpt>
      <trkpt lat="42.51968" lon="2.21878">
        <ele>967.1</ele>
        <time>2017-07-22T11:43:55Z</time>
      </trkpt>
      <trkpt lat="42.51969" lon="2.21877">
        <ele>968</ele>
        <time>2017-07-22T11:44:02Z</time>
      </trkpt>
      <trkpt lat="42.51973" lon="2.21874">
        <ele>972</ele>
        <time>2017-07-22T11:44:09Z</time>
      </trkpt>
      <trkpt lat="42.51971" lon="2.21872">
        <ele>973.9</ele>
        <time>2017-07-22T11:44:16Z</time>
      </trkpt>
      <trkpt lat="42.51969" lon="2.21871">
        <ele>974.9</ele>
        <time>2017-07-22T11:44:23Z</time>
      </trkpt>
      <trkpt lat="42.51966" lon="2.21871">
        <ele>976.1</ele>
        <time>2017-07-22T11:44:30Z</time>
      </trkpt>
      <trkpt lat="42.51966" lon="2.21871">
        <ele>976.6</ele>
        <time>2017-07-22T11:44:36Z</time>
      </trkpt>
      <trkpt lat="42.51964" lon="2.21874">
        <ele>979.5</ele>
        <time>2017-07-22T11:44:48Z</time>
      </trkpt>
      <trkpt lat="42.51962" lon="2.21879">
        <ele>979.8</ele>
        <time>2017-07-22T11:44:55Z</time>
      </trkpt>
      <trkpt lat="42.51964" lon="2.21884">
        <ele>979.9</ele>
        <time>2017-07-22T11:45:02Z</time>
      </trkpt>
      <trkpt lat="42.51964" lon="2.21889">
        <ele>980.2</ele>
        <time>2017-07-22T11:45:09Z</time>
      </trkpt>
      <trkpt lat="42.51964" lon="2.21889">
        <ele>980.1</ele>
        <time>2017-07-22T11:45:15Z</time>
      </trkpt>
      <trkpt lat="42.51962" lon="2.21898">
        <ele>980</ele>
        <time>2017-07-22T11:45:23Z</time>
      </trkpt>
      <trkpt lat="42.51964" lon="2.21903">
        <ele>980.8</ele>
        <time>2017-07-22T11:45:30Z</time>
      </trkpt>
      <trkpt lat="42.51964" lon="2.21903">
        <ele>980.8</ele>
        <time>2017-07-22T11:45:36Z</time>
      </trkpt>
      <trkpt lat="42.51957" lon="2.21907">
        <ele>986.1</ele>
        <time>2017-07-22T11:46:19Z</time>
      </trkpt>
      <trkpt lat="42.51957" lon="2.21908">
        <ele>987</ele>
        <time>2017-07-22T11:46:26Z</time>
      </trkpt>
      <trkpt lat="42.51957" lon="2.21908">
        <ele>987</ele>
        <time>2017-07-22T11:46:30Z</time>
      </trkpt>
      <trkpt lat="42.51959" lon="2.21911">
        <ele>988.2</ele>
        <time>2017-07-22T11:46:41Z</time>
      </trkpt>
      <trkpt lat="42.51964" lon="2.21909">
        <ele>989.1</ele>
        <time>2017-07-22T11:46:48Z</time>
      </trkpt>
      <trkpt lat="42.51968" lon="2.21909">
        <ele>989.9</ele>
        <time>2017-07-22T11:46:55Z</time>
      </trkpt>
      <trkpt lat="42.51968" lon="2.21909">
        <ele>989.9</ele>
        <time>2017-07-22T11:47:00Z</time>
      </trkpt>
      <trkpt lat="42.51977" lon="2.21907">
        <ele>990.1</ele>
        <time>2017-07-22T11:47:05Z</time>
      </trkpt>
      <trkpt lat="42.51979" lon="2.21907">
        <ele>989.7</ele>
        <time>2017-07-22T11:47:12Z</time>
      </trkpt>
      <trkpt lat="42.51979" lon="2.21907">
        <ele>989.7</ele>
        <time>2017-07-22T11:47:19Z</time>
      </trkpt>
      <trkpt lat="42.51976" lon="2.21911">
        <ele>990.1</ele>
        <time>2017-07-22T11:47:41Z</time>
      </trkpt>
      <trkpt lat="42.51976" lon="2.21911">
        <ele>990.1</ele>
        <time>2017-07-22T11:47:47Z</time>
      </trkpt>
      <trkpt lat="42.51974" lon="2.21906">
        <ele>991.9</ele>
        <time>2017-07-22T11:47:59Z</time>
      </trkpt>
      <trkpt lat="42.51975" lon="2.21904">
        <ele>992</ele>
        <time>2017-07-22T11:48:06Z</time>
      </trkpt>
      <trkpt lat="42.51975" lon="2.21904">
        <ele>992</ele>
        <time>2017-07-22T11:48:08Z</time>
      </trkpt>
      <trkpt lat="42.51967" lon="2.219">
        <ele>993.6</ele>
        <time>2017-07-22T11:48:21Z</time>
      </trkpt>
      <trkpt lat="42.51964" lon="2.219">
        <ele>993.5</ele>
        <time>2017-07-22T11:48:28Z</time>
      </trkpt>
      <trkpt lat="42.51964" lon="2.219">
        <ele>993.5</ele>
        <time>2017-07-22T11:48:32Z</time>
      </trkpt>
      <trkpt lat="42.51971" lon="2.21908">
        <ele>992.9</ele>
        <time>2017-07-22T11:48:56Z</time>
      </trkpt>
      <trkpt lat="42.51973" lon="2.21908">
        <ele>993.5</ele>
        <time>2017-07-22T11:49:03Z</time>
      </trkpt>
      <trkpt lat="42.51973" lon="2.21908">
        <ele>993.5</ele>
        <time>2017-07-22T11:49:05Z</time>
      </trkpt>
      <trkpt lat="42.51982" lon="2.21912">
        <ele>997</ele>
        <time>2017-07-22T11:49:33Z</time>
      </trkpt>
      <trkpt lat="42.51983" lon="2.21912">
        <ele>996.9</ele>
        <time>2017-07-22T11:49:40Z</time>
      </trkpt>
      <trkpt lat="42.51983" lon="2.21912">
        <ele>996.9</ele>
        <time>2017-07-22T11:49:43Z</time>
      </trkpt>
      <trkpt lat="42.51982" lon="2.2192">
        <ele>998.1</ele>
        <time>2017-07-22T11:50:11Z</time>
      </trkpt>
      <trkpt lat="42.51979" lon="2.21928">
        <ele>998</ele>
        <time>2017-07-22T11:50:18Z</time>
      </trkpt>
      <trkpt lat="42.51979" lon="2.21938">
        <ele>997.8</ele>
        <time>2017-07-22T11:50:25Z</time>
      </trkpt>
      <trkpt lat="42.51979" lon="2.21947">
        <ele>997.7</ele>
        <time>2017-07-22T11:50:32Z</time>
      </trkpt>
      <trkpt lat="42.51982" lon="2.21957">
        <ele>997.6</ele>
        <time>2017-07-22T11:50:39Z</time>
      </trkpt>
      <trkpt lat="42.51983" lon="2.21962">
        <ele>997.2</ele>
        <time>2017-07-22T11:50:46Z</time>
      </trkpt>
      <trkpt lat="42.51986" lon="2.21969">
        <ele>997.1</ele>
        <time>2017-07-22T11:50:53Z</time>
      </trkpt>
      <trkpt lat="42.51987" lon="2.21977">
        <ele>996.8</ele>
        <time>2017-07-22T11:51:00Z</time>
      </trkpt>
      <trkpt lat="42.51986" lon="2.21986">
        <ele>996.7</ele>
        <time>2017-07-22T11:51:07Z</time>
      </trkpt>
      <trkpt lat="42.51986" lon="2.21996">
        <ele>996.4</ele>
        <time>2017-07-22T11:51:14Z</time>
      </trkpt>
      <trkpt lat="42.51991" lon="2.22004">
        <ele>996.2</ele>
        <time>2017-07-22T11:51:19Z</time>
      </trkpt>
      <trkpt lat="42.51993" lon="2.22015">
        <ele>996</ele>
        <time>2017-07-22T11:51:25Z</time>
      </trkpt>
      <trkpt lat="42.51997" lon="2.22024">
        <ele>995.8</ele>
        <time>2017-07-22T11:51:31Z</time>
      </trkpt>
      <trkpt lat="42.52001" lon="2.22032">
        <ele>995.9</ele>
        <time>2017-07-22T11:51:37Z</time>
      </trkpt>
      <trkpt lat="42.52003" lon="2.22041">
        <ele>995.5</ele>
        <time>2017-07-22T11:51:44Z</time>
      </trkpt>
      <trkpt lat="42.52003" lon="2.22051">
        <ele>995.4</ele>
        <time>2017-07-22T11:51:50Z</time>
      </trkpt>
      <trkpt lat="42.52003" lon="2.22062">
        <ele>995.6</ele>
        <time>2017-07-22T11:51:56Z</time>
      </trkpt>
      <trkpt lat="42.52004" lon="2.22067">
        <ele>996.2</ele>
        <time>2017-07-22T11:52:03Z</time>
      </trkpt>
      <trkpt lat="42.52001" lon="2.2207">
        <ele>996.5</ele>
        <time>2017-07-22T11:52:10Z</time>
      </trkpt>
      <trkpt lat="42.51996" lon="2.22073">
        <ele>996.3</ele>
        <time>2017-07-22T11:52:17Z</time>
      </trkpt>
      <trkpt lat="42.51992" lon="2.22075">
        <ele>996.4</ele>
        <time>2017-07-22T11:52:24Z</time>
      </trkpt>
      <trkpt lat="42.51985" lon="2.22076">
        <ele>996.5</ele>
        <time>2017-07-22T11:52:31Z</time>
      </trkpt>
      <trkpt lat="42.51981" lon="2.22076">
        <ele>996.7</ele>
        <time>2017-07-22T11:52:38Z</time>
      </trkpt>
      <trkpt lat="42.51975" lon="2.22075">
        <ele>996.8</ele>
        <time>2017-07-22T11:52:45Z</time>
      </trkpt>
      <trkpt lat="42.51968" lon="2.22079">
        <ele>996.9</ele>
        <time>2017-07-22T11:52:52Z</time>
      </trkpt>
      <trkpt lat="42.51963" lon="2.22087">
        <ele>996.9</ele>
        <time>2017-07-22T11:52:57Z</time>
      </trkpt>
      <trkpt lat="42.51956" lon="2.22089">
        <ele>997</ele>
        <time>2017-07-22T11:53:04Z</time>
      </trkpt>
      <trkpt lat="42.51948" lon="2.22101">
        <ele>997.5</ele>
        <time>2017-07-22T11:53:12Z</time>
      </trkpt>
      <trkpt lat="42.51947" lon="2.221">
        <ele>997.6</ele>
        <time>2017-07-22T11:53:19Z</time>
      </trkpt>
      <trkpt lat="42.51947" lon="2.221">
        <ele>997.6</ele>
        <time>2017-07-22T11:53:21Z</time>
      </trkpt>
      <trkpt lat="42.51936" lon="2.22112">
        <ele>998.1</ele>
        <time>2017-07-22T11:53:22Z</time>
      </trkpt>
      <trkpt lat="42.5193" lon="2.22121">
        <ele>998.3</ele>
        <time>2017-07-22T11:53:26Z</time>
      </trkpt>
      <trkpt lat="42.51931" lon="2.22119">
        <ele>998.5</ele>
        <time>2017-07-22T11:53:33Z</time>
      </trkpt>
      <trkpt lat="42.51961" lon="2.2213">
        <ele>999.2</ele>
        <time>2017-07-22T11:53:38Z</time>
      </trkpt>
      <trkpt lat="42.51986" lon="2.22154">
        <ele>1000.4</ele>
        <time>2017-07-22T11:53:42Z</time>
      </trkpt>
      <trkpt lat="42.51992" lon="2.22162">
        <ele>1000.9</ele>
        <time>2017-07-22T11:53:44Z</time>
      </trkpt>
      <trkpt lat="42.51994" lon="2.22173">
        <ele>1001.1</ele>
        <time>2017-07-22T11:53:44Z</time>
      </trkpt>
      <trkpt lat="42.51995" lon="2.22186">
        <ele>1001.3</ele>
        <time>2017-07-22T11:53:45Z</time>
      </trkpt>
      <trkpt lat="42.51995" lon="2.222">
        <ele>1001.4</ele>
        <time>2017-07-22T11:53:46Z</time>
      </trkpt>
      <trkpt lat="42.51999" lon="2.22212">
        <ele>1002.6</ele>
        <time>2017-07-22T11:53:48Z</time>
      </trkpt>
      <trkpt lat="42.52029" lon="2.22164">
        <ele>1010.3</ele>
        <time>2017-07-22T11:53:53Z</time>
      </trkpt>
      <trkpt lat="42.52038" lon="2.22126">
        <ele>1013.3</ele>
        <time>2017-07-22T11:53:55Z</time>
      </trkpt>
      <trkpt lat="42.52043" lon="2.22111">
        <ele>1014.2</ele>
        <time>2017-07-22T11:53:56Z</time>
      </trkpt>
      <trkpt lat="42.52045" lon="2.22101">
        <ele>1015.8</ele>
        <time>2017-07-22T11:53:57Z</time>
      </trkpt>
      <trkpt lat="42.52048" lon="2.22087">
        <ele>1020</ele>
        <time>2017-07-22T11:54:00Z</time>
      </trkpt>
      <trkpt lat="42.52055" lon="2.22086">
        <ele>1025.6</ele>
        <time>2017-07-22T11:54:03Z</time>
      </trkpt>
      <trkpt lat="42.52063" lon="2.22088">
        <ele>1028.7</ele>
        <time>2017-07-22T11:54:06Z</time>
      </trkpt>
      <trkpt lat="42.52062" lon="2.22098">
        <ele>1032.1</ele>
        <time>2017-07-22T11:54:11Z</time>
      </trkpt>
      <trkpt lat="42.52058" lon="2.22109">
        <ele>1033.5</ele>
        <time>2017-07-22T11:54:14Z</time>
      </trkpt>
      <trkpt lat="42.52053" lon="2.22124">
        <ele>1035.1</ele>
        <time>2017-07-22T11:54:17Z</time>
      </trkpt>
      <trkpt lat="42.5205" lon="2.22137">
        <ele>1036.6</ele>
        <time>2017-07-22T11:54:19Z</time>
      </trkpt>
      <trkpt lat="42.5204" lon="2.22138">
        <ele>1039.2</ele>
        <time>2017-07-22T11:54:22Z</time>
      </trkpt>
      <trkpt lat="42.52012" lon="2.22165">
        <ele>1043.2</ele>
        <time>2017-07-22T11:54:24Z</time>
      </trkpt>
      <trkpt lat="42.52004" lon="2.2217">
        <ele>1045.8</ele>
        <time>2017-07-22T11:54:27Z</time>
      </trkpt>
      <trkpt lat="42.51995" lon="2.22175">
        <ele>1048.3</ele>
        <time>2017-07-22T11:54:30Z</time>
      </trkpt>
      <trkpt lat="42.51852" lon="2.22347">
        <ele>1056.2</ele>
        <time>2017-07-22T11:54:35Z</time>
      </trkpt>
      <trkpt lat="42.51836" lon="2.22393">
        <ele>1059.1</ele>
        <time>2017-07-22T11:54:39Z</time>
      </trkpt>
      <trkpt lat="42.51832" lon="2.22409">
        <ele>1059.9</ele>
        <time>2017-07-22T11:54:40Z</time>
      </trkpt>
      <trkpt lat="42.51829" lon="2.22421">
        <ele>1061.2</ele>
        <time>2017-07-22T11:54:41Z</time>
      </trkpt>
      <trkpt lat="42.51826" lon="2.2243">
        <ele>1062.5</ele>
        <time>2017-07-22T11:54:42Z</time>
      </trkpt>
      <trkpt lat="42.5182" lon="2.22441">
        <ele>1064</ele>
        <time>2017-07-22T11:54:45Z</time>
      </trkpt>
      <trkpt lat="42.51812" lon="2.22445">
        <ele>1069.1</ele>
        <time>2017-07-22T11:54:50Z</time>
      </trkpt>
      <trkpt lat="42.51808" lon="2.22456">
        <ele>1071.2</ele>
        <time>2017-07-22T11:54:52Z</time>
      </trkpt>
      <trkpt lat="42.51806" lon="2.22453">
        <ele>1098.4</ele>
        <time>2017-07-22T11:55:00Z</time>
      </trkpt>
      <trkpt lat="42.51805" lon="2.22448">
        <ele>1123.5</ele>
        <time>2017-07-22T11:55:07Z</time>
      </trkpt>
      <trkpt lat="42.51807" lon="2.22438">
        <ele>1133.5</ele>
        <time>2017-07-22T11:55:08Z</time>
      </trkpt>
      <trkpt lat="42.51804" lon="2.22437">
        <ele>1159.7</ele>
        <time>2017-07-22T11:55:15Z</time>
      </trkpt>
      <trkpt lat="42.51797" lon="2.22442">
        <ele>1173.1</ele>
        <time>2017-07-22T11:55:20Z</time>
      </trkpt>
      <trkpt lat="42.5179" lon="2.22445">
        <ele>1182.3</ele>
        <time>2017-07-22T11:55:26Z</time>
      </trkpt>
      <trkpt lat="42.51782" lon="2.22448">
        <ele>1193.1</ele>
        <time>2017-07-22T11:55:31Z</time>
      </trkpt>
      <trkpt lat="42.51782" lon="2.2242">
        <ele>1216.9</ele>
        <time>2017-07-22T11:55:37Z</time>
      </trkpt>
      <trkpt lat="42.51785" lon="2.22401">
        <ele>1220.8</ele>
        <time>2017-07-22T11:55:38Z</time>
      </trkpt>
      <trkpt lat="42.51788" lon="2.22386">
        <ele>1224.3</ele>
        <time>2017-07-22T11:55:39Z</time>
      </trkpt>
      <trkpt lat="42.51789" lon="2.2237">
        <ele>1229.7</ele>
        <time>2017-07-22T11:55:41Z</time>
      </trkpt>
      <trkpt lat="42.51785" lon="2.22366">
        <ele>1243</ele>
        <time>2017-07-22T11:55:48Z</time>
      </trkpt>
      <trkpt lat="42.5178" lon="2.22365">
        <ele>1255.2</ele>
        <time>2017-07-22T11:55:55Z</time>
      </trkpt>
      <trkpt lat="42.51774" lon="2.22369">
        <ele>1264.4</ele>
        <time>2017-07-22T11:56:02Z</time>
      </trkpt>
      <trkpt lat="42.51769" lon="2.22361">
        <ele>1265.7</ele>
        <time>2017-07-22T11:56:08Z</time>
      </trkpt>
      <trkpt lat="42.51764" lon="2.22351">
        <ele>1265.5</ele>
        <time>2017-07-22T11:56:13Z</time>
      </trkpt>
      <trkpt lat="42.5176" lon="2.22344">
        <ele>1267</ele>
        <time>2017-07-22T11:56:20Z</time>
      </trkpt>
      <trkpt lat="42.51753" lon="2.22342">
        <ele>1267.2</ele>
        <time>2017-07-22T11:56:24Z</time>
      </trkpt>
      <trkpt lat="42.51749" lon="2.22351">
        <ele>1272.5</ele>
        <time>2017-07-22T11:56:30Z</time>
      </trkpt>
      <trkpt lat="42.51742" lon="2.2235">
        <ele>1266.9</ele>
        <time>2017-07-22T11:56:37Z</time>
      </trkpt>
      <trkpt lat="42.51735" lon="2.22343">
        <ele>1259.9</ele>
        <time>2017-07-22T11:56:42Z</time>
      </trkpt>
      <trkpt lat="42.51735" lon="2.2233">
        <ele>1252.5</ele>
        <time>2017-07-22T11:56:45Z</time>
      </trkpt>
      <trkpt lat="42.51738" lon="2.22321">
        <ele>1249.6</ele>
        <time>2017-07-22T11:56:48Z</time>
      </trkpt>
      <trkpt lat="42.51739" lon="2.22311">
        <ele>1240.7</ele>
        <time>2017-07-22T11:56:52Z</time>
      </trkpt>
      <trkpt lat="42.51742" lon="2.22296">
        <ele>1231.7</ele>
        <time>2017-07-22T11:56:54Z</time>
      </trkpt>
      <trkpt lat="42.51744" lon="2.2228">
        <ele>1220.8</ele>
        <time>2017-07-22T11:56:57Z</time>
      </trkpt>
      <trkpt lat="42.51746" lon="2.22268">
        <ele>1214.6</ele>
        <time>2017-07-22T11:57:01Z</time>
      </trkpt>
      <trkpt lat="42.51751" lon="2.2226">
        <ele>1202.9</ele>
        <time>2017-07-22T11:57:07Z</time>
      </trkpt>
      <trkpt lat="42.51755" lon="2.22247">
        <ele>1188.9</ele>
        <time>2017-07-22T11:57:12Z</time>
      </trkpt>
      <trkpt lat="42.51751" lon="2.22238">
        <ele>1175.1</ele>
        <time>2017-07-22T11:57:19Z</time>
      </trkpt>
      <trkpt lat="42.51749" lon="2.22235">
        <ele>1166</ele>
        <time>2017-07-22T11:57:26Z</time>
      </trkpt>
      <trkpt lat="42.51746" lon="2.22228">
        <ele>1154.1</ele>
        <time>2017-07-22T11:57:33Z</time>
      </trkpt>
      <trkpt lat="42.51741" lon="2.22229">
        <ele>1147.1</ele>
        <time>2017-07-22T11:57:40Z</time>
      </trkpt>
      <trkpt lat="42.51734" lon="2.22226">
        <ele>1138.6</ele>
        <time>2017-07-22T11:57:46Z</time>
      </trkpt>
      <trkpt lat="42.5173" lon="2.22222">
        <ele>1128.1</ele>
        <time>2017-07-22T11:57:53Z</time>
      </trkpt>
      <trkpt lat="42.51722" lon="2.22225">
        <ele>1119.4</ele>
        <time>2017-07-22T11:57:59Z</time>
      </trkpt>
      <trkpt lat="42.51717" lon="2.22228">
        <ele>1105.6</ele>
        <time>2017-07-22T11:58:06Z</time>
      </trkpt>
      <trkpt lat="42.51715" lon="2.22223">
        <ele>1091.1</ele>
        <time>2017-07-22T11:58:13Z</time>
      </trkpt>
      <trkpt lat="42.51708" lon="2.22222">
        <ele>1081.6</ele>
        <time>2017-07-22T11:58:20Z</time>
      </trkpt>
      <trkpt lat="42.51701" lon="2.22226">
        <ele>1074.2</ele>
        <time>2017-07-22T11:58:27Z</time>
      </trkpt>
      <trkpt lat="42.51695" lon="2.22227">
        <ele>1068.4</ele>
        <time>2017-07-22T11:58:34Z</time>
      </trkpt>
      <trkpt lat="42.51688" lon="2.22222">
        <ele>1064.7</ele>
        <time>2017-07-22T11:58:38Z</time>
      </trkpt>
      <trkpt lat="42.51689" lon="2.22235">
        <ele>1060.2</ele>
        <time>2017-07-22T11:58:45Z</time>
      </trkpt>
      <trkpt lat="42.51681" lon="2.22234">
        <ele>1058.6</ele>
        <time>2017-07-22T11:58:48Z</time>
      </trkpt>
      <trkpt lat="42.51688" lon="2.22245">
        <ele>1052.9</ele>
        <time>2017-07-22T11:58:55Z</time>
      </trkpt>
      <trkpt lat="42.51719" lon="2.2228">
        <ele>1050.9</ele>
        <time>2017-07-22T11:58:57Z</time>
      </trkpt>
      <trkpt lat="42.51722" lon="2.22295">
        <ele>1049.4</ele>
        <time>2017-07-22T11:58:58Z</time>
      </trkpt>
      <trkpt lat="42.51717" lon="2.22289">
        <ele>1048.5</ele>
        <time>2017-07-22T11:58:59Z</time>
      </trkpt>
      <trkpt lat="42.51706" lon="2.22279">
        <ele>1047</ele>
        <time>2017-07-22T11:59:02Z</time>
      </trkpt>
      <trkpt lat="42.51713" lon="2.22306">
        <ele>1047.5</ele>
        <time>2017-07-22T11:59:04Z</time>
      </trkpt>
      <trkpt lat="42.51701" lon="2.22286">
        <ele>1046.5</ele>
        <time>2017-07-22T11:59:06Z</time>
      </trkpt>
      <trkpt lat="42.51693" lon="2.22276">
        <ele>1045.8</ele>
        <time>2017-07-22T11:59:08Z</time>
      </trkpt>
      <trkpt lat="42.51698" lon="2.22287">
        <ele>1044.6</ele>
        <time>2017-07-22T11:59:09Z</time>
      </trkpt>
      <trkpt lat="42.51706" lon="2.22301">
        <ele>1043.7</ele>
        <time>2017-07-22T11:59:10Z</time>
      </trkpt>
      <trkpt lat="42.51715" lon="2.22321">
        <ele>1043.7</ele>
        <time>2017-07-22T11:59:12Z</time>
      </trkpt>
      <trkpt lat="42.51721" lon="2.22347">
        <ele>1045.2</ele>
        <time>2017-07-22T11:59:13Z</time>
      </trkpt>
      <trkpt lat="42.51734" lon="2.22354">
        <ele>1045.3</ele>
        <time>2017-07-22T11:59:14Z</time>
      </trkpt>
      <trkpt lat="42.5174" lon="2.22361">
        <ele>1042.5</ele>
        <time>2017-07-22T11:59:18Z</time>
      </trkpt>
      <trkpt lat="42.51734" lon="2.22353">
        <ele>1041.9</ele>
        <time>2017-07-22T11:59:19Z</time>
      </trkpt>
      <trkpt lat="42.51722" lon="2.22339">
        <ele>1041.9</ele>
        <time>2017-07-22T11:59:22Z</time>
      </trkpt>
      <trkpt lat="42.51713" lon="2.22333">
        <ele>1039.1</ele>
        <time>2017-07-22T11:59:28Z</time>
      </trkpt>
      <trkpt lat="42.51705" lon="2.22323">
        <ele>1036.3</ele>
        <time>2017-07-22T11:59:33Z</time>
      </trkpt>
      <trkpt lat="42.51698" lon="2.22317">
        <ele>1033.3</ele>
        <time>2017-07-22T11:59:38Z</time>
      </trkpt>
      <trkpt lat="42.51691" lon="2.2231">
        <ele>1032.6</ele>
        <time>2017-07-22T11:59:40Z</time>
      </trkpt>
      <trkpt lat="42.51682" lon="2.22298">
        <ele>1031.7</ele>
        <time>2017-07-22T11:59:46Z</time>
      </trkpt>
      <trkpt lat="42.51691" lon="2.2231">
        <ele>1031.2</ele>
        <time>2017-07-22T11:59:47Z</time>
      </trkpt>
      <trkpt lat="42.51701" lon="2.22322">
        <ele>1028.7</ele>
        <time>2017-07-22T11:59:49Z</time>
      </trkpt>
      <trkpt lat="42.51706" lon="2.22333">
        <ele>1026.2</ele>
        <time>2017-07-22T11:59:51Z</time>
      </trkpt>
      <trkpt lat="42.5171" lon="2.22343">
        <ele>1025.5</ele>
        <time>2017-07-22T11:59:52Z</time>
      </trkpt>
      <trkpt lat="42.51702" lon="2.22337">
        <ele>1025</ele>
        <time>2017-07-22T11:59:56Z</time>
      </trkpt>
      <trkpt lat="42.51695" lon="2.22329">
        <ele>1024.2</ele>
        <time>2017-07-22T11:59:58Z</time>
      </trkpt>
      <trkpt lat="42.51687" lon="2.22319">
        <ele>1024.6</ele>
        <time>2017-07-22T11:59:59Z</time>
      </trkpt>
      <trkpt lat="42.51681" lon="2.22311">
        <ele>1024.9</ele>
        <time>2017-07-22T12:00:00Z</time>
      </trkpt>
      <trkpt lat="42.5167" lon="2.22298">
        <ele>1024.9</ele>
        <time>2017-07-22T12:00:01Z</time>
      </trkpt>
      <trkpt lat="42.51665" lon="2.2229">
        <ele>1025.2</ele>
        <time>2017-07-22T12:00:02Z</time>
      </trkpt>
      <trkpt lat="42.51657" lon="2.2228">
        <ele>1025.1</ele>
        <time>2017-07-22T12:00:03Z</time>
      </trkpt>
      <trkpt lat="42.51646" lon="2.22266">
        <ele>1025.9</ele>
        <time>2017-07-22T12:00:05Z</time>
      </trkpt>
      <trkpt lat="42.51638" lon="2.22255">
        <ele>1025.9</ele>
        <time>2017-07-22T12:00:06Z</time>
      </trkpt>
      <trkpt lat="42.51632" lon="2.22248">
        <ele>1026.1</ele>
        <time>2017-07-22T12:00:07Z</time>
      </trkpt>
      <trkpt lat="42.51623" lon="2.22236">
        <ele>1026.3</ele>
        <time>2017-07-22T12:00:09Z</time>
      </trkpt>
      <trkpt lat="42.51615" lon="2.22225">
        <ele>1026.5</ele>
        <time>2017-07-22T12:00:11Z</time>
      </trkpt>
      <trkpt lat="42.51609" lon="2.22218">
        <ele>1026.2</ele>
        <time>2017-07-22T12:00:14Z</time>
      </trkpt>
      <trkpt lat="42.51603" lon="2.22211">
        <ele>1024</ele>
        <time>2017-07-22T12:00:19Z</time>
      </trkpt>
      <trkpt lat="42.51596" lon="2.22206">
        <ele>1022.2</ele>
        <time>2017-07-22T12:00:26Z</time>
      </trkpt>
      <trkpt lat="42.51591" lon="2.22211">
        <ele>1020.1</ele>
        <time>2017-07-22T12:00:33Z</time>
      </trkpt>
      <trkpt lat="42.51587" lon="2.22214">
        <ele>1019.5</ele>
        <time>2017-07-22T12:00:40Z</time>
      </trkpt>
      <trkpt lat="42.51586" lon="2.22218">
        <ele>1019.3</ele>
        <time>2017-07-22T12:00:47Z</time>
      </trkpt>
      <trkpt lat="42.51581" lon="2.2222">
        <ele>1018.2</ele>
        <time>2017-07-22T12:00:54Z</time>
      </trkpt>
      <trkpt lat="42.51574" lon="2.22219">
        <ele>1016.3</ele>
        <time>2017-07-22T12:01:01Z</time>
      </trkpt>
      <trkpt lat="42.51567" lon="2.22214">
        <ele>1014.6</ele>
        <time>2017-07-22T12:01:07Z</time>
      </trkpt>
      <trkpt lat="42.51563" lon="2.22213">
        <ele>1013.4</ele>
        <time>2017-07-22T12:01:14Z</time>
      </trkpt>
      <trkpt lat="42.51561" lon="2.22217">
        <ele>1011.1</ele>
        <time>2017-07-22T12:01:21Z</time>
      </trkpt>
      <trkpt lat="42.51554" lon="2.2221">
        <ele>1010.2</ele>
        <time>2017-07-22T12:01:25Z</time>
      </trkpt>
      <trkpt lat="42.51547" lon="2.22212">
        <ele>1006.8</ele>
        <time>2017-07-22T12:01:31Z</time>
      </trkpt>
      <trkpt lat="42.51543" lon="2.22217">
        <ele>1003.4</ele>
        <time>2017-07-22T12:01:38Z</time>
      </trkpt>
      <trkpt lat="42.51539" lon="2.22217">
        <ele>1000.4</ele>
        <time>2017-07-22T12:01:45Z</time>
      </trkpt>
      <trkpt lat="42.51534" lon="2.22219">
        <ele>998</ele>
        <time>2017-07-22T12:01:52Z</time>
      </trkpt>
      <trkpt lat="42.51524" lon="2.22213">
        <ele>996.8</ele>
        <time>2017-07-22T12:01:59Z</time>
      </trkpt>
      <trkpt lat="42.51519" lon="2.22209">
        <ele>995.4</ele>
        <time>2017-07-22T12:02:06Z</time>
      </trkpt>
      <trkpt lat="42.51514" lon="2.22205">
        <ele>993.9</ele>
        <time>2017-07-22T12:02:13Z</time>
      </trkpt>
      <trkpt lat="42.51509" lon="2.22207">
        <ele>991.6</ele>
        <time>2017-07-22T12:02:20Z</time>
      </trkpt>
      <trkpt lat="42.51504" lon="2.22208">
        <ele>990.8</ele>
        <time>2017-07-22T12:02:27Z</time>
      </trkpt>
      <trkpt lat="42.515" lon="2.22209">
        <ele>989.9</ele>
        <time>2017-07-22T12:02:34Z</time>
      </trkpt>
      <trkpt lat="42.51492" lon="2.22209">
        <ele>989.4</ele>
        <time>2017-07-22T12:02:40Z</time>
      </trkpt>
      <trkpt lat="42.51485" lon="2.22206">
        <ele>989.1</ele>
        <time>2017-07-22T12:02:45Z</time>
      </trkpt>
      <trkpt lat="42.51477" lon="2.22205">
        <ele>989</ele>
        <time>2017-07-22T12:02:51Z</time>
      </trkpt>
      <trkpt lat="42.5147" lon="2.22205">
        <ele>988.4</ele>
        <time>2017-07-22T12:02:57Z</time>
      </trkpt>
      <trkpt lat="42.51462" lon="2.22202">
        <ele>989</ele>
        <time>2017-07-22T12:03:02Z</time>
      </trkpt>
      <trkpt lat="42.51455" lon="2.22198">
        <ele>989.2</ele>
        <time>2017-07-22T12:03:09Z</time>
      </trkpt>
      <trkpt lat="42.51448" lon="2.22197">
        <ele>989.8</ele>
        <time>2017-07-22T12:03:15Z</time>
      </trkpt>
      <trkpt lat="42.51441" lon="2.22197">
        <ele>990.3</ele>
        <time>2017-07-22T12:03:22Z</time>
      </trkpt>
      <trkpt lat="42.51437" lon="2.22197">
        <ele>990.3</ele>
        <time>2017-07-22T12:03:29Z</time>
      </trkpt>
      <trkpt lat="42.51431" lon="2.22197">
        <ele>990.7</ele>
        <time>2017-07-22T12:03:36Z</time>
      </trkpt>
      <trkpt lat="42.51426" lon="2.22198">
        <ele>989.7</ele>
        <time>2017-07-22T12:03:43Z</time>
      </trkpt>
      <trkpt lat="42.51418" lon="2.22201">
        <ele>989.8</ele>
        <time>2017-07-22T12:03:50Z</time>
      </trkpt>
      <trkpt lat="42.51414" lon="2.22201">
        <ele>989.5</ele>
        <time>2017-07-22T12:03:57Z</time>
      </trkpt>
      <trkpt lat="42.51406" lon="2.22203">
        <ele>989.9</ele>
        <time>2017-07-22T12:04:03Z</time>
      </trkpt>
      <trkpt lat="42.51399" lon="2.22209">
        <ele>990.4</ele>
        <time>2017-07-22T12:04:10Z</time>
      </trkpt>
      <trkpt lat="42.51397" lon="2.22217">
        <ele>990.5</ele>
        <time>2017-07-22T12:04:17Z</time>
      </trkpt>
      <trkpt lat="42.51394" lon="2.22224">
        <ele>990.9</ele>
        <time>2017-07-22T12:04:24Z</time>
      </trkpt>
      <trkpt lat="42.51388" lon="2.22231">
        <ele>990.7</ele>
        <time>2017-07-22T12:04:31Z</time>
      </trkpt>
      <trkpt lat="42.51387" lon="2.22238">
        <ele>990.6</ele>
        <time>2017-07-22T12:04:38Z</time>
      </trkpt>
      <trkpt lat="42.51383" lon="2.22246">
        <ele>990.2</ele>
        <time>2017-07-22T12:04:45Z</time>
      </trkpt>
      <trkpt lat="42.51379" lon="2.22255">
        <ele>990.7</ele>
        <time>2017-07-22T12:04:52Z</time>
      </trkpt>
      <trkpt lat="42.51378" lon="2.22265">
        <ele>991.9</ele>
        <time>2017-07-22T12:04:58Z</time>
      </trkpt>
      <trkpt lat="42.51378" lon="2.22275">
        <ele>993</ele>
        <time>2017-07-22T12:05:03Z</time>
      </trkpt>
      <trkpt lat="42.51375" lon="2.22285">
        <ele>993.3</ele>
        <time>2017-07-22T12:05:10Z</time>
      </trkpt>
      <trkpt lat="42.51373" lon="2.22292">
        <ele>993</ele>
        <time>2017-07-22T12:05:17Z</time>
      </trkpt>
      <trkpt lat="42.51377" lon="2.22301">
        <ele>991.8</ele>
        <time>2017-07-22T12:05:21Z</time>
      </trkpt>
      <trkpt lat="42.5137" lon="2.2231">
        <ele>991.6</ele>
        <time>2017-07-22T12:05:28Z</time>
      </trkpt>
      <trkpt lat="42.51371" lon="2.22321">
        <ele>991.7</ele>
        <time>2017-07-22T12:05:33Z</time>
      </trkpt>
      <trkpt lat="42.51372" lon="2.2233">
        <ele>991.6</ele>
        <time>2017-07-22T12:05:39Z</time>
      </trkpt>
      <trkpt lat="42.51373" lon="2.22338">
        <ele>991.7</ele>
        <time>2017-07-22T12:05:46Z</time>
      </trkpt>
      <trkpt lat="42.51373" lon="2.22348">
        <ele>991.2</ele>
        <time>2017-07-22T12:05:53Z</time>
      </trkpt>
      <trkpt lat="42.51372" lon="2.22357">
        <ele>991.3</ele>
        <time>2017-07-22T12:05:59Z</time>
      </trkpt>
      <trkpt lat="42.51372" lon="2.22368">
        <ele>991.5</ele>
        <time>2017-07-22T12:06:05Z</time>
      </trkpt>
      <trkpt lat="42.51364" lon="2.22371">
        <ele>991.5</ele>
        <time>2017-07-22T12:06:12Z</time>
      </trkpt>
      <trkpt lat="42.5136" lon="2.22375">
        <ele>991.9</ele>
        <time>2017-07-22T12:06:19Z</time>
      </trkpt>
      <trkpt lat="42.51366" lon="2.22383">
        <ele>992.2</ele>
        <time>2017-07-22T12:06:25Z</time>
      </trkpt>
      <trkpt lat="42.51364" lon="2.22378">
        <ele>992.3</ele>
        <time>2017-07-22T12:06:32Z</time>
      </trkpt>
      <trkpt lat="42.51359" lon="2.22366">
        <ele>992.2</ele>
        <time>2017-07-22T12:06:38Z</time>
      </trkpt>
      <trkpt lat="42.51353" lon="2.22357">
        <ele>992.1</ele>
        <time>2017-07-22T12:06:40Z</time>
      </trkpt>
      <trkpt lat="42.51348" lon="2.22348">
        <ele>991.9</ele>
        <time>2017-07-22T12:06:42Z</time>
      </trkpt>
      <trkpt lat="42.51342" lon="2.22338">
        <ele>991.6</ele>
        <time>2017-07-22T12:06:44Z</time>
      </trkpt>
      <trkpt lat="42.51336" lon="2.22329">
        <ele>991.4</ele>
        <time>2017-07-22T12:06:46Z</time>
      </trkpt>
      <trkpt lat="42.51332" lon="2.22319">
        <ele>991.1</ele>
        <time>2017-07-22T12:06:49Z</time>
      </trkpt>
      <trkpt lat="42.51364" lon="2.22427">
        <ele>989.8</ele>
        <time>2017-07-22T12:06:56Z</time>
      </trkpt>
      <trkpt lat="42.51391" lon="2.22508">
        <ele>989.4</ele>
        <time>2017-07-22T12:06:58Z</time>
      </trkpt>
      <trkpt lat="42.51407" lon="2.22554">
        <ele>989.1</ele>
        <time>2017-07-22T12:06:59Z</time>
      </trkpt>
      <trkpt lat="42.51418" lon="2.22586">
        <ele>989</ele>
        <time>2017-07-22T12:07:03Z</time>
      </trkpt>
      <trkpt lat="42.514" lon="2.22551">
        <ele>988.8</ele>
        <time>2017-07-22T12:07:05Z</time>
      </trkpt>
      <trkpt lat="42.51394" lon="2.22543">
        <ele>988.5</ele>
        <time>2017-07-22T12:07:08Z</time>
      </trkpt>
      <trkpt lat="42.51391" lon="2.22533">
        <ele>988.5</ele>
        <time>2017-07-22T12:07:09Z</time>
      </trkpt>
      <trkpt lat="42.51388" lon="2.22527">
        <ele>988.5</ele>
        <time>2017-07-22T12:07:16Z</time>
      </trkpt>
      <trkpt lat="42.51388" lon="2.22527">
        <ele>988.5</ele>
        <time>2017-07-22T12:07:17Z</time>
      </trkpt>
      <trkpt lat="42.51392" lon="2.22538">
        <ele>988.8</ele>
        <time>2017-07-22T12:07:21Z</time>
      </trkpt>
      <trkpt lat="42.51395" lon="2.22546">
        <ele>989.2</ele>
        <time>2017-07-22T12:07:28Z</time>
      </trkpt>
      <trkpt lat="42.51401" lon="2.22556">
        <ele>989.5</ele>
        <time>2017-07-22T12:07:31Z</time>
      </trkpt>
      <trkpt lat="42.51407" lon="2.22565">
        <ele>989.7</ele>
        <time>2017-07-22T12:07:36Z</time>
      </trkpt>
      <trkpt lat="42.51411" lon="2.2258">
        <ele>989.9</ele>
        <time>2017-07-22T12:07:40Z</time>
      </trkpt>
      <trkpt lat="42.51411" lon="2.22591">
        <ele>990</ele>
        <time>2017-07-22T12:07:42Z</time>
      </trkpt>
      <trkpt lat="42.5142" lon="2.22606">
        <ele>990.1</ele>
        <time>2017-07-22T12:07:44Z</time>
      </trkpt>
      <trkpt lat="42.51428" lon="2.22608">
        <ele>990.2</ele>
        <time>2017-07-22T12:07:46Z</time>
      </trkpt>
      <trkpt lat="42.51425" lon="2.22605">
        <ele>990.5</ele>
        <time>2017-07-22T12:07:53Z</time>
      </trkpt>
      <trkpt lat="42.51426" lon="2.22618">
        <ele>990.9</ele>
        <time>2017-07-22T12:07:58Z</time>
      </trkpt>
      <trkpt lat="42.51423" lon="2.22627">
        <ele>991.3</ele>
        <time>2017-07-22T12:08:02Z</time>
      </trkpt>
      <trkpt lat="42.51411" lon="2.22626">
        <ele>991.6</ele>
        <time>2017-07-22T12:08:08Z</time>
      </trkpt>
      <trkpt lat="42.51405" lon="2.22618">
        <ele>991.8</ele>
        <time>2017-07-22T12:08:10Z</time>
      </trkpt>
      <trkpt lat="42.514" lon="2.22611">
        <ele>991.9</ele>
        <time>2017-07-22T12:08:12Z</time>
      </trkpt>
      <trkpt lat="42.51391" lon="2.22604">
        <ele>992.3</ele>
        <time>2017-07-22T12:08:16Z</time>
      </trkpt>
      <trkpt lat="42.51383" lon="2.22598">
        <ele>992.8</ele>
        <time>2017-07-22T12:08:20Z</time>
      </trkpt>
      <trkpt lat="42.51374" lon="2.22599">
        <ele>994.1</ele>
        <time>2017-07-22T12:08:27Z</time>
      </trkpt>
      <trkpt lat="42.5137" lon="2.22606">
        <ele>994.9</ele>
        <time>2017-07-22T12:08:34Z</time>
      </trkpt>
      <trkpt lat="42.51363" lon="2.226">
        <ele>995.8</ele>
        <time>2017-07-22T12:08:40Z</time>
      </trkpt>
      <trkpt lat="42.51366" lon="2.22602">
        <ele>996.9</ele>
        <time>2017-07-22T12:08:47Z</time>
      </trkpt>
      <trkpt lat="42.51361" lon="2.22592">
        <ele>997.2</ele>
        <time>2017-07-22T12:08:48Z</time>
      </trkpt>
      <trkpt lat="42.51349" lon="2.22563">
        <ele>998.7</ele>
        <time>2017-07-22T12:08:50Z</time>
      </trkpt>
      <trkpt lat="42.51347" lon="2.2255">
        <ele>999.8</ele>
        <time>2017-07-22T12:08:55Z</time>
      </trkpt>
      <trkpt lat="42.5133" lon="2.22511">
        <ele>1001.5</ele>
        <time>2017-07-22T12:08:57Z</time>
      </trkpt>
      <trkpt lat="42.51307" lon="2.22473">
        <ele>1004.5</ele>
        <time>2017-07-22T12:08:59Z</time>
      </trkpt>
      <trkpt lat="42.51301" lon="2.22457">
        <ele>1005.7</ele>
        <time>2017-07-22T12:09:00Z</time>
      </trkpt>
      <trkpt lat="42.51296" lon="2.2245">
        <ele>1007.4</ele>
        <time>2017-07-22T12:09:02Z</time>
      </trkpt>
      <trkpt lat="42.51283" lon="2.22461">
        <ele>1010.8</ele>
        <time>2017-07-22T12:09:05Z</time>
      </trkpt>
      <trkpt lat="42.51274" lon="2.22469">
        <ele>1011.9</ele>
        <time>2017-07-22T12:09:07Z</time>
      </trkpt>
      <trkpt lat="42.51268" lon="2.22473">
        <ele>1012.3</ele>
        <time>2017-07-22T12:09:09Z</time>
      </trkpt>
      <trkpt lat="42.51262" lon="2.22481">
        <ele>1012.5</ele>
        <time>2017-07-22T12:09:11Z</time>
      </trkpt>
      <trkpt lat="42.51259" lon="2.22491">
        <ele>1012.7</ele>
        <time>2017-07-22T12:09:12Z</time>
      </trkpt>
      <trkpt lat="42.51253" lon="2.225">
        <ele>1013</ele>
        <time>2017-07-22T12:09:13Z</time>
      </trkpt>
      <trkpt lat="42.51248" lon="2.22507">
        <ele>1013.1</ele>
        <time>2017-07-22T12:09:14Z</time>
      </trkpt>
      <trkpt lat="42.51239" lon="2.22514">
        <ele>1013.1</ele>
        <time>2017-07-22T12:09:16Z</time>
      </trkpt>
      <trkpt lat="42.5129" lon="2.22542">
        <ele>1012.8</ele>
        <time>2017-07-22T12:09:24Z</time>
      </trkpt>
      <trkpt lat="42.51319" lon="2.22559">
        <ele>1012.8</ele>
        <time>2017-07-22T12:09:26Z</time>
      </trkpt>
      <trkpt lat="42.51318" lon="2.22572">
        <ele>1012.5</ele>
        <time>2017-07-22T12:09:32Z</time>
      </trkpt>
      <trkpt lat="42.51321" lon="2.22583">
        <ele>1012.5</ele>
        <time>2017-07-22T12:09:33Z</time>
      </trkpt>
      <trkpt lat="42.51325" lon="2.22596">
        <ele>1012.5</ele>
        <time>2017-07-22T12:09:34Z</time>
      </trkpt>
      <trkpt lat="42.51324" lon="2.22606">
        <ele>1011.5</ele>
        <time>2017-07-22T12:09:39Z</time>
      </trkpt>
      <trkpt lat="42.51329" lon="2.22623">
        <ele>1010.8</ele>
        <time>2017-07-22T12:09:41Z</time>
      </trkpt>
      <trkpt lat="42.51333" lon="2.22634">
        <ele>1010</ele>
        <time>2017-07-22T12:09:43Z</time>
      </trkpt>
      <trkpt lat="42.5134" lon="2.22645">
        <ele>1008.5</ele>
        <time>2017-07-22T12:09:46Z</time>
      </trkpt>
      <trkpt lat="42.51337" lon="2.22637">
        <ele>1006.7</ele>
        <time>2017-07-22T12:09:53Z</time>
      </trkpt>
      <trkpt lat="42.51337" lon="2.22637">
        <ele>1006.7</ele>
        <time>2017-07-22T12:09:58Z</time>
      </trkpt>
      <trkpt lat="42.51331" lon="2.22642">
        <ele>1004.5</ele>
        <time>2017-07-22T12:10:04Z</time>
      </trkpt>
      <trkpt lat="42.51294" lon="2.22567">
        <ele>1011</ele>
        <time>2017-07-22T12:10:09Z</time>
      </trkpt>
      <trkpt lat="42.51285" lon="2.22542">
        <ele>1012.7</ele>
        <time>2017-07-22T12:10:10Z</time>
      </trkpt>
      <trkpt lat="42.51268" lon="2.2249">
        <ele>1014.6</ele>
        <time>2017-07-22T12:10:12Z</time>
      </trkpt>
      <trkpt lat="42.51262" lon="2.22468">
        <ele>1014.1</ele>
        <time>2017-07-22T12:10:14Z</time>
      </trkpt>
      <trkpt lat="42.51263" lon="2.22456">
        <ele>1012.1</ele>
        <time>2017-07-22T12:10:15Z</time>
      </trkpt>
      <trkpt lat="42.51263" lon="2.22442">
        <ele>1010.2</ele>
        <time>2017-07-22T12:10:21Z</time>
      </trkpt>
      <trkpt lat="42.51258" lon="2.22444">
        <ele>1009.2</ele>
        <time>2017-07-22T12:10:28Z</time>
      </trkpt>
      <trkpt lat="42.51253" lon="2.22446">
        <ele>1008.8</ele>
        <time>2017-07-22T12:10:35Z</time>
      </trkpt>
      <trkpt lat="42.51258" lon="2.22461">
        <ele>1007</ele>
        <time>2017-07-22T12:10:37Z</time>
      </trkpt>
      <trkpt lat="42.51281" lon="2.22537">
        <ele>1005.9</ele>
        <time>2017-07-22T12:10:42Z</time>
      </trkpt>
      <trkpt lat="42.51269" lon="2.22514">
        <ele>1006.5</ele>
        <time>2017-07-22T12:10:44Z</time>
      </trkpt>
      <trkpt lat="42.51259" lon="2.22495">
        <ele>1008.1</ele>
        <time>2017-07-22T12:10:46Z</time>
      </trkpt>
      <trkpt lat="42.51256" lon="2.22485">
        <ele>1009</ele>
        <time>2017-07-22T12:10:47Z</time>
      </trkpt>
      <trkpt lat="42.51251" lon="2.22475">
        <ele>1009.9</ele>
        <time>2017-07-22T12:10:48Z</time>
      </trkpt>
      <trkpt lat="42.51248" lon="2.22473">
        <ele>1015.5</ele>
        <time>2017-07-22T12:10:55Z</time>
      </trkpt>
      <trkpt lat="42.51256" lon="2.22457">
        <ele>1013.9</ele>
        <time>2017-07-22T12:11:00Z</time>
      </trkpt>
      <trkpt lat="42.51266" lon="2.22446">
        <ele>1015.4</ele>
        <time>2017-07-22T12:11:03Z</time>
      </trkpt>
      <trkpt lat="42.51269" lon="2.22437">
        <ele>1015.8</ele>
        <time>2017-07-22T12:11:06Z</time>
      </trkpt>
      <trkpt lat="42.51266" lon="2.22427">
        <ele>1016.6</ele>
        <time>2017-07-22T12:11:09Z</time>
      </trkpt>
      <trkpt lat="42.51262" lon="2.22414">
        <ele>1016.7</ele>
        <time>2017-07-22T12:11:14Z</time>
      </trkpt>
      <trkpt lat="42.51257" lon="2.22405">
        <ele>1016.1</ele>
        <time>2017-07-22T12:11:16Z</time>
      </trkpt>
      <trkpt lat="42.5125" lon="2.22397">
        <ele>1015.4</ele>
        <time>2017-07-22T12:11:18Z</time>
      </trkpt>
      <trkpt lat="42.51235" lon="2.22384">
        <ele>1014.2</ele>
        <time>2017-07-22T12:11:26Z</time>
      </trkpt>
      <trkpt lat="42.51232" lon="2.22382">
        <ele>1014</ele>
        <time>2017-07-22T12:11:33Z</time>
      </trkpt>
      <trkpt lat="42.51232" lon="2.22382">
        <ele>1014</ele>
        <time>2017-07-22T12:11:35Z</time>
      </trkpt>
      <trkpt lat="42.51228" lon="2.2239">
        <ele>1013</ele>
        <time>2017-07-22T12:11:38Z</time>
      </trkpt>
      <trkpt lat="42.51226" lon="2.22392">
        <ele>1012.8</ele>
        <time>2017-07-22T12:11:45Z</time>
      </trkpt>
      <trkpt lat="42.51219" lon="2.22397">
        <ele>1013</ele>
        <time>2017-07-22T12:11:46Z</time>
      </trkpt>
      <trkpt lat="42.51212" lon="2.22392">
        <ele>1012.3</ele>
        <time>2017-07-22T12:11:52Z</time>
      </trkpt>
      <trkpt lat="42.51207" lon="2.22402">
        <ele>1011.1</ele>
        <time>2017-07-22T12:11:56Z</time>
      </trkpt>
      <trkpt lat="42.5127" lon="2.22703">
        <ele>1018.8</ele>
        <time>2017-07-22T12:12:29Z</time>
      </trkpt>
      <trkpt lat="42.51276" lon="2.22693">
        <ele>1019.3</ele>
        <time>2017-07-22T12:12:31Z</time>
      </trkpt>
      <trkpt lat="42.5127" lon="2.22681">
        <ele>1020.3</ele>
        <time>2017-07-22T12:12:32Z</time>
      </trkpt>
      <trkpt lat="42.51245" lon="2.22643">
        <ele>1024</ele>
        <time>2017-07-22T12:12:34Z</time>
      </trkpt>
      <trkpt lat="42.51184" lon="2.22572">
        <ele>1031.8</ele>
        <time>2017-07-22T12:12:37Z</time>
      </trkpt>
      <trkpt lat="42.5116" lon="2.22549">
        <ele>1034.4</ele>
        <time>2017-07-22T12:12:40Z</time>
      </trkpt>
      <trkpt lat="42.5117" lon="2.22548">
        <ele>1034.5</ele>
        <time>2017-07-22T12:12:43Z</time>
      </trkpt>
      <trkpt lat="42.51191" lon="2.22546">
        <ele>1034.8</ele>
        <time>2017-07-22T12:12:47Z</time>
      </trkpt>
      <trkpt lat="42.512" lon="2.22535">
        <ele>1034.2</ele>
        <time>2017-07-22T12:12:51Z</time>
      </trkpt>
      <trkpt lat="42.51209" lon="2.22531">
        <ele>1034.5</ele>
        <time>2017-07-22T12:12:53Z</time>
      </trkpt>
      <trkpt lat="42.51213" lon="2.22519">
        <ele>1035</ele>
        <time>2017-07-22T12:12:56Z</time>
      </trkpt>
      <trkpt lat="42.51209" lon="2.22505">
        <ele>1035.9</ele>
        <time>2017-07-22T12:12:58Z</time>
      </trkpt>
      <trkpt lat="42.51202" lon="2.22494">
        <ele>1036.5</ele>
        <time>2017-07-22T12:12:59Z</time>
      </trkpt>
      <trkpt lat="42.51195" lon="2.22484">
        <ele>1036.9</ele>
        <time>2017-07-22T12:13:01Z</time>
      </trkpt>
      <trkpt lat="42.51186" lon="2.22478">
        <ele>1036.5</ele>
        <time>2017-07-22T12:13:04Z</time>
      </trkpt>
      <trkpt lat="42.51179" lon="2.22475">
        <ele>1036</ele>
        <time>2017-07-22T12:13:06Z</time>
      </trkpt>
      <trkpt lat="42.51173" lon="2.22468">
        <ele>1034.5</ele>
        <time>2017-07-22T12:13:10Z</time>
      </trkpt>
      <trkpt lat="42.51168" lon="2.22461">
        <ele>1033.1</ele>
        <time>2017-07-22T12:13:14Z</time>
      </trkpt>
      <trkpt lat="42.51167" lon="2.2245">
        <ele>1031.9</ele>
        <time>2017-07-22T12:13:20Z</time>
      </trkpt>
      <trkpt lat="42.51207" lon="2.2257">
        <ele>1034.6</ele>
        <time>2017-07-22T12:13:29Z</time>
      </trkpt>
      <trkpt lat="42.51245" lon="2.22684">
        <ele>1037.4</ele>
        <time>2017-07-22T12:13:37Z</time>
      </trkpt>
      <trkpt lat="42.5124" lon="2.22676">
        <ele>1037.6</ele>
        <time>2017-07-22T12:13:40Z</time>
      </trkpt>
      <trkpt lat="42.51235" lon="2.22668">
        <ele>1038.2</ele>
        <time>2017-07-22T12:13:42Z</time>
      </trkpt>
      <trkpt lat="42.51235" lon="2.22678">
        <ele>1039</ele>
        <time>2017-07-22T12:13:44Z</time>
      </trkpt>
      <trkpt lat="42.51226" lon="2.22663">
        <ele>1044.4</ele>
        <time>2017-07-22T12:13:46Z</time>
      </trkpt>
      <trkpt lat="42.5119" lon="2.22579">
        <ele>1052.5</ele>
        <time>2017-07-22T12:13:49Z</time>
      </trkpt>
      <trkpt lat="42.51183" lon="2.22568">
        <ele>1051.8</ele>
        <time>2017-07-22T12:13:52Z</time>
      </trkpt>
      <trkpt lat="42.51197" lon="2.22606">
        <ele>1054.1</ele>
        <time>2017-07-22T12:13:54Z</time>
      </trkpt>
      <trkpt lat="42.51195" lon="2.22625">
        <ele>1057.7</ele>
        <time>2017-07-22T12:13:59Z</time>
      </trkpt>
      <trkpt lat="42.51159" lon="2.2254">
        <ele>1066.9</ele>
        <time>2017-07-22T12:14:03Z</time>
      </trkpt>
      <trkpt lat="42.51148" lon="2.22511">
        <ele>1069.5</ele>
        <time>2017-07-22T12:14:05Z</time>
      </trkpt>
      <trkpt lat="42.51148" lon="2.22512">
        <ele>1074</ele>
        <time>2017-07-22T12:14:13Z</time>
      </trkpt>
      <trkpt lat="42.51144" lon="2.22491">
        <ele>1076.6</ele>
        <time>2017-07-22T12:14:16Z</time>
      </trkpt>
      <trkpt lat="42.51144" lon="2.22504">
        <ele>1083.1</ele>
        <time>2017-07-22T12:14:21Z</time>
      </trkpt>
      <trkpt lat="42.51147" lon="2.22514">
        <ele>1088.1</ele>
        <time>2017-07-22T12:14:23Z</time>
      </trkpt>
      <trkpt lat="42.5115" lon="2.2253">
        <ele>1092.4</ele>
        <time>2017-07-22T12:14:25Z</time>
      </trkpt>
      <trkpt lat="42.5115" lon="2.22545">
        <ele>1097.1</ele>
        <time>2017-07-22T12:14:28Z</time>
      </trkpt>
      <trkpt lat="42.5115" lon="2.22559">
        <ele>1100.2</ele>
        <time>2017-07-22T12:14:30Z</time>
      </trkpt>
      <trkpt lat="42.51153" lon="2.22576">
        <ele>1102.5</ele>
        <time>2017-07-22T12:14:32Z</time>
      </trkpt>
      <trkpt lat="42.51156" lon="2.22586">
        <ele>1103.6</ele>
        <time>2017-07-22T12:14:33Z</time>
      </trkpt>
      <trkpt lat="42.51158" lon="2.22604">
        <ele>1105.2</ele>
        <time>2017-07-22T12:14:35Z</time>
      </trkpt>
      <trkpt lat="42.51149" lon="2.226">
        <ele>1111.1</ele>
        <time>2017-07-22T12:14:39Z</time>
      </trkpt>
      <trkpt lat="42.51149" lon="2.22614">
        <ele>1114.6</ele>
        <time>2017-07-22T12:14:42Z</time>
      </trkpt>
      <trkpt lat="42.51136" lon="2.22599">
        <ele>1120.9</ele>
        <time>2017-07-22T12:14:46Z</time>
      </trkpt>
      <trkpt lat="42.5113" lon="2.22592">
        <ele>1121.8</ele>
        <time>2017-07-22T12:14:48Z</time>
      </trkpt>
      <trkpt lat="42.51122" lon="2.22593">
        <ele>1128.6</ele>
        <time>2017-07-22T12:14:52Z</time>
      </trkpt>
      <trkpt lat="42.51114" lon="2.22579">
        <ele>1130.8</ele>
        <time>2017-07-22T12:14:53Z</time>
      </trkpt>
      <trkpt lat="42.51107" lon="2.22563">
        <ele>1133.8</ele>
        <time>2017-07-22T12:14:55Z</time>
      </trkpt>
      <trkpt lat="42.51098" lon="2.22548">
        <ele>1136</ele>
        <time>2017-07-22T12:14:57Z</time>
      </trkpt>
      <trkpt lat="42.5109" lon="2.22546">
        <ele>1139.7</ele>
        <time>2017-07-22T12:15:04Z</time>
      </trkpt>
      <trkpt lat="42.51082" lon="2.22537">
        <ele>1141.2</ele>
        <time>2017-07-22T12:15:07Z</time>
      </trkpt>
      <trkpt lat="42.51077" lon="2.22528">
        <ele>1142.1</ele>
        <time>2017-07-22T12:15:08Z</time>
      </trkpt>
      <trkpt lat="42.51072" lon="2.22519">
        <ele>1146.6</ele>
        <time>2017-07-22T12:15:12Z</time>
      </trkpt>
      <trkpt lat="42.51062" lon="2.22519">
        <ele>1152.1</ele>
        <time>2017-07-22T12:15:16Z</time>
      </trkpt>
      <trkpt lat="42.51067" lon="2.22527">
        <ele>1157.5</ele>
        <time>2017-07-22T12:15:19Z</time>
      </trkpt>
      <trkpt lat="42.51057" lon="2.22516">
        <ele>1160.2</ele>
        <time>2017-07-22T12:15:22Z</time>
      </trkpt>
      <trkpt lat="42.5106" lon="2.22506">
        <ele>1162.9</ele>
        <time>2017-07-22T12:15:28Z</time>
      </trkpt>
      <trkpt lat="42.51059" lon="2.22495">
        <ele>1163.6</ele>
        <time>2017-07-22T12:15:31Z</time>
      </trkpt>
      <trkpt lat="42.51054" lon="2.22479">
        <ele>1164.2</ele>
        <time>2017-07-22T12:15:34Z</time>
      </trkpt>
      <trkpt lat="42.51049" lon="2.22468">
        <ele>1164.6</ele>
        <time>2017-07-22T12:15:36Z</time>
      </trkpt>
      <trkpt lat="42.51046" lon="2.22478">
        <ele>1173</ele>
        <time>2017-07-22T12:15:40Z</time>
      </trkpt>
      <trkpt lat="42.51037" lon="2.22473">
        <ele>1175.2</ele>
        <time>2017-07-22T12:15:44Z</time>
      </trkpt>
      <trkpt lat="42.51034" lon="2.22476">
        <ele>1181.1</ele>
        <time>2017-07-22T12:15:51Z</time>
      </trkpt>
      <trkpt lat="42.51076" lon="2.22535">
        <ele>1194</ele>
        <time>2017-07-22T12:15:54Z</time>
      </trkpt>
      <trkpt lat="42.51083" lon="2.22548">
        <ele>1201.3</ele>
        <time>2017-07-22T12:15:58Z</time>
      </trkpt>
      <trkpt lat="42.51088" lon="2.22557">
        <ele>1203.7</ele>
        <time>2017-07-22T12:15:59Z</time>
      </trkpt>
      <trkpt lat="42.5109" lon="2.22567">
        <ele>1207.9</ele>
        <time>2017-07-22T12:16:01Z</time>
      </trkpt>
      <trkpt lat="42.51067" lon="2.22552">
        <ele>1211.5</ele>
        <time>2017-07-22T12:16:03Z</time>
      </trkpt>
      <trkpt lat="42.5106" lon="2.22548">
        <ele>1212</ele>
        <time>2017-07-22T12:16:05Z</time>
      </trkpt>
      <trkpt lat="42.51052" lon="2.22553">
        <ele>1215.7</ele>
        <time>2017-07-22T12:16:09Z</time>
      </trkpt>
      <trkpt lat="42.51039" lon="2.22542">
        <ele>1217.8</ele>
        <time>2017-07-22T12:16:11Z</time>
      </trkpt>
      <trkpt lat="42.51034" lon="2.22536">
        <ele>1218.6</ele>
        <time>2017-07-22T12:16:13Z</time>
      </trkpt>
      <trkpt lat="42.51026" lon="2.22535">
        <ele>1223.5</ele>
        <time>2017-07-22T12:16:19Z</time>
      </trkpt>
      <trkpt lat="42.51017" lon="2.22538">
        <ele>1225.3</ele>
        <time>2017-07-22T12:16:24Z</time>
      </trkpt>
      <trkpt lat="42.51015" lon="2.22554">
        <ele>1228.1</ele>
        <time>2017-07-22T12:16:27Z</time>
      </trkpt>
      <trkpt lat="42.51001" lon="2.22537">
        <ele>1230.6</ele>
        <time>2017-07-22T12:16:32Z</time>
      </trkpt>
      <trkpt lat="42.50999" lon="2.22527">
        <ele>1230.8</ele>
        <time>2017-07-22T12:16:34Z</time>
      </trkpt>
      <trkpt lat="42.50998" lon="2.22518">
        <ele>1229.8</ele>
        <time>2017-07-22T12:16:38Z</time>
      </trkpt>
      <trkpt lat="42.50994" lon="2.22507">
        <ele>1229.7</ele>
        <time>2017-07-22T12:16:45Z</time>
      </trkpt>
      <trkpt lat="42.50994" lon="2.225">
        <ele>1224.9</ele>
        <time>2017-07-22T12:16:53Z</time>
      </trkpt>
      <trkpt lat="42.50989" lon="2.2249">
        <ele>1223</ele>
        <time>2017-07-22T12:16:55Z</time>
      </trkpt>
      <trkpt lat="42.50981" lon="2.22477">
        <ele>1221.5</ele>
        <time>2017-07-22T12:16:58Z</time>
      </trkpt>
      <trkpt lat="42.50977" lon="2.22466">
        <ele>1219.3</ele>
        <time>2017-07-22T12:17:01Z</time>
      </trkpt>
      <trkpt lat="42.50972" lon="2.22458">
        <ele>1217.6</ele>
        <time>2017-07-22T12:17:04Z</time>
      </trkpt>
      <trkpt lat="42.50979" lon="2.22471">
        <ele>1215.7</ele>
        <time>2017-07-22T12:17:06Z</time>
      </trkpt>
      <trkpt lat="42.50984" lon="2.22483">
        <ele>1214.5</ele>
        <time>2017-07-22T12:17:08Z</time>
      </trkpt>
      <trkpt lat="42.50984" lon="2.22488">
        <ele>1214.8</ele>
        <time>2017-07-22T12:17:15Z</time>
      </trkpt>
      <trkpt lat="42.50977" lon="2.22479">
        <ele>1213.2</ele>
        <time>2017-07-22T12:17:18Z</time>
      </trkpt>
      <trkpt lat="42.5097" lon="2.22465">
        <ele>1211.1</ele>
        <time>2017-07-22T12:17:21Z</time>
      </trkpt>
      <trkpt lat="42.50975" lon="2.22444">
        <ele>1200.7</ele>
        <time>2017-07-22T12:17:28Z</time>
      </trkpt>
      <trkpt lat="42.50983" lon="2.22435">
        <ele>1195.9</ele>
        <time>2017-07-22T12:17:32Z</time>
      </trkpt>
      <trkpt lat="42.50998" lon="2.22439">
        <ele>1193.9</ele>
        <time>2017-07-22T12:17:34Z</time>
      </trkpt>
      <trkpt lat="42.50998" lon="2.22453">
        <ele>1192.3</ele>
        <time>2017-07-22T12:17:40Z</time>
      </trkpt>
      <trkpt lat="42.50999" lon="2.22454">
        <ele>1179.2</ele>
        <time>2017-07-22T12:17:47Z</time>
      </trkpt>
      <trkpt lat="42.51" lon="2.22462">
        <ele>1170.5</ele>
        <time>2017-07-22T12:17:54Z</time>
      </trkpt>
      <trkpt lat="42.50991" lon="2.22458">
        <ele>1166.3</ele>
        <time>2017-07-22T12:18:00Z</time>
      </trkpt>
      <trkpt lat="42.50983" lon="2.2246">
        <ele>1162.8</ele>
        <time>2017-07-22T12:18:05Z</time>
      </trkpt>
      <trkpt lat="42.5098" lon="2.22469">
        <ele>1160.2</ele>
        <time>2017-07-22T12:18:10Z</time>
      </trkpt>
      <trkpt lat="42.50983" lon="2.22473">
        <ele>1153.9</ele>
        <time>2017-07-22T12:18:17Z</time>
      </trkpt>
      <trkpt lat="42.50976" lon="2.22473">
        <ele>1152.6</ele>
        <time>2017-07-22T12:18:20Z</time>
      </trkpt>
      <trkpt lat="42.50974" lon="2.22483">
        <ele>1146.9</ele>
        <time>2017-07-22T12:18:27Z</time>
      </trkpt>
      <trkpt lat="42.50965" lon="2.22484">
        <ele>1144.2</ele>
        <time>2017-07-22T12:18:32Z</time>
      </trkpt>
      <trkpt lat="42.5096" lon="2.22491">
        <ele>1138</ele>
        <time>2017-07-22T12:18:39Z</time>
      </trkpt>
      <trkpt lat="42.50952" lon="2.22488">
        <ele>1137.2</ele>
        <time>2017-07-22T12:18:45Z</time>
      </trkpt>
      <trkpt lat="42.50945" lon="2.22491">
        <ele>1135.7</ele>
        <time>2017-07-22T12:18:49Z</time>
      </trkpt>
      <trkpt lat="42.50939" lon="2.22495">
        <ele>1132.7</ele>
        <time>2017-07-22T12:18:55Z</time>
      </trkpt>
      <trkpt lat="42.50937" lon="2.22498">
        <ele>1129.2</ele>
        <time>2017-07-22T12:19:02Z</time>
      </trkpt>
      <trkpt lat="42.50937" lon="2.22498">
        <ele>1128.2</ele>
        <time>2017-07-22T12:19:09Z</time>
      </trkpt>
      <trkpt lat="42.50927" lon="2.22488">
        <ele>1127.2</ele>
        <time>2017-07-22T12:19:12Z</time>
      </trkpt>
      <trkpt lat="42.50918" lon="2.2248">
        <ele>1126.5</ele>
        <time>2017-07-22T12:19:16Z</time>
      </trkpt>
      <trkpt lat="42.5091" lon="2.22479">
        <ele>1126.1</ele>
        <time>2017-07-22T12:19:21Z</time>
      </trkpt>
      <trkpt lat="42.50906" lon="2.22483">
        <ele>1125</ele>
        <time>2017-07-22T12:19:28Z</time>
      </trkpt>
      <trkpt lat="42.5091" lon="2.22494">
        <ele>1122.6</ele>
        <time>2017-07-22T12:19:31Z</time>
      </trkpt>
      <trkpt lat="42.50913" lon="2.22496">
        <ele>1122</ele>
        <time>2017-07-22T12:19:38Z</time>
      </trkpt>
      <trkpt lat="42.50913" lon="2.22496">
        <ele>1122</ele>
        <time>2017-07-22T12:19:39Z</time>
      </trkpt>
      <trkpt lat="42.50917" lon="2.22502">
        <ele>1118</ele>
        <time>2017-07-22T12:19:52Z</time>
      </trkpt>
      <trkpt lat="42.50917" lon="2.22502">
        <ele>1118</ele>
        <time>2017-07-22T12:19:55Z</time>
      </trkpt>
      <trkpt lat="42.5092" lon="2.22495">
        <ele>1117.4</ele>
        <time>2017-07-22T12:20:16Z</time>
      </trkpt>
      <trkpt lat="42.50921" lon="2.22485">
        <ele>1116.1</ele>
        <time>2017-07-22T12:20:23Z</time>
      </trkpt>
      <trkpt lat="42.50916" lon="2.22475">
        <ele>1115.5</ele>
        <time>2017-07-22T12:20:27Z</time>
      </trkpt>
      <trkpt lat="42.50909" lon="2.22467">
        <ele>1115.3</ele>
        <time>2017-07-22T12:20:28Z</time>
      </trkpt>
      <trkpt lat="42.50903" lon="2.2246">
        <ele>1113.6</ele>
        <time>2017-07-22T12:20:33Z</time>
      </trkpt>
      <trkpt lat="42.50902" lon="2.22462">
        <ele>1111.2</ele>
        <time>2017-07-22T12:20:40Z</time>
      </trkpt>
      <trkpt lat="42.50896" lon="2.2246">
        <ele>1109.6</ele>
        <time>2017-07-22T12:20:47Z</time>
      </trkpt>
      <trkpt lat="42.50893" lon="2.22465">
        <ele>1108.5</ele>
        <time>2017-07-22T12:20:54Z</time>
      </trkpt>
      <trkpt lat="42.50894" lon="2.22478">
        <ele>1108.1</ele>
        <time>2017-07-22T12:20:57Z</time>
      </trkpt>
      <trkpt lat="42.50896" lon="2.22489">
        <ele>1108</ele>
        <time>2017-07-22T12:21:01Z</time>
      </trkpt>
      <trkpt lat="42.50895" lon="2.2249">
        <ele>1108</ele>
        <time>2017-07-22T12:21:08Z</time>
      </trkpt>
      <trkpt lat="42.50896" lon="2.22497">
        <ele>1108.3</ele>
        <time>2017-07-22T12:21:15Z</time>
      </trkpt>
      <trkpt lat="42.50891" lon="2.22495">
        <ele>1108.3</ele>
        <time>2017-07-22T12:21:22Z</time>
      </trkpt>
      <trkpt lat="42.50902" lon="2.22492">
        <ele>1108.7</ele>
        <time>2017-07-22T12:21:29Z</time>
      </trkpt>
      <trkpt lat="42.5091" lon="2.22487">
        <ele>1108.6</ele>
        <time>2017-07-22T12:21:31Z</time>
      </trkpt>
      <trkpt lat="42.50918" lon="2.22483">
        <ele>1108.7</ele>
        <time>2017-07-22T12:21:33Z</time>
      </trkpt>
      <trkpt lat="42.50925" lon="2.22491">
        <ele>1109.2</ele>
        <time>2017-07-22T12:21:36Z</time>
      </trkpt>
      <trkpt lat="42.50934" lon="2.22496">
        <ele>1109.7</ele>
        <time>2017-07-22T12:21:40Z</time>
      </trkpt>
      <trkpt lat="42.5094" lon="2.22502">
        <ele>1110</ele>
        <time>2017-07-22T12:21:43Z</time>
      </trkpt>
      <trkpt lat="42.50948" lon="2.22508">
        <ele>1110.3</ele>
        <time>2017-07-22T12:21:47Z</time>
      </trkpt>
      <trkpt lat="42.50956" lon="2.2251">
        <ele>1110.1</ele>
        <time>2017-07-22T12:21:52Z</time>
      </trkpt>
      <trkpt lat="42.50959" lon="2.22507">
        <ele>1109.8</ele>
        <time>2017-07-22T12:21:59Z</time>
      </trkpt>
      <trkpt lat="42.50945" lon="2.22498">
        <ele>1109.5</ele>
        <time>2017-07-22T12:22:04Z</time>
      </trkpt>
      <trkpt lat="42.50933" lon="2.22491">
        <ele>1109.1</ele>
        <time>2017-07-22T12:22:07Z</time>
      </trkpt>
      <trkpt lat="42.50925" lon="2.22491">
        <ele>1108.6</ele>
        <time>2017-07-22T12:22:10Z</time>
      </trkpt>
      <trkpt lat="42.50914" lon="2.22491">
        <ele>1108.1</ele>
        <time>2017-07-22T12:22:12Z</time>
      </trkpt>
      <trkpt lat="42.50902" lon="2.22494">
        <ele>1107.4</ele>
        <time>2017-07-22T12:22:14Z</time>
      </trkpt>
      <trkpt lat="42.50891" lon="2.22495">
        <ele>1106.3</ele>
        <time>2017-07-22T12:22:17Z</time>
      </trkpt>
      <trkpt lat="42.50887" lon="2.22505">
        <ele>1103.9</ele>
        <time>2017-07-22T12:22:20Z</time>
      </trkpt>
      <trkpt lat="42.50884" lon="2.22515">
        <ele>1098.7</ele>
        <time>2017-07-22T12:22:27Z</time>
      </trkpt>
      <trkpt lat="42.50886" lon="2.22514">
        <ele>1094.9</ele>
        <time>2017-07-22T12:22:34Z</time>
      </trkpt>
      <trkpt lat="42.50888" lon="2.22516">
        <ele>1091.5</ele>
        <time>2017-07-22T12:22:41Z</time>
      </trkpt>
      <trkpt lat="42.50889" lon="2.22513">
        <ele>1089.5</ele>
        <time>2017-07-22T12:22:48Z</time>
      </trkpt>
      <trkpt lat="42.50897" lon="2.22518">
        <ele>1087.8</ele>
        <time>2017-07-22T12:22:53Z</time>
      </trkpt>
      <trkpt lat="42.50904" lon="2.22519">
        <ele>1085.6</ele>
        <time>2017-07-22T12:22:58Z</time>
      </trkpt>
      <trkpt lat="42.50907" lon="2.22523">
        <ele>1083.5</ele>
        <time>2017-07-22T12:23:05Z</time>
      </trkpt>
      <trkpt lat="42.50906" lon="2.22529">
        <ele>1081.2</ele>
        <time>2017-07-22T12:23:12Z</time>
      </trkpt>
      <trkpt lat="42.5091" lon="2.22533">
        <ele>1078.4</ele>
        <time>2017-07-22T12:23:19Z</time>
      </trkpt>
      <trkpt lat="42.50903" lon="2.22529">
        <ele>1077</ele>
        <time>2017-07-22T12:23:26Z</time>
      </trkpt>
      <trkpt lat="42.50897" lon="2.22532">
        <ele>1076</ele>
        <time>2017-07-22T12:23:33Z</time>
      </trkpt>
      <trkpt lat="42.50899" lon="2.22536">
        <ele>1075.4</ele>
        <time>2017-07-22T12:23:40Z</time>
      </trkpt>
      <trkpt lat="42.50901" lon="2.22538">
        <ele>1074.4</ele>
        <time>2017-07-22T12:23:47Z</time>
      </trkpt>
      <trkpt lat="42.50895" lon="2.22544">
        <ele>1073.8</ele>
        <time>2017-07-22T12:23:53Z</time>
      </trkpt>
      <trkpt lat="42.50888" lon="2.22549">
        <ele>1073.1</ele>
        <time>2017-07-22T12:24:00Z</time>
      </trkpt>
      <trkpt lat="42.50885" lon="2.22558">
        <ele>1072.9</ele>
        <time>2017-07-22T12:24:06Z</time>
      </trkpt>
      <trkpt lat="42.50882" lon="2.22565">
        <ele>1072.7</ele>
        <time>2017-07-22T12:24:13Z</time>
      </trkpt>
      <trkpt lat="42.50883" lon="2.22573">
        <ele>1073.1</ele>
        <time>2017-07-22T12:24:20Z</time>
      </trkpt>
      <trkpt lat="42.50882" lon="2.22575">
        <ele>1072.8</ele>
        <time>2017-07-22T12:24:27Z</time>
      </trkpt>
      <trkpt lat="42.50882" lon="2.22575">
        <ele>1072.8</ele>
        <time>2017-07-22T12:24:29Z</time>
      </trkpt>
      <trkpt lat="42.5088" lon="2.22585">
        <ele>1071.9</ele>
        <time>2017-07-22T12:24:34Z</time>
      </trkpt>
      <trkpt lat="42.5088" lon="2.22588">
        <ele>1072.1</ele>
        <time>2017-07-22T12:24:41Z</time>
      </trkpt>
      <trkpt lat="42.50875" lon="2.22596">
        <ele>1072.7</ele>
        <time>2017-07-22T12:24:46Z</time>
      </trkpt>
      <trkpt lat="42.50872" lon="2.22606">
        <ele>1071.2</ele>
        <time>2017-07-22T12:24:53Z</time>
      </trkpt>
      <trkpt lat="42.50878" lon="2.22616">
        <ele>1070.6</ele>
        <time>2017-07-22T12:25:00Z</time>
      </trkpt>
      <trkpt lat="42.50885" lon="2.22625">
        <ele>1070</ele>
        <time>2017-07-22T12:25:07Z</time>
      </trkpt>
      <trkpt lat="42.50887" lon="2.22631">
        <ele>1069.4</ele>
        <time>2017-07-22T12:25:14Z</time>
      </trkpt>
      <trkpt lat="42.5089" lon="2.22639">
        <ele>1068.5</ele>
        <time>2017-07-22T12:25:21Z</time>
      </trkpt>
      <trkpt lat="42.50889" lon="2.22647">
        <ele>1068.1</ele>
        <time>2017-07-22T12:25:28Z</time>
      </trkpt>
      <trkpt lat="42.50892" lon="2.22652">
        <ele>1067.2</ele>
        <time>2017-07-22T12:25:35Z</time>
      </trkpt>
      <trkpt lat="42.50896" lon="2.22657">
        <ele>1066.3</ele>
        <time>2017-07-22T12:25:42Z</time>
      </trkpt>
      <trkpt lat="42.50905" lon="2.22661">
        <ele>1065.7</ele>
        <time>2017-07-22T12:25:45Z</time>
      </trkpt>
      <trkpt lat="42.5091" lon="2.2267">
        <ele>1065.4</ele>
        <time>2017-07-22T12:25:51Z</time>
      </trkpt>
      <trkpt lat="42.50906" lon="2.22676">
        <ele>1065.3</ele>
        <time>2017-07-22T12:25:57Z</time>
      </trkpt>
      <trkpt lat="42.50902" lon="2.22684">
        <ele>1064</ele>
        <time>2017-07-22T12:26:02Z</time>
      </trkpt>
      <trkpt lat="42.50893" lon="2.22691">
        <ele>1062.6</ele>
        <time>2017-07-22T12:26:07Z</time>
      </trkpt>
      <trkpt lat="42.50892" lon="2.227">
        <ele>1061.6</ele>
        <time>2017-07-22T12:26:14Z</time>
      </trkpt>
      <trkpt lat="42.50893" lon="2.22711">
        <ele>1061.1</ele>
        <time>2017-07-22T12:26:21Z</time>
      </trkpt>
      <trkpt lat="42.50894" lon="2.22722">
        <ele>1060.1</ele>
        <time>2017-07-22T12:26:28Z</time>
      </trkpt>
      <trkpt lat="42.50893" lon="2.2273">
        <ele>1059.7</ele>
        <time>2017-07-22T12:26:35Z</time>
      </trkpt>
      <trkpt lat="42.50889" lon="2.22736">
        <ele>1059</ele>
        <time>2017-07-22T12:26:42Z</time>
      </trkpt>
      <trkpt lat="42.50888" lon="2.22738">
        <ele>1058.8</ele>
        <time>2017-07-22T12:26:49Z</time>
      </trkpt>
      <trkpt lat="42.50893" lon="2.2274">
        <ele>1059.3</ele>
        <time>2017-07-22T12:26:56Z</time>
      </trkpt>
      <trkpt lat="42.5089" lon="2.22742">
        <ele>1059.9</ele>
        <time>2017-07-22T12:27:03Z</time>
      </trkpt>
      <trkpt lat="42.50888" lon="2.22743">
        <ele>1059.1</ele>
        <time>2017-07-22T12:27:10Z</time>
      </trkpt>
      <trkpt lat="42.50889" lon="2.22746">
        <ele>1058</ele>
        <time>2017-07-22T12:27:17Z</time>
      </trkpt>
      <trkpt lat="42.50883" lon="2.22745">
        <ele>1056.7</ele>
        <time>2017-07-22T12:27:24Z</time>
      </trkpt>
      <trkpt lat="42.50882" lon="2.22741">
        <ele>1054.7</ele>
        <time>2017-07-22T12:27:31Z</time>
      </trkpt>
      <trkpt lat="42.50888" lon="2.22741">
        <ele>1052.4</ele>
        <time>2017-07-22T12:27:38Z</time>
      </trkpt>
      <trkpt lat="42.50886" lon="2.22743">
        <ele>1051.2</ele>
        <time>2017-07-22T12:27:45Z</time>
      </trkpt>
      <trkpt lat="42.50885" lon="2.22746">
        <ele>1050.4</ele>
        <time>2017-07-22T12:27:52Z</time>
      </trkpt>
      <trkpt lat="42.50885" lon="2.22749">
        <ele>1050.2</ele>
        <time>2017-07-22T12:27:59Z</time>
      </trkpt>
      <trkpt lat="42.50887" lon="2.22754">
        <ele>1050.1</ele>
        <time>2017-07-22T12:28:06Z</time>
      </trkpt>
      <trkpt lat="42.50884" lon="2.22757">
        <ele>1049.8</ele>
        <time>2017-07-22T12:28:13Z</time>
      </trkpt>
      <trkpt lat="42.50882" lon="2.22759">
        <ele>1050.1</ele>
        <time>2017-07-22T12:28:20Z</time>
      </trkpt>
      <trkpt lat="42.50885" lon="2.22761">
        <ele>1051.4</ele>
        <time>2017-07-22T12:28:27Z</time>
      </trkpt>
      <trkpt lat="42.50884" lon="2.22764">
        <ele>1052.6</ele>
        <time>2017-07-22T12:28:34Z</time>
      </trkpt>
      <trkpt lat="42.50887" lon="2.22766">
        <ele>1053.5</ele>
        <time>2017-07-22T12:28:41Z</time>
      </trkpt>
      <trkpt lat="42.50888" lon="2.2277">
        <ele>1054.4</ele>
        <time>2017-07-22T12:28:48Z</time>
      </trkpt>
      <trkpt lat="42.50887" lon="2.22777">
        <ele>1055.4</ele>
        <time>2017-07-22T12:28:55Z</time>
      </trkpt>
      <trkpt lat="42.50881" lon="2.22783">
        <ele>1056.9</ele>
        <time>2017-07-22T12:29:02Z</time>
      </trkpt>
      <trkpt lat="42.5088" lon="2.2279">
        <ele>1058.1</ele>
        <time>2017-07-22T12:29:09Z</time>
      </trkpt>
      <trkpt lat="42.5088" lon="2.22797">
        <ele>1059.2</ele>
        <time>2017-07-22T12:29:16Z</time>
      </trkpt>
      <trkpt lat="42.50879" lon="2.228">
        <ele>1058.8</ele>
        <time>2017-07-22T12:29:23Z</time>
      </trkpt>
      <trkpt lat="42.50879" lon="2.22801">
        <ele>1058.3</ele>
        <time>2017-07-22T12:29:30Z</time>
      </trkpt>
      <trkpt lat="42.50882" lon="2.22803">
        <ele>1057.7</ele>
        <time>2017-07-22T12:29:37Z</time>
      </trkpt>
      <trkpt lat="42.50884" lon="2.22803">
        <ele>1056.7</ele>
        <time>2017-07-22T12:29:44Z</time>
      </trkpt>
      <trkpt lat="42.50884" lon="2.22803">
        <ele>1056.7</ele>
        <time>2017-07-22T12:29:48Z</time>
      </trkpt>
      <trkpt lat="42.50885" lon="2.22811">
        <ele>1054.9</ele>
        <time>2017-07-22T12:29:56Z</time>
      </trkpt>
      <trkpt lat="42.50885" lon="2.22819">
        <ele>1053.1</ele>
        <time>2017-07-22T12:30:03Z</time>
      </trkpt>
      <trkpt lat="42.50886" lon="2.22826">
        <ele>1052.3</ele>
        <time>2017-07-22T12:30:10Z</time>
      </trkpt>
      <trkpt lat="42.50883" lon="2.22829">
        <ele>1051.1</ele>
        <time>2017-07-22T12:30:17Z</time>
      </trkpt>
      <trkpt lat="42.50883" lon="2.22829">
        <ele>1051.1</ele>
        <time>2017-07-22T12:30:22Z</time>
      </trkpt>
      <trkpt lat="42.50882" lon="2.22827">
        <ele>1048.2</ele>
        <time>2017-07-22T12:30:32Z</time>
      </trkpt>
      <trkpt lat="42.50879" lon="2.22821">
        <ele>1046.4</ele>
        <time>2017-07-22T12:30:39Z</time>
      </trkpt>
      <trkpt lat="42.50872" lon="2.22815">
        <ele>1046.5</ele>
        <time>2017-07-22T12:30:46Z</time>
      </trkpt>
      <trkpt lat="42.50871" lon="2.22815">
        <ele>1046.6</ele>
        <time>2017-07-22T12:30:52Z</time>
      </trkpt>
      <trkpt lat="42.50871" lon="2.22815">
        <ele>1046.6</ele>
        <time>2017-07-22T12:30:54Z</time>
      </trkpt>
      <trkpt lat="42.50878" lon="2.22823">
        <ele>1045.2</ele>
        <time>2017-07-22T12:31:06Z</time>
      </trkpt>
      <trkpt lat="42.50878" lon="2.22824">
        <ele>1044.6</ele>
        <time>2017-07-22T12:31:13Z</time>
      </trkpt>
      <trkpt lat="42.50878" lon="2.22824">
        <ele>1044.6</ele>
        <time>2017-07-22T12:31:16Z</time>
      </trkpt>
      <trkpt lat="42.5088" lon="2.22834">
        <ele>1042.9</ele>
        <time>2017-07-22T12:31:28Z</time>
      </trkpt>
      <trkpt lat="42.5088" lon="2.22841">
        <ele>1042.1</ele>
        <time>2017-07-22T12:31:35Z</time>
      </trkpt>
      <trkpt lat="42.50878" lon="2.22846">
        <ele>1041.6</ele>
        <time>2017-07-22T12:31:42Z</time>
      </trkpt>
      <trkpt lat="42.50877" lon="2.22847">
        <ele>1041.5</ele>
        <time>2017-07-22T12:31:49Z</time>
      </trkpt>
      <trkpt lat="42.50874" lon="2.22856">
        <ele>1040.1</ele>
        <time>2017-07-22T12:32:04Z</time>
      </trkpt>
      <trkpt lat="42.50873" lon="2.22863">
        <ele>1039.9</ele>
        <time>2017-07-22T12:32:11Z</time>
      </trkpt>
      <trkpt lat="42.50873" lon="2.22868">
        <ele>1039.7</ele>
        <time>2017-07-22T12:32:18Z</time>
      </trkpt>
      <trkpt lat="42.50871" lon="2.22876">
        <ele>1038.6</ele>
        <time>2017-07-22T12:32:25Z</time>
      </trkpt>
      <trkpt lat="42.5087" lon="2.22883">
        <ele>1036.8</ele>
        <time>2017-07-22T12:32:32Z</time>
      </trkpt>
      <trkpt lat="42.50862" lon="2.22889">
        <ele>1035.3</ele>
        <time>2017-07-22T12:32:34Z</time>
      </trkpt>
      <trkpt lat="42.50857" lon="2.22896">
        <ele>1033.3</ele>
        <time>2017-07-22T12:32:38Z</time>
      </trkpt>
      <trkpt lat="42.50862" lon="2.22902">
        <ele>1029.3</ele>
        <time>2017-07-22T12:32:42Z</time>
      </trkpt>
      <trkpt lat="42.50865" lon="2.22909">
        <ele>1025.4</ele>
        <time>2017-07-22T12:32:49Z</time>
      </trkpt>
      <trkpt lat="42.50862" lon="2.22913">
        <ele>1022.5</ele>
        <time>2017-07-22T12:32:56Z</time>
      </trkpt>
      <trkpt lat="42.5086" lon="2.22922">
        <ele>1020.5</ele>
        <time>2017-07-22T12:33:03Z</time>
      </trkpt>
      <trkpt lat="42.50858" lon="2.22927">
        <ele>1017.8</ele>
        <time>2017-07-22T12:33:10Z</time>
      </trkpt>
      <trkpt lat="42.50857" lon="2.22931">
        <ele>1016.9</ele>
        <time>2017-07-22T12:33:17Z</time>
      </trkpt>
      <trkpt lat="42.50853" lon="2.22932">
        <ele>1017.2</ele>
        <time>2017-07-22T12:33:24Z</time>
      </trkpt>
      <trkpt lat="42.50851" lon="2.22935">
        <ele>1017.5</ele>
        <time>2017-07-22T12:33:31Z</time>
      </trkpt>
      <trkpt lat="42.50851" lon="2.22936">
        <ele>1017.1</ele>
        <time>2017-07-22T12:33:38Z</time>
      </trkpt>
      <trkpt lat="42.50853" lon="2.22936">
        <ele>1015.9</ele>
        <time>2017-07-22T12:33:45Z</time>
      </trkpt>
      <trkpt lat="42.50853" lon="2.22936">
        <ele>1015.9</ele>
        <time>2017-07-22T12:33:48Z</time>
      </trkpt>
      <trkpt lat="42.50859" lon="2.22942">
        <ele>1017</ele>
        <time>2017-07-22T12:34:14Z</time>
      </trkpt>
      <trkpt lat="42.50864" lon="2.2295">
        <ele>1016.8</ele>
        <time>2017-07-22T12:34:21Z</time>
      </trkpt>
      <trkpt lat="42.50865" lon="2.22954">
        <ele>1016.9</ele>
        <time>2017-07-22T12:34:28Z</time>
      </trkpt>
      <trkpt lat="42.50867" lon="2.22958">
        <ele>1016.8</ele>
        <time>2017-07-22T12:34:35Z</time>
      </trkpt>
      <trkpt lat="42.50868" lon="2.22958">
        <ele>1016.9</ele>
        <time>2017-07-22T12:34:42Z</time>
      </trkpt>
      <trkpt lat="42.50868" lon="2.22958">
        <ele>1016.9</ele>
        <time>2017-07-22T12:34:44Z</time>
      </trkpt>
      <trkpt lat="42.5086" lon="2.22953">
        <ele>1016.7</ele>
        <time>2017-07-22T12:34:52Z</time>
      </trkpt>
      <trkpt lat="42.50853" lon="2.22954">
        <ele>1016.7</ele>
        <time>2017-07-22T12:34:59Z</time>
      </trkpt>
      <trkpt lat="42.50844" lon="2.22957">
        <ele>1016.7</ele>
        <time>2017-07-22T12:35:06Z</time>
      </trkpt>
      <trkpt lat="42.50836" lon="2.22957">
        <ele>1016.1</ele>
        <time>2017-07-22T12:35:12Z</time>
      </trkpt>
      <trkpt lat="42.50828" lon="2.22958">
        <ele>1016</ele>
        <time>2017-07-22T12:35:19Z</time>
      </trkpt>
      <trkpt lat="42.50825" lon="2.22962">
        <ele>1015.3</ele>
        <time>2017-07-22T12:35:26Z</time>
      </trkpt>
      <trkpt lat="42.50827" lon="2.2297">
        <ele>1014.9</ele>
        <time>2017-07-22T12:35:34Z</time>
      </trkpt>
      <trkpt lat="42.5083" lon="2.22972">
        <ele>1014.3</ele>
        <time>2017-07-22T12:35:41Z</time>
      </trkpt>
      <trkpt lat="42.50829" lon="2.22972">
        <ele>1014.3</ele>
        <time>2017-07-22T12:35:48Z</time>
      </trkpt>
      <trkpt lat="42.50829" lon="2.22972">
        <ele>1014.3</ele>
        <time>2017-07-22T12:35:49Z</time>
      </trkpt>
      <trkpt lat="42.5082" lon="2.22964">
        <ele>1013.7</ele>
        <time>2017-07-22T12:35:58Z</time>
      </trkpt>
      <trkpt lat="42.5082" lon="2.22963">
        <ele>1013.4</ele>
        <time>2017-07-22T12:36:05Z</time>
      </trkpt>
      <trkpt lat="42.5082" lon="2.22963">
        <ele>1013.4</ele>
        <time>2017-07-22T12:36:08Z</time>
      </trkpt>
      <trkpt lat="42.50829" lon="2.22967">
        <ele>1013.6</ele>
        <time>2017-07-22T12:36:19Z</time>
      </trkpt>
      <trkpt lat="42.50829" lon="2.22967">
        <ele>1013.7</ele>
        <time>2017-07-22T12:36:26Z</time>
      </trkpt>
      <trkpt lat="42.50837" lon="2.22974">
        <ele>1013.3</ele>
        <time>2017-07-22T12:36:36Z</time>
      </trkpt>
      <trkpt lat="42.50841" lon="2.22977">
        <ele>1013</ele>
        <time>2017-07-22T12:36:43Z</time>
      </trkpt>
      <trkpt lat="42.50841" lon="2.22977">
        <ele>1013</ele>
        <time>2017-07-22T12:36:46Z</time>
      </trkpt>
      <trkpt lat="42.50835" lon="2.22978">
        <ele>1011.7</ele>
        <time>2017-07-22T12:36:59Z</time>
      </trkpt>
      <trkpt lat="42.50828" lon="2.22981">
        <ele>1011.5</ele>
        <time>2017-07-22T12:37:06Z</time>
      </trkpt>
      <trkpt lat="42.50827" lon="2.22988">
        <ele>1011.4</ele>
        <time>2017-07-22T12:37:13Z</time>
      </trkpt>
      <trkpt lat="42.50826" lon="2.22994">
        <ele>1011.4</ele>
        <time>2017-07-22T12:37:20Z</time>
      </trkpt>
      <trkpt lat="42.50826" lon="2.23003">
        <ele>1011.3</ele>
        <time>2017-07-22T12:37:28Z</time>
      </trkpt>
      <trkpt lat="42.50822" lon="2.23003">
        <ele>1011</ele>
        <time>2017-07-22T12:37:34Z</time>
      </trkpt>
      <trkpt lat="42.50816" lon="2.23001">
        <ele>1010.7</ele>
        <time>2017-07-22T12:37:41Z</time>
      </trkpt>
      <trkpt lat="42.50816" lon="2.23001">
        <ele>1010.7</ele>
        <time>2017-07-22T12:37:46Z</time>
      </trkpt>
      <trkpt lat="42.50817" lon="2.23013">
        <ele>1012</ele>
        <time>2017-07-22T12:38:05Z</time>
      </trkpt>
      <trkpt lat="42.50818" lon="2.23013">
        <ele>1012.2</ele>
        <time>2017-07-22T12:38:12Z</time>
      </trkpt>
      <trkpt lat="42.50818" lon="2.23013">
        <ele>1012.2</ele>
        <time>2017-07-22T12:38:14Z</time>
      </trkpt>
      <trkpt lat="42.50813" lon="2.2302">
        <ele>1013.8</ele>
        <time>2017-07-22T12:38:45Z</time>
      </trkpt>
      <trkpt lat="42.50813" lon="2.23026">
        <ele>1013.8</ele>
        <time>2017-07-22T12:38:52Z</time>
      </trkpt>
      <trkpt lat="42.50806" lon="2.23028">
        <ele>1013.9</ele>
        <time>2017-07-22T12:38:59Z</time>
      </trkpt>
      <trkpt lat="42.50804" lon="2.23034">
        <ele>1014</ele>
        <time>2017-07-22T12:39:06Z</time>
      </trkpt>
      <trkpt lat="42.50802" lon="2.23037">
        <ele>1013.9</ele>
        <time>2017-07-22T12:39:13Z</time>
      </trkpt>
      <trkpt lat="42.50801" lon="2.23039">
        <ele>1013.6</ele>
        <time>2017-07-22T12:39:20Z</time>
      </trkpt>
      <trkpt lat="42.508" lon="2.23039">
        <ele>1013.6</ele>
        <time>2017-07-22T12:39:27Z</time>
      </trkpt>
      <trkpt lat="42.508" lon="2.23039">
        <ele>1013.6</ele>
        <time>2017-07-22T12:39:30Z</time>
      </trkpt>
      <trkpt lat="42.50795" lon="2.23046">
        <ele>1013.8</ele>
        <time>2017-07-22T12:39:37Z</time>
      </trkpt>
      <trkpt lat="42.50791" lon="2.23051">
        <ele>1013.6</ele>
        <time>2017-07-22T12:39:44Z</time>
      </trkpt>
      <trkpt lat="42.50789" lon="2.23056">
        <ele>1013.3</ele>
        <time>2017-07-22T12:39:51Z</time>
      </trkpt>
      <trkpt lat="42.50784" lon="2.23058">
        <ele>1013.3</ele>
        <time>2017-07-22T12:39:58Z</time>
      </trkpt>
      <trkpt lat="42.50782" lon="2.23064">
        <ele>1013.5</ele>
        <time>2017-07-22T12:40:05Z</time>
      </trkpt>
      <trkpt lat="42.50779" lon="2.23063">
        <ele>1013.6</ele>
        <time>2017-07-22T12:40:12Z</time>
      </trkpt>
      <trkpt lat="42.50776" lon="2.23062">
        <ele>1013.6</ele>
        <time>2017-07-22T12:40:19Z</time>
      </trkpt>
      <trkpt lat="42.50775" lon="2.23064">
        <ele>1013.5</ele>
        <time>2017-07-22T12:40:26Z</time>
      </trkpt>
      <trkpt lat="42.50775" lon="2.23064">
        <ele>1013.5</ele>
        <time>2017-07-22T12:40:32Z</time>
      </trkpt>
      <trkpt lat="42.50774" lon="2.23073">
        <ele>1013.8</ele>
        <time>2017-07-22T12:40:41Z</time>
      </trkpt>
      <trkpt lat="42.50773" lon="2.23078">
        <ele>1014.1</ele>
        <time>2017-07-22T12:40:48Z</time>
      </trkpt>
      <trkpt lat="42.50765" lon="2.23076">
        <ele>1014.3</ele>
        <time>2017-07-22T12:40:54Z</time>
      </trkpt>
      <trkpt lat="42.50763" lon="2.2308">
        <ele>1014.1</ele>
        <time>2017-07-22T12:41:01Z</time>
      </trkpt>
      <trkpt lat="42.50756" lon="2.23085">
        <ele>1014.4</ele>
        <time>2017-07-22T12:41:03Z</time>
      </trkpt>
      <trkpt lat="42.5075" lon="2.23087">
        <ele>1015</ele>
        <time>2017-07-22T12:41:10Z</time>
      </trkpt>
      <trkpt lat="42.50749" lon="2.23083">
        <ele>1015.2</ele>
        <time>2017-07-22T12:41:17Z</time>
      </trkpt>
      <trkpt lat="42.50749" lon="2.23086">
        <ele>1015.6</ele>
        <time>2017-07-22T12:41:24Z</time>
      </trkpt>
      <trkpt lat="42.50749" lon="2.23091">
        <ele>1016.7</ele>
        <time>2017-07-22T12:41:31Z</time>
      </trkpt>
      <trkpt lat="42.50751" lon="2.23092">
        <ele>1018.1</ele>
        <time>2017-07-22T12:41:38Z</time>
      </trkpt>
      <trkpt lat="42.5075" lon="2.23093">
        <ele>1019.2</ele>
        <time>2017-07-22T12:41:45Z</time>
      </trkpt>
      <trkpt lat="42.50746" lon="2.23094">
        <ele>1019.9</ele>
        <time>2017-07-22T12:41:52Z</time>
      </trkpt>
      <trkpt lat="42.50746" lon="2.23094">
        <ele>1019.9</ele>
        <time>2017-07-22T12:41:59Z</time>
      </trkpt>
      <trkpt lat="42.50747" lon="2.23097">
        <ele>1020.7</ele>
        <time>2017-07-22T12:42:08Z</time>
      </trkpt>
      <trkpt lat="42.50743" lon="2.2309">
        <ele>1021.1</ele>
        <time>2017-07-22T12:42:15Z</time>
      </trkpt>
      <trkpt lat="42.50745" lon="2.23091">
        <ele>1021.1</ele>
        <time>2017-07-22T12:42:22Z</time>
      </trkpt>
      <trkpt lat="42.50745" lon="2.23091">
        <ele>1021.1</ele>
        <time>2017-07-22T12:42:24Z</time>
      </trkpt>
      <trkpt lat="42.50749" lon="2.23101">
        <ele>1020.6</ele>
        <time>2017-07-22T12:42:38Z</time>
      </trkpt>
      <trkpt lat="42.50748" lon="2.23099">
        <ele>1020.1</ele>
        <time>2017-07-22T12:42:45Z</time>
      </trkpt>
      <trkpt lat="42.50747" lon="2.23099">
        <ele>1019.6</ele>
        <time>2017-07-22T12:42:52Z</time>
      </trkpt>
      <trkpt lat="42.50739" lon="2.23101">
        <ele>1019.3</ele>
        <time>2017-07-22T12:42:59Z</time>
      </trkpt>
      <trkpt lat="42.50732" lon="2.23104">
        <ele>1018.8</ele>
        <time>2017-07-22T12:43:06Z</time>
      </trkpt>
      <trkpt lat="42.50726" lon="2.23104">
        <ele>1018.6</ele>
        <time>2017-07-22T12:43:13Z</time>
      </trkpt>
      <trkpt lat="42.50718" lon="2.23106">
        <ele>1018.4</ele>
        <time>2017-07-22T12:43:19Z</time>
      </trkpt>
      <trkpt lat="42.50714" lon="2.23109">
        <ele>1018.7</ele>
        <time>2017-07-22T12:43:26Z</time>
      </trkpt>
      <trkpt lat="42.50713" lon="2.23113">
        <ele>1019</ele>
        <time>2017-07-22T12:43:33Z</time>
      </trkpt>
      <trkpt lat="42.50708" lon="2.23113">
        <ele>1020</ele>
        <time>2017-07-22T12:43:40Z</time>
      </trkpt>
      <trkpt lat="42.50708" lon="2.2311">
        <ele>1021</ele>
        <time>2017-07-22T12:43:47Z</time>
      </trkpt>
      <trkpt lat="42.50705" lon="2.2311">
        <ele>1021.7</ele>
        <time>2017-07-22T12:43:54Z</time>
      </trkpt>
      <trkpt lat="42.50703" lon="2.2311">
        <ele>1022.6</ele>
        <time>2017-07-22T12:44:01Z</time>
      </trkpt>
      <trkpt lat="42.50699" lon="2.23114">
        <ele>1023.6</ele>
        <time>2017-07-22T12:44:08Z</time>
      </trkpt>
      <trkpt lat="42.50697" lon="2.23116">
        <ele>1024.4</ele>
        <time>2017-07-22T12:44:15Z</time>
      </trkpt>
      <trkpt lat="42.50695" lon="2.23117">
        <ele>1025.7</ele>
        <time>2017-07-22T12:44:22Z</time>
      </trkpt>
      <trkpt lat="42.50691" lon="2.2311">
        <ele>1026.9</ele>
        <time>2017-07-22T12:44:29Z</time>
      </trkpt>
      <trkpt lat="42.50691" lon="2.23102">
        <ele>1027.4</ele>
        <time>2017-07-22T12:44:36Z</time>
      </trkpt>
      <trkpt lat="42.50694" lon="2.23095">
        <ele>1027.7</ele>
        <time>2017-07-22T12:44:43Z</time>
      </trkpt>
      <trkpt lat="42.50694" lon="2.23105">
        <ele>1027.7</ele>
        <time>2017-07-22T12:44:49Z</time>
      </trkpt>
      <trkpt lat="42.50692" lon="2.23114">
        <ele>1028.5</ele>
        <time>2017-07-22T12:44:56Z</time>
      </trkpt>
      <trkpt lat="42.50692" lon="2.23119">
        <ele>1029.9</ele>
        <time>2017-07-22T12:45:03Z</time>
      </trkpt>
      <trkpt lat="42.50685" lon="2.23126">
        <ele>1031.8</ele>
        <time>2017-07-22T12:45:09Z</time>
      </trkpt>
      <trkpt lat="42.50678" lon="2.23133">
        <ele>1034</ele>
        <time>2017-07-22T12:45:15Z</time>
      </trkpt>
      <trkpt lat="42.50671" lon="2.23137">
        <ele>1035.7</ele>
        <time>2017-07-22T12:45:22Z</time>
      </trkpt>
      <trkpt lat="42.50664" lon="2.23139">
        <ele>1036.7</ele>
        <time>2017-07-22T12:45:28Z</time>
      </trkpt>
      <trkpt lat="42.50658" lon="2.2314">
        <ele>1037.7</ele>
        <time>2017-07-22T12:45:35Z</time>
      </trkpt>
      <trkpt lat="42.50656" lon="2.23137">
        <ele>1038.2</ele>
        <time>2017-07-22T12:45:42Z</time>
      </trkpt>
      <trkpt lat="42.50647" lon="2.2314">
        <ele>1038.7</ele>
        <time>2017-07-22T12:45:49Z</time>
      </trkpt>
      <trkpt lat="42.50644" lon="2.23146">
        <ele>1039.3</ele>
        <time>2017-07-22T12:45:56Z</time>
      </trkpt>
      <trkpt lat="42.50637" lon="2.23147">
        <ele>1039.7</ele>
        <time>2017-07-22T12:46:03Z</time>
      </trkpt>
      <trkpt lat="42.5063" lon="2.23149">
        <ele>1040.4</ele>
        <time>2017-07-22T12:46:10Z</time>
      </trkpt>
      <trkpt lat="42.5062" lon="2.23155">
        <ele>1040.9</ele>
        <time>2017-07-22T12:46:17Z</time>
      </trkpt>
      <trkpt lat="42.5062" lon="2.23156">
        <ele>1041</ele>
        <time>2017-07-22T12:46:24Z</time>
      </trkpt>
      <trkpt lat="42.5062" lon="2.23156">
        <ele>1041</ele>
        <time>2017-07-22T12:46:26Z</time>
      </trkpt>
      <trkpt lat="42.50623" lon="2.23146">
        <ele>1042.6</ele>
        <time>2017-07-22T12:46:44Z</time>
      </trkpt>
      <trkpt lat="42.50622" lon="2.23148">
        <ele>1042.7</ele>
        <time>2017-07-22T12:46:51Z</time>
      </trkpt>
      <trkpt lat="42.50622" lon="2.23148">
        <ele>1042.7</ele>
        <time>2017-07-22T12:46:54Z</time>
      </trkpt>
      <trkpt lat="42.50631" lon="2.23143">
        <ele>1042.7</ele>
        <time>2017-07-22T12:46:57Z</time>
      </trkpt>
      <trkpt lat="42.5063" lon="2.23137">
        <ele>1042.6</ele>
        <time>2017-07-22T12:47:04Z</time>
      </trkpt>
      <trkpt lat="42.50625" lon="2.23143">
        <ele>1042.7</ele>
        <time>2017-07-22T12:47:11Z</time>
      </trkpt>
      <trkpt lat="42.50625" lon="2.23143">
        <ele>1042.7</ele>
        <time>2017-07-22T12:47:16Z</time>
      </trkpt>
      <trkpt lat="42.50627" lon="2.23129">
        <ele>1043</ele>
        <time>2017-07-22T12:47:20Z</time>
      </trkpt>
      <trkpt lat="42.5063" lon="2.2312">
        <ele>1043.7</ele>
        <time>2017-07-22T12:47:27Z</time>
      </trkpt>
      <trkpt lat="42.50631" lon="2.23119">
        <ele>1044.5</ele>
        <time>2017-07-22T12:47:34Z</time>
      </trkpt>
      <trkpt lat="42.5063" lon="2.23113">
        <ele>1045.5</ele>
        <time>2017-07-22T12:47:41Z</time>
      </trkpt>
      <trkpt lat="42.50633" lon="2.23107">
        <ele>1044.9</ele>
        <time>2017-07-22T12:47:48Z</time>
      </trkpt>
      <trkpt lat="42.50633" lon="2.23102">
        <ele>1044.6</ele>
        <time>2017-07-22T12:47:55Z</time>
      </trkpt>
      <trkpt lat="42.50632" lon="2.23101">
        <ele>1044.6</ele>
        <time>2017-07-22T12:48:02Z</time>
      </trkpt>
      <trkpt lat="42.50632" lon="2.23101">
        <ele>1044.6</ele>
        <time>2017-07-22T12:48:03Z</time>
      </trkpt>
      <trkpt lat="42.50628" lon="2.23091">
        <ele>1043.5</ele>
        <time>2017-07-22T12:48:06Z</time>
      </trkpt>
      <trkpt lat="42.50628" lon="2.23085">
        <ele>1042.1</ele>
        <time>2017-07-22T12:48:13Z</time>
      </trkpt>
      <trkpt lat="42.50628" lon="2.23082">
        <ele>1042.5</ele>
        <time>2017-07-22T12:48:20Z</time>
      </trkpt>
      <trkpt lat="42.50622" lon="2.23083">
        <ele>1043</ele>
        <time>2017-07-22T12:48:27Z</time>
      </trkpt>
      <trkpt lat="42.5062" lon="2.23083">
        <ele>1043</ele>
        <time>2017-07-22T12:48:34Z</time>
      </trkpt>
      <trkpt lat="42.50619" lon="2.23083">
        <ele>1043.1</ele>
        <time>2017-07-22T12:48:41Z</time>
      </trkpt>
      <trkpt lat="42.50619" lon="2.23083">
        <ele>1043.1</ele>
        <time>2017-07-22T12:48:42Z</time>
      </trkpt>
      <trkpt lat="42.50614" lon="2.23074">
        <ele>1040.6</ele>
        <time>2017-07-22T12:48:49Z</time>
      </trkpt>
      <trkpt lat="42.50611" lon="2.23064">
        <ele>1040.1</ele>
        <time>2017-07-22T12:48:56Z</time>
      </trkpt>
      <trkpt lat="42.50611" lon="2.23061">
        <ele>1038.6</ele>
        <time>2017-07-22T12:49:03Z</time>
      </trkpt>
      <trkpt lat="42.50612" lon="2.23061">
        <ele>1038.5</ele>
        <time>2017-07-22T12:49:10Z</time>
      </trkpt>
      <trkpt lat="42.50612" lon="2.23061">
        <ele>1038.5</ele>
        <time>2017-07-22T12:49:12Z</time>
      </trkpt>
      <trkpt lat="42.50606" lon="2.2306">
        <ele>1038.2</ele>
        <time>2017-07-22T12:49:20Z</time>
      </trkpt>
      <trkpt lat="42.50598" lon="2.23078">
        <ele>1040.1</ele>
        <time>2017-07-22T12:49:22Z</time>
      </trkpt>
      <trkpt lat="42.50595" lon="2.23088">
        <ele>1041.1</ele>
        <time>2017-07-22T12:49:23Z</time>
      </trkpt>
      <trkpt lat="42.50593" lon="2.23089">
        <ele>1041.4</ele>
        <time>2017-07-22T12:49:30Z</time>
      </trkpt>
      <trkpt lat="42.50589" lon="2.23086">
        <ele>1040.9</ele>
        <time>2017-07-22T12:49:37Z</time>
      </trkpt>
      <trkpt lat="42.50589" lon="2.23075">
        <ele>1039.8</ele>
        <time>2017-07-22T12:49:43Z</time>
      </trkpt>
      <trkpt lat="42.50585" lon="2.23063">
        <ele>1039.4</ele>
        <time>2017-07-22T12:49:48Z</time>
      </trkpt>
      <trkpt lat="42.5058" lon="2.23056">
        <ele>1039.4</ele>
        <time>2017-07-22T12:49:51Z</time>
      </trkpt>
      <trkpt lat="42.50573" lon="2.23048">
        <ele>1039.5</ele>
        <time>2017-07-22T12:49:55Z</time>
      </trkpt>
      <trkpt lat="42.50568" lon="2.2304">
        <ele>1039.6</ele>
        <time>2017-07-22T12:49:58Z</time>
      </trkpt>
      <trkpt lat="42.5056" lon="2.23037">
        <ele>1038.9</ele>
        <time>2017-07-22T12:50:03Z</time>
      </trkpt>
      <trkpt lat="42.50555" lon="2.23039">
        <ele>1038.5</ele>
        <time>2017-07-22T12:50:10Z</time>
      </trkpt>
      <trkpt lat="42.50547" lon="2.23026">
        <ele>1037.3</ele>
        <time>2017-07-22T12:50:13Z</time>
      </trkpt>
      <trkpt lat="42.50536" lon="2.23015">
        <ele>1037.3</ele>
        <time>2017-07-22T12:50:19Z</time>
      </trkpt>
      <trkpt lat="42.5053" lon="2.23015">
        <ele>1036.9</ele>
        <time>2017-07-22T12:50:26Z</time>
      </trkpt>
      <trkpt lat="42.50522" lon="2.23019">
        <ele>1037</ele>
        <time>2017-07-22T12:50:32Z</time>
      </trkpt>
      <trkpt lat="42.50515" lon="2.23019">
        <ele>1036.8</ele>
        <time>2017-07-22T12:50:39Z</time>
      </trkpt>
      <trkpt lat="42.50515" lon="2.23018">
        <ele>1036.7</ele>
        <time>2017-07-22T12:50:46Z</time>
      </trkpt>
      <trkpt lat="42.50515" lon="2.23018">
        <ele>1036.7</ele>
        <time>2017-07-22T12:50:52Z</time>
      </trkpt>
      <trkpt lat="42.50519" lon="2.2303">
        <ele>1035.7</ele>
        <time>2017-07-22T12:50:56Z</time>
      </trkpt>
      <trkpt lat="42.50521" lon="2.23039">
        <ele>1036.3</ele>
        <time>2017-07-22T12:51:00Z</time>
      </trkpt>
      <trkpt lat="42.50524" lon="2.2304">
        <ele>1036.6</ele>
        <time>2017-07-22T12:51:07Z</time>
      </trkpt>
      <trkpt lat="42.50524" lon="2.2305">
        <ele>1036.4</ele>
        <time>2017-07-22T12:51:14Z</time>
      </trkpt>
      <trkpt lat="42.50527" lon="2.2306">
        <ele>1035.5</ele>
        <time>2017-07-22T12:51:20Z</time>
      </trkpt>
      <trkpt lat="42.50519" lon="2.23058">
        <ele>1034.7</ele>
        <time>2017-07-22T12:51:27Z</time>
      </trkpt>
      <trkpt lat="42.50514" lon="2.23048">
        <ele>1033.9</ele>
        <time>2017-07-22T12:51:34Z</time>
      </trkpt>
      <trkpt lat="42.50507" lon="2.23051">
        <ele>1034.2</ele>
        <time>2017-07-22T12:51:39Z</time>
      </trkpt>
      <trkpt lat="42.50502" lon="2.23058">
        <ele>1034.6</ele>
        <time>2017-07-22T12:51:46Z</time>
      </trkpt>
      <trkpt lat="42.50495" lon="2.23057">
        <ele>1034.9</ele>
        <time>2017-07-22T12:51:49Z</time>
      </trkpt>
      <trkpt lat="42.50493" lon="2.23068">
        <ele>1035.4</ele>
        <time>2017-07-22T12:51:53Z</time>
      </trkpt>
      <trkpt lat="42.50499" lon="2.23077">
        <ele>1036.3</ele>
        <time>2017-07-22T12:51:57Z</time>
      </trkpt>
      <trkpt lat="42.50501" lon="2.23088">
        <ele>1037.1</ele>
        <time>2017-07-22T12:52:01Z</time>
      </trkpt>
      <trkpt lat="42.50502" lon="2.23099">
        <ele>1037.8</ele>
        <time>2017-07-22T12:52:08Z</time>
      </trkpt>
      <trkpt lat="42.50495" lon="2.23099">
        <ele>1038.5</ele>
        <time>2017-07-22T12:52:14Z</time>
      </trkpt>
      <trkpt lat="42.50486" lon="2.23097">
        <ele>1039.7</ele>
        <time>2017-07-22T12:52:21Z</time>
      </trkpt>
      <trkpt lat="42.50486" lon="2.23097">
        <ele>1040.3</ele>
        <time>2017-07-22T12:52:28Z</time>
      </trkpt>
      <trkpt lat="42.50486" lon="2.23097">
        <ele>1040.3</ele>
        <time>2017-07-22T12:52:32Z</time>
      </trkpt>
      <trkpt lat="42.50492" lon="2.23104">
        <ele>1041.2</ele>
        <time>2017-07-22T12:52:34Z</time>
      </trkpt>
      <trkpt lat="42.50497" lon="2.23109">
        <ele>1042.1</ele>
        <time>2017-07-22T12:52:41Z</time>
      </trkpt>
      <trkpt lat="42.50499" lon="2.23112">
        <ele>1041.7</ele>
        <time>2017-07-22T12:52:48Z</time>
      </trkpt>
      <trkpt lat="42.50502" lon="2.23112">
        <ele>1041.9</ele>
        <time>2017-07-22T12:52:55Z</time>
      </trkpt>
      <trkpt lat="42.50504" lon="2.23113">
        <ele>1041.5</ele>
        <time>2017-07-22T12:53:02Z</time>
      </trkpt>
      <trkpt lat="42.50509" lon="2.23117">
        <ele>1041.2</ele>
        <time>2017-07-22T12:53:09Z</time>
      </trkpt>
      <trkpt lat="42.50513" lon="2.2312">
        <ele>1041.4</ele>
        <time>2017-07-22T12:53:16Z</time>
      </trkpt>
      <trkpt lat="42.50514" lon="2.23125">
        <ele>1041.3</ele>
        <time>2017-07-22T12:53:23Z</time>
      </trkpt>
      <trkpt lat="42.50515" lon="2.23124">
        <ele>1042</ele>
        <time>2017-07-22T12:53:30Z</time>
      </trkpt>
      <trkpt lat="42.50515" lon="2.23123">
        <ele>1042.5</ele>
        <time>2017-07-22T12:53:37Z</time>
      </trkpt>
      <trkpt lat="42.50514" lon="2.23119">
        <ele>1042.4</ele>
        <time>2017-07-22T12:53:44Z</time>
      </trkpt>
      <trkpt lat="42.50513" lon="2.23116">
        <ele>1043.4</ele>
        <time>2017-07-22T12:53:51Z</time>
      </trkpt>
      <trkpt lat="42.50522" lon="2.23114">
        <ele>1044.7</ele>
        <time>2017-07-22T12:53:55Z</time>
      </trkpt>
      <trkpt lat="42.50524" lon="2.23109">
        <ele>1045.7</ele>
        <time>2017-07-22T12:54:02Z</time>
      </trkpt>
      <trkpt lat="42.50523" lon="2.23105">
        <ele>1047</ele>
        <time>2017-07-22T12:54:09Z</time>
      </trkpt>
      <trkpt lat="42.50523" lon="2.23105">
        <ele>1047</ele>
        <time>2017-07-22T12:54:15Z</time>
      </trkpt>
      <trkpt lat="42.5053" lon="2.23099">
        <ele>1047.8</ele>
        <time>2017-07-22T12:54:16Z</time>
      </trkpt>
      <trkpt lat="42.5053" lon="2.23094">
        <ele>1048.2</ele>
        <time>2017-07-22T12:54:23Z</time>
      </trkpt>
      <trkpt lat="42.50529" lon="2.23093">
        <ele>1048.5</ele>
        <time>2017-07-22T12:54:30Z</time>
      </trkpt>
      <trkpt lat="42.50529" lon="2.23093">
        <ele>1048.5</ele>
        <time>2017-07-22T12:54:33Z</time>
      </trkpt>
      <trkpt lat="42.50524" lon="2.23088">
        <ele>1049.6</ele>
        <time>2017-07-22T12:54:43Z</time>
      </trkpt>
      <trkpt lat="42.50524" lon="2.23088">
        <ele>1049.6</ele>
        <time>2017-07-22T12:54:45Z</time>
      </trkpt>
      <trkpt lat="42.50528" lon="2.23089">
        <ele>1049.9</ele>
        <time>2017-07-22T12:54:52Z</time>
      </trkpt>
      <trkpt lat="42.50528" lon="2.23089">
        <ele>1049.9</ele>
        <time>2017-07-22T12:54:55Z</time>
      </trkpt>
      <trkpt lat="42.50531" lon="2.23086">
        <ele>1050</ele>
        <time>2017-07-22T12:55:10Z</time>
      </trkpt>
      <trkpt lat="42.50526" lon="2.23083">
        <ele>1050.6</ele>
        <time>2017-07-22T12:55:17Z</time>
      </trkpt>
      <trkpt lat="42.50527" lon="2.2308">
        <ele>1050.8</ele>
        <time>2017-07-22T12:55:24Z</time>
      </trkpt>
      <trkpt lat="42.50522" lon="2.23073">
        <ele>1051.2</ele>
        <time>2017-07-22T12:55:28Z</time>
      </trkpt>
      <trkpt lat="42.50523" lon="2.23071">
        <ele>1050.6</ele>
        <time>2017-07-22T12:55:35Z</time>
      </trkpt>
      <trkpt lat="42.50518" lon="2.2307">
        <ele>1051.2</ele>
        <time>2017-07-22T12:55:42Z</time>
      </trkpt>
      <trkpt lat="42.50518" lon="2.2307">
        <ele>1051.3</ele>
        <time>2017-07-22T12:55:49Z</time>
      </trkpt>
      <trkpt lat="42.50515" lon="2.23074">
        <ele>1052.9</ele>
        <time>2017-07-22T12:55:56Z</time>
      </trkpt>
      <trkpt lat="42.50515" lon="2.23074">
        <ele>1052.9</ele>
        <time>2017-07-22T12:56:01Z</time>
      </trkpt>
      <trkpt lat="42.50524" lon="2.23078">
        <ele>1053.9</ele>
        <time>2017-07-22T12:56:07Z</time>
      </trkpt>
      <trkpt lat="42.50523" lon="2.23079">
        <ele>1053.9</ele>
        <time>2017-07-22T12:56:14Z</time>
      </trkpt>
      <trkpt lat="42.50523" lon="2.23079">
        <ele>1053.9</ele>
        <time>2017-07-22T12:56:15Z</time>
      </trkpt>
      <trkpt lat="42.50522" lon="2.23074">
        <ele>1054.9</ele>
        <time>2017-07-22T12:56:28Z</time>
      </trkpt>
      <trkpt lat="42.50522" lon="2.23074">
        <ele>1054.9</ele>
        <time>2017-07-22T12:56:31Z</time>
      </trkpt>
      <trkpt lat="42.50531" lon="2.23076">
        <ele>1055.5</ele>
        <time>2017-07-22T12:56:46Z</time>
      </trkpt>
      <trkpt lat="42.50533" lon="2.23077">
        <ele>1055.4</ele>
        <time>2017-07-22T12:56:53Z</time>
      </trkpt>
      <trkpt lat="42.50533" lon="2.23077">
        <ele>1055.4</ele>
        <time>2017-07-22T12:56:55Z</time>
      </trkpt>
      <trkpt lat="42.50542" lon="2.23078">
        <ele>1054.6</ele>
        <time>2017-07-22T12:57:02Z</time>
      </trkpt>
      <trkpt lat="42.50544" lon="2.23078">
        <ele>1053.9</ele>
        <time>2017-07-22T12:57:09Z</time>
      </trkpt>
      <trkpt lat="42.50544" lon="2.23078">
        <ele>1053.9</ele>
        <time>2017-07-22T12:57:11Z</time>
      </trkpt>
      <trkpt lat="42.50537" lon="2.2307">
        <ele>1057.5</ele>
        <time>2017-07-22T12:57:20Z</time>
      </trkpt>
      <trkpt lat="42.50538" lon="2.23065">
        <ele>1058.6</ele>
        <time>2017-07-22T12:57:27Z</time>
      </trkpt>
      <trkpt lat="42.50537" lon="2.23059">
        <ele>1059.9</ele>
        <time>2017-07-22T12:57:35Z</time>
      </trkpt>
      <trkpt lat="42.5054" lon="2.23053">
        <ele>1061.2</ele>
        <time>2017-07-22T12:57:41Z</time>
      </trkpt>
      <trkpt lat="42.50539" lon="2.23043">
        <ele>1061.7</ele>
        <time>2017-07-22T12:57:47Z</time>
      </trkpt>
      <trkpt lat="42.50537" lon="2.23038">
        <ele>1062.3</ele>
        <time>2017-07-22T12:57:54Z</time>
      </trkpt>
      <trkpt lat="42.50534" lon="2.23042">
        <ele>1062.5</ele>
        <time>2017-07-22T12:58:01Z</time>
      </trkpt>
      <trkpt lat="42.50534" lon="2.23042">
        <ele>1062.5</ele>
        <time>2017-07-22T12:58:04Z</time>
      </trkpt>
      <trkpt lat="42.50537" lon="2.23033">
        <ele>1067.3</ele>
        <time>2017-07-22T12:58:24Z</time>
      </trkpt>
      <trkpt lat="42.50536" lon="2.23025">
        <ele>1067.9</ele>
        <time>2017-07-22T12:58:31Z</time>
      </trkpt>
      <trkpt lat="42.50533" lon="2.2302">
        <ele>1069</ele>
        <time>2017-07-22T12:58:38Z</time>
      </trkpt>
      <trkpt lat="42.50532" lon="2.23017">
        <ele>1069.8</ele>
        <time>2017-07-22T12:58:45Z</time>
      </trkpt>
      <trkpt lat="42.50533" lon="2.23015">
        <ele>1070.1</ele>
        <time>2017-07-22T12:58:52Z</time>
      </trkpt>
      <trkpt lat="42.50533" lon="2.23015">
        <ele>1070.1</ele>
        <time>2017-07-22T12:58:57Z</time>
      </trkpt>
      <trkpt lat="42.50535" lon="2.23003">
        <ele>1072.1</ele>
        <time>2017-07-22T12:59:11Z</time>
      </trkpt>
      <trkpt lat="42.50533" lon="2.23003">
        <ele>1072.9</ele>
        <time>2017-07-22T12:59:18Z</time>
      </trkpt>
      <trkpt lat="42.50533" lon="2.23003">
        <ele>1072.9</ele>
        <time>2017-07-22T12:59:21Z</time>
      </trkpt>
      <trkpt lat="42.50524" lon="2.23002">
        <ele>1077</ele>
        <time>2017-07-22T12:59:39Z</time>
      </trkpt>
      <trkpt lat="42.50518" lon="2.22997">
        <ele>1077.6</ele>
        <time>2017-07-22T12:59:46Z</time>
      </trkpt>
      <trkpt lat="42.5052" lon="2.22995">
        <ele>1078.8</ele>
        <time>2017-07-22T12:59:53Z</time>
      </trkpt>
      <trkpt lat="42.50521" lon="2.22989">
        <ele>1079.5</ele>
        <time>2017-07-22T13:00:00Z</time>
      </trkpt>
      <trkpt lat="42.50516" lon="2.22982">
        <ele>1079.5</ele>
        <time>2017-07-22T13:00:07Z</time>
      </trkpt>
      <trkpt lat="42.5051" lon="2.22982">
        <ele>1079.3</ele>
        <time>2017-07-22T13:00:14Z</time>
      </trkpt>
      <trkpt lat="42.50505" lon="2.22989">
        <ele>1078.8</ele>
        <time>2017-07-22T13:00:20Z</time>
      </trkpt>
      <trkpt lat="42.50502" lon="2.22991">
        <ele>1079</ele>
        <time>2017-07-22T13:00:27Z</time>
      </trkpt>
      <trkpt lat="42.50498" lon="2.2299">
        <ele>1079.1</ele>
        <time>2017-07-22T13:00:34Z</time>
      </trkpt>
      <trkpt lat="42.50492" lon="2.22988">
        <ele>1079.3</ele>
        <time>2017-07-22T13:00:41Z</time>
      </trkpt>
      <trkpt lat="42.5049" lon="2.22992">
        <ele>1079.3</ele>
        <time>2017-07-22T13:00:48Z</time>
      </trkpt>
      <trkpt lat="42.50489" lon="2.22996">
        <ele>1079.6</ele>
        <time>2017-07-22T13:00:55Z</time>
      </trkpt>
      <trkpt lat="42.50489" lon="2.22996">
        <ele>1079.6</ele>
        <time>2017-07-22T13:01:01Z</time>
      </trkpt>
      <trkpt lat="42.50489" lon="2.23004">
        <ele>1079.2</ele>
        <time>2017-07-22T13:01:09Z</time>
      </trkpt>
      <trkpt lat="42.50488" lon="2.23005">
        <ele>1079.2</ele>
        <time>2017-07-22T13:01:16Z</time>
      </trkpt>
      <trkpt lat="42.50488" lon="2.23005">
        <ele>1079.2</ele>
        <time>2017-07-22T13:01:18Z</time>
      </trkpt>
      <trkpt lat="42.50483" lon="2.23016">
        <ele>1079.6</ele>
        <time>2017-07-22T13:01:36Z</time>
      </trkpt>
      <trkpt lat="42.50484" lon="2.23017">
        <ele>1079.8</ele>
        <time>2017-07-22T13:01:43Z</time>
      </trkpt>
      <trkpt lat="42.50486" lon="2.23026">
        <ele>1080.2</ele>
        <time>2017-07-22T13:01:50Z</time>
      </trkpt>
      <trkpt lat="42.50493" lon="2.23029">
        <ele>1080.7</ele>
        <time>2017-07-22T13:01:57Z</time>
      </trkpt>
      <trkpt lat="42.50492" lon="2.23028">
        <ele>1080.9</ele>
        <time>2017-07-22T13:02:04Z</time>
      </trkpt>
      <trkpt lat="42.50491" lon="2.23033">
        <ele>1081.1</ele>
        <time>2017-07-22T13:02:11Z</time>
      </trkpt>
      <trkpt lat="42.5049" lon="2.2304">
        <ele>1081.3</ele>
        <time>2017-07-22T13:02:18Z</time>
      </trkpt>
      <trkpt lat="42.50488" lon="2.23044">
        <ele>1081.7</ele>
        <time>2017-07-22T13:02:25Z</time>
      </trkpt>
      <trkpt lat="42.50484" lon="2.23047">
        <ele>1082</ele>
        <time>2017-07-22T13:02:32Z</time>
      </trkpt>
      <trkpt lat="42.50478" lon="2.23055">
        <ele>1082</ele>
        <time>2017-07-22T13:02:39Z</time>
      </trkpt>
      <trkpt lat="42.50476" lon="2.23058">
        <ele>1082.1</ele>
        <time>2017-07-22T13:02:46Z</time>
      </trkpt>
      <trkpt lat="42.50475" lon="2.23059">
        <ele>1082.2</ele>
        <time>2017-07-22T13:02:53Z</time>
      </trkpt>
      <trkpt lat="42.50475" lon="2.23059">
        <ele>1082.2</ele>
        <time>2017-07-22T13:02:55Z</time>
      </trkpt>
      <trkpt lat="42.50471" lon="2.23069">
        <ele>1082.5</ele>
        <time>2017-07-22T13:03:05Z</time>
      </trkpt>
      <trkpt lat="42.5047" lon="2.23067">
        <ele>1082.5</ele>
        <time>2017-07-22T13:03:12Z</time>
      </trkpt>
      <trkpt lat="42.5047" lon="2.23067">
        <ele>1082.5</ele>
        <time>2017-07-22T13:03:15Z</time>
      </trkpt>
      <trkpt lat="42.50463" lon="2.23059">
        <ele>1084</ele>
        <time>2017-07-22T13:03:34Z</time>
      </trkpt>
      <trkpt lat="42.5046" lon="2.23052">
        <ele>1084.5</ele>
        <time>2017-07-22T13:03:41Z</time>
      </trkpt>
      <trkpt lat="42.50458" lon="2.23048">
        <ele>1085.2</ele>
        <time>2017-07-22T13:03:48Z</time>
      </trkpt>
      <trkpt lat="42.50458" lon="2.23048">
        <ele>1085.2</ele>
        <time>2017-07-22T13:03:55Z</time>
      </trkpt>
      <trkpt lat="42.50452" lon="2.23043">
        <ele>1085.6</ele>
        <time>2017-07-22T13:04:08Z</time>
      </trkpt>
      <trkpt lat="42.50448" lon="2.23041">
        <ele>1086.1</ele>
        <time>2017-07-22T13:04:15Z</time>
      </trkpt>
      <trkpt lat="42.50442" lon="2.23037">
        <ele>1086.6</ele>
        <time>2017-07-22T13:04:22Z</time>
      </trkpt>
      <trkpt lat="42.50437" lon="2.23034">
        <ele>1086.6</ele>
        <time>2017-07-22T13:04:29Z</time>
      </trkpt>
      <trkpt lat="42.50436" lon="2.2303">
        <ele>1087</ele>
        <time>2017-07-22T13:04:36Z</time>
      </trkpt>
      <trkpt lat="42.50433" lon="2.23024">
        <ele>1087.3</ele>
        <time>2017-07-22T13:04:43Z</time>
      </trkpt>
      <trkpt lat="42.50436" lon="2.23018">
        <ele>1087.5</ele>
        <time>2017-07-22T13:04:50Z</time>
      </trkpt>
      <trkpt lat="42.50437" lon="2.23013">
        <ele>1087.6</ele>
        <time>2017-07-22T13:04:57Z</time>
      </trkpt>
      <trkpt lat="42.50434" lon="2.2301">
        <ele>1088.3</ele>
        <time>2017-07-22T13:05:04Z</time>
      </trkpt>
      <trkpt lat="42.50433" lon="2.23003">
        <ele>1088.8</ele>
        <time>2017-07-22T13:05:11Z</time>
      </trkpt>
      <trkpt lat="42.50433" lon="2.22997">
        <ele>1088.9</ele>
        <time>2017-07-22T13:05:18Z</time>
      </trkpt>
      <trkpt lat="42.50431" lon="2.22992">
        <ele>1089</ele>
        <time>2017-07-22T13:05:25Z</time>
      </trkpt>
      <trkpt lat="42.5043" lon="2.22986">
        <ele>1089.2</ele>
        <time>2017-07-22T13:05:32Z</time>
      </trkpt>
      <trkpt lat="42.50428" lon="2.22983">
        <ele>1089.5</ele>
        <time>2017-07-22T13:05:39Z</time>
      </trkpt>
      <trkpt lat="42.50423" lon="2.22985">
        <ele>1089.9</ele>
        <time>2017-07-22T13:05:46Z</time>
      </trkpt>
      <trkpt lat="42.50423" lon="2.22985">
        <ele>1089.9</ele>
        <time>2017-07-22T13:05:53Z</time>
      </trkpt>
      <trkpt lat="42.50416" lon="2.22982">
        <ele>1092.1</ele>
        <time>2017-07-22T13:06:22Z</time>
      </trkpt>
      <trkpt lat="42.50416" lon="2.22982">
        <ele>1092.1</ele>
        <time>2017-07-22T13:06:29Z</time>
      </trkpt>
      <trkpt lat="42.50408" lon="2.22983">
        <ele>1092.6</ele>
        <time>2017-07-22T13:06:33Z</time>
      </trkpt>
      <trkpt lat="42.50403" lon="2.22989">
        <ele>1092.9</ele>
        <time>2017-07-22T13:06:39Z</time>
      </trkpt>
      <trkpt lat="42.50399" lon="2.22994">
        <ele>1093.2</ele>
        <time>2017-07-22T13:06:46Z</time>
      </trkpt>
      <trkpt lat="42.50396" lon="2.22995">
        <ele>1093.4</ele>
        <time>2017-07-22T13:06:53Z</time>
      </trkpt>
      <trkpt lat="42.50392" lon="2.22997">
        <ele>1093.6</ele>
        <time>2017-07-22T13:07:00Z</time>
      </trkpt>
      <trkpt lat="42.50386" lon="2.22998">
        <ele>1093.9</ele>
        <time>2017-07-22T13:07:07Z</time>
      </trkpt>
      <trkpt lat="42.50378" lon="2.22996">
        <ele>1094.1</ele>
        <time>2017-07-22T13:07:13Z</time>
      </trkpt>
      <trkpt lat="42.50372" lon="2.2299">
        <ele>1094.2</ele>
        <time>2017-07-22T13:07:19Z</time>
      </trkpt>
      <trkpt lat="42.50365" lon="2.22983">
        <ele>1094.4</ele>
        <time>2017-07-22T13:07:24Z</time>
      </trkpt>
      <trkpt lat="42.50362" lon="2.22977">
        <ele>1094.4</ele>
        <time>2017-07-22T13:07:31Z</time>
      </trkpt>
      <trkpt lat="42.50357" lon="2.2297">
        <ele>1094.6</ele>
        <time>2017-07-22T13:07:38Z</time>
      </trkpt>
      <trkpt lat="42.50353" lon="2.22971">
        <ele>1094.7</ele>
        <time>2017-07-22T13:07:45Z</time>
      </trkpt>
      <trkpt lat="42.50347" lon="2.22974">
        <ele>1094.9</ele>
        <time>2017-07-22T13:07:52Z</time>
      </trkpt>
      <trkpt lat="42.50342" lon="2.22973">
        <ele>1095.1</ele>
        <time>2017-07-22T13:07:59Z</time>
      </trkpt>
      <trkpt lat="42.50341" lon="2.22981">
        <ele>1095.3</ele>
        <time>2017-07-22T13:08:06Z</time>
      </trkpt>
      <trkpt lat="42.50341" lon="2.22988">
        <ele>1095.4</ele>
        <time>2017-07-22T13:08:13Z</time>
      </trkpt>
      <trkpt lat="42.50342" lon="2.22998">
        <ele>1095.4</ele>
        <time>2017-07-22T13:08:20Z</time>
      </trkpt>
      <trkpt lat="42.50344" lon="2.23007">
        <ele>1095.4</ele>
        <time>2017-07-22T13:08:26Z</time>
      </trkpt>
      <trkpt lat="42.50341" lon="2.23013">
        <ele>1095.5</ele>
        <time>2017-07-22T13:08:33Z</time>
      </trkpt>
      <trkpt lat="42.50333" lon="2.23012">
        <ele>1095.5</ele>
        <time>2017-07-22T13:08:39Z</time>
      </trkpt>
      <trkpt lat="42.50329" lon="2.23015">
        <ele>1095.6</ele>
        <time>2017-07-22T13:08:46Z</time>
      </trkpt>
      <trkpt lat="42.50325" lon="2.23013">
        <ele>1095.9</ele>
        <time>2017-07-22T13:08:53Z</time>
      </trkpt>
      <trkpt lat="42.50322" lon="2.23012">
        <ele>1096.5</ele>
        <time>2017-07-22T13:09:00Z</time>
      </trkpt>
      <trkpt lat="42.50317" lon="2.23006">
        <ele>1096.9</ele>
        <time>2017-07-22T13:09:07Z</time>
      </trkpt>
      <trkpt lat="42.5031" lon="2.22999">
        <ele>1097.3</ele>
        <time>2017-07-22T13:09:13Z</time>
      </trkpt>
      <trkpt lat="42.50305" lon="2.22998">
        <ele>1097.6</ele>
        <time>2017-07-22T13:09:20Z</time>
      </trkpt>
      <trkpt lat="42.50304" lon="2.23003">
        <ele>1098.2</ele>
        <time>2017-07-22T13:09:27Z</time>
      </trkpt>
      <trkpt lat="42.50302" lon="2.2301">
        <ele>1098.5</ele>
        <time>2017-07-22T13:09:34Z</time>
      </trkpt>
      <trkpt lat="42.50301" lon="2.23016">
        <ele>1098.8</ele>
        <time>2017-07-22T13:09:41Z</time>
      </trkpt>
      <trkpt lat="42.50301" lon="2.23016">
        <ele>1098.8</ele>
        <time>2017-07-22T13:09:47Z</time>
      </trkpt>
      <trkpt lat="42.50301" lon="2.23029">
        <ele>1100.1</ele>
        <time>2017-07-22T13:09:56Z</time>
      </trkpt>
      <trkpt lat="42.503" lon="2.23031">
        <ele>1100.2</ele>
        <time>2017-07-22T13:10:03Z</time>
      </trkpt>
      <trkpt lat="42.503" lon="2.23031">
        <ele>1100.2</ele>
        <time>2017-07-22T13:10:05Z</time>
      </trkpt>
      <trkpt lat="42.50295" lon="2.23039">
        <ele>1101.3</ele>
        <time>2017-07-22T13:10:11Z</time>
      </trkpt>
      <trkpt lat="42.50295" lon="2.23039">
        <ele>1101.3</ele>
        <time>2017-07-22T13:10:17Z</time>
      </trkpt>
      <trkpt lat="42.50288" lon="2.23032">
        <ele>1102.2</ele>
        <time>2017-07-22T13:10:46Z</time>
      </trkpt>
      <trkpt lat="42.50289" lon="2.23031">
        <ele>1102.4</ele>
        <time>2017-07-22T13:10:53Z</time>
      </trkpt>
      <trkpt lat="42.50289" lon="2.23031">
        <ele>1102.4</ele>
        <time>2017-07-22T13:10:54Z</time>
      </trkpt>
      <trkpt lat="42.50286" lon="2.23043">
        <ele>1103.6</ele>
        <time>2017-07-22T13:11:34Z</time>
      </trkpt>
      <trkpt lat="42.50285" lon="2.23044">
        <ele>1103.7</ele>
        <time>2017-07-22T13:11:41Z</time>
      </trkpt>
      <trkpt lat="42.5028" lon="2.23048">
        <ele>1104.4</ele>
        <time>2017-07-22T13:11:48Z</time>
      </trkpt>
      <trkpt lat="42.50278" lon="2.23053">
        <ele>1104.8</ele>
        <time>2017-07-22T13:11:55Z</time>
      </trkpt>
      <trkpt lat="42.50278" lon="2.23053">
        <ele>1104.8</ele>
        <time>2017-07-22T13:11:59Z</time>
      </trkpt>
      <trkpt lat="42.50285" lon="2.23045">
        <ele>1105.5</ele>
        <time>2017-07-22T13:12:26Z</time>
      </trkpt>
      <trkpt lat="42.50284" lon="2.23042">
        <ele>1105.8</ele>
        <time>2017-07-22T13:12:33Z</time>
      </trkpt>
      <trkpt lat="42.50284" lon="2.23042">
        <ele>1105.8</ele>
        <time>2017-07-22T13:12:36Z</time>
      </trkpt>
      <trkpt lat="42.50286" lon="2.23029">
        <ele>1107.9</ele>
        <time>2017-07-22T13:13:08Z</time>
      </trkpt>
      <trkpt lat="42.50286" lon="2.2303">
        <ele>1108</ele>
        <time>2017-07-22T13:13:16Z</time>
      </trkpt>
      <trkpt lat="42.50282" lon="2.23043">
        <ele>1109.8</ele>
        <time>2017-07-22T13:13:37Z</time>
      </trkpt>
      <trkpt lat="42.5028" lon="2.23045">
        <ele>1110</ele>
        <time>2017-07-22T13:13:44Z</time>
      </trkpt>
      <trkpt lat="42.5028" lon="2.23045">
        <ele>1110</ele>
        <time>2017-07-22T13:13:47Z</time>
      </trkpt>
      <trkpt lat="42.50288" lon="2.2304">
        <ele>1117.8</ele>
        <time>2017-07-22T13:14:46Z</time>
      </trkpt>
      <trkpt lat="42.50289" lon="2.23039">
        <ele>1118.1</ele>
        <time>2017-07-22T13:14:53Z</time>
      </trkpt>
      <trkpt lat="42.50289" lon="2.23039">
        <ele>1118.1</ele>
        <time>2017-07-22T13:14:56Z</time>
      </trkpt>
      <trkpt lat="42.50282" lon="2.23046">
        <ele>1118.9</ele>
        <time>2017-07-22T13:15:17Z</time>
      </trkpt>
      <trkpt lat="42.50279" lon="2.23056">
        <ele>1119.2</ele>
        <time>2017-07-22T13:15:23Z</time>
      </trkpt>
      <trkpt lat="42.50277" lon="2.23059">
        <ele>1119.4</ele>
        <time>2017-07-22T13:15:30Z</time>
      </trkpt>
      <trkpt lat="42.50277" lon="2.23059">
        <ele>1119.4</ele>
        <time>2017-07-22T13:15:32Z</time>
      </trkpt>
      <trkpt lat="42.50281" lon="2.23048">
        <ele>1124.3</ele>
        <time>2017-07-22T13:16:11Z</time>
      </trkpt>
      <trkpt lat="42.50282" lon="2.23046">
        <ele>1125.1</ele>
        <time>2017-07-22T13:16:18Z</time>
      </trkpt>
      <trkpt lat="42.50282" lon="2.23046">
        <ele>1125.1</ele>
        <time>2017-07-22T13:16:21Z</time>
      </trkpt>
      <trkpt lat="42.50274" lon="2.23056">
        <ele>1129.3</ele>
        <time>2017-07-22T13:16:50Z</time>
      </trkpt>
      <trkpt lat="42.50273" lon="2.2306">
        <ele>1130.1</ele>
        <time>2017-07-22T13:16:57Z</time>
      </trkpt>
      <trkpt lat="42.50273" lon="2.2306">
        <ele>1130.1</ele>
        <time>2017-07-22T13:17:00Z</time>
      </trkpt>
      <trkpt lat="42.50281" lon="2.23052">
        <ele>1136.1</ele>
        <time>2017-07-22T13:18:12Z</time>
      </trkpt>
      <trkpt lat="42.50283" lon="2.2305">
        <ele>1136.3</ele>
        <time>2017-07-22T13:18:19Z</time>
      </trkpt>
      <trkpt lat="42.50283" lon="2.2305">
        <ele>1136.3</ele>
        <time>2017-07-22T13:18:22Z</time>
      </trkpt>
      <trkpt lat="42.50286" lon="2.23038">
        <ele>1141.5</ele>
        <time>2017-07-22T13:19:11Z</time>
      </trkpt>
      <trkpt lat="42.50286" lon="2.23038">
        <ele>1141.9</ele>
        <time>2017-07-22T13:19:18Z</time>
      </trkpt>
      <trkpt lat="42.50284" lon="2.2305">
        <ele>1145.5</ele>
        <time>2017-07-22T13:19:36Z</time>
      </trkpt>
      <trkpt lat="42.50283" lon="2.23054">
        <ele>1146.4</ele>
        <time>2017-07-22T13:19:43Z</time>
      </trkpt>
      <trkpt lat="42.50283" lon="2.23054">
        <ele>1146.4</ele>
        <time>2017-07-22T13:19:45Z</time>
      </trkpt>
      <trkpt lat="42.50276" lon="2.23057">
        <ele>1150.1</ele>
        <time>2017-07-22T13:20:32Z</time>
      </trkpt>
      <trkpt lat="42.50271" lon="2.23058">
        <ele>1149.7</ele>
        <time>2017-07-22T13:20:39Z</time>
      </trkpt>
      <trkpt lat="42.50265" lon="2.23057">
        <ele>1149.6</ele>
        <time>2017-07-22T13:20:46Z</time>
      </trkpt>
      <trkpt lat="42.5026" lon="2.23062">
        <ele>1149.5</ele>
        <time>2017-07-22T13:20:53Z</time>
      </trkpt>
      <trkpt lat="42.50258" lon="2.23066">
        <ele>1149.3</ele>
        <time>2017-07-22T13:21:00Z</time>
      </trkpt>
      <trkpt lat="42.50254" lon="2.23069">
        <ele>1149</ele>
        <time>2017-07-22T13:21:07Z</time>
      </trkpt>
      <trkpt lat="42.5025" lon="2.23073">
        <ele>1148.8</ele>
        <time>2017-07-22T13:21:14Z</time>
      </trkpt>
      <trkpt lat="42.50249" lon="2.23076">
        <ele>1148.7</ele>
        <time>2017-07-22T13:21:21Z</time>
      </trkpt>
      <trkpt lat="42.50248" lon="2.23083">
        <ele>1148.6</ele>
        <time>2017-07-22T13:21:28Z</time>
      </trkpt>
      <trkpt lat="42.50245" lon="2.23094">
        <ele>1148.8</ele>
        <time>2017-07-22T13:21:35Z</time>
      </trkpt>
      <trkpt lat="42.50242" lon="2.23101">
        <ele>1149.1</ele>
        <time>2017-07-22T13:21:42Z</time>
      </trkpt>
      <trkpt lat="42.50245" lon="2.2311">
        <ele>1149.6</ele>
        <time>2017-07-22T13:21:49Z</time>
      </trkpt>
      <trkpt lat="42.50247" lon="2.23113">
        <ele>1149.7</ele>
        <time>2017-07-22T13:21:56Z</time>
      </trkpt>
      <trkpt lat="42.50246" lon="2.23117">
        <ele>1149.5</ele>
        <time>2017-07-22T13:22:03Z</time>
      </trkpt>
      <trkpt lat="42.50245" lon="2.23118">
        <ele>1149.3</ele>
        <time>2017-07-22T13:22:10Z</time>
      </trkpt>
      <trkpt lat="42.50245" lon="2.23118">
        <ele>1149.3</ele>
        <time>2017-07-22T13:22:14Z</time>
      </trkpt>
      <trkpt lat="42.50237" lon="2.23122">
        <ele>1149.2</ele>
        <time>2017-07-22T13:22:27Z</time>
      </trkpt>
      <trkpt lat="42.50237" lon="2.23127">
        <ele>1148.9</ele>
        <time>2017-07-22T13:22:34Z</time>
      </trkpt>
      <trkpt lat="42.50235" lon="2.23133">
        <ele>1148.9</ele>
        <time>2017-07-22T13:22:41Z</time>
      </trkpt>
      <trkpt lat="42.50235" lon="2.23136">
        <ele>1148.7</ele>
        <time>2017-07-22T13:22:48Z</time>
      </trkpt>
      <trkpt lat="42.5023" lon="2.23144">
        <ele>1148.5</ele>
        <time>2017-07-22T13:22:55Z</time>
      </trkpt>
      <trkpt lat="42.50225" lon="2.23148">
        <ele>1148.2</ele>
        <time>2017-07-22T13:23:02Z</time>
      </trkpt>
      <trkpt lat="42.50221" lon="2.23151">
        <ele>1148.1</ele>
        <time>2017-07-22T13:23:09Z</time>
      </trkpt>
      <trkpt lat="42.50218" lon="2.23156">
        <ele>1148.2</ele>
        <time>2017-07-22T13:23:16Z</time>
      </trkpt>
      <trkpt lat="42.50215" lon="2.23156">
        <ele>1148.1</ele>
        <time>2017-07-22T13:23:23Z</time>
      </trkpt>
      <trkpt lat="42.50215" lon="2.23158">
        <ele>1148.1</ele>
        <time>2017-07-22T13:23:30Z</time>
      </trkpt>
      <trkpt lat="42.50215" lon="2.23158">
        <ele>1148.1</ele>
        <time>2017-07-22T13:23:32Z</time>
      </trkpt>
      <trkpt lat="42.50206" lon="2.2315">
        <ele>1147</ele>
        <time>2017-07-22T13:24:05Z</time>
      </trkpt>
      <trkpt lat="42.50207" lon="2.23151">
        <ele>1146.9</ele>
        <time>2017-07-22T13:24:12Z</time>
      </trkpt>
      <trkpt lat="42.50207" lon="2.23151">
        <ele>1146.9</ele>
        <time>2017-07-22T13:24:14Z</time>
      </trkpt>
      <trkpt lat="42.50204" lon="2.23148">
        <ele>1147</ele>
        <time>2017-07-22T13:24:26Z</time>
      </trkpt>
      <trkpt lat="42.50204" lon="2.2315">
        <ele>1147</ele>
        <time>2017-07-22T13:24:33Z</time>
      </trkpt>
      <trkpt lat="42.50204" lon="2.2315">
        <ele>1147</ele>
        <time>2017-07-22T13:24:34Z</time>
      </trkpt>
      <trkpt lat="42.50195" lon="2.23154">
        <ele>1147</ele>
        <time>2017-07-22T13:25:08Z</time>
      </trkpt>
      <trkpt lat="42.50191" lon="2.23155">
        <ele>1147.1</ele>
        <time>2017-07-22T13:25:15Z</time>
      </trkpt>
      <trkpt lat="42.50184" lon="2.23152">
        <ele>1147.5</ele>
        <time>2017-07-22T13:25:22Z</time>
      </trkpt>
      <trkpt lat="42.5018" lon="2.23152">
        <ele>1148</ele>
        <time>2017-07-22T13:25:29Z</time>
      </trkpt>
      <trkpt lat="42.50177" lon="2.23157">
        <ele>1148</ele>
        <time>2017-07-22T13:25:36Z</time>
      </trkpt>
      <trkpt lat="42.50175" lon="2.23161">
        <ele>1148.1</ele>
        <time>2017-07-22T13:25:43Z</time>
      </trkpt>
      <trkpt lat="42.50171" lon="2.23161">
        <ele>1148.1</ele>
        <time>2017-07-22T13:25:50Z</time>
      </trkpt>
      <trkpt lat="42.50165" lon="2.23164">
        <ele>1148.2</ele>
        <time>2017-07-22T13:25:57Z</time>
      </trkpt>
      <trkpt lat="42.50162" lon="2.23171">
        <ele>1148.8</ele>
        <time>2017-07-22T13:26:04Z</time>
      </trkpt>
      <trkpt lat="42.5016" lon="2.23176">
        <ele>1149.3</ele>
        <time>2017-07-22T13:26:11Z</time>
      </trkpt>
      <trkpt lat="42.5016" lon="2.23177">
        <ele>1149.3</ele>
        <time>2017-07-22T13:26:18Z</time>
      </trkpt>
      <trkpt lat="42.5016" lon="2.23177">
        <ele>1149.3</ele>
        <time>2017-07-22T13:26:19Z</time>
      </trkpt>
      <trkpt lat="42.50159" lon="2.23187">
        <ele>1149.7</ele>
        <time>2017-07-22T13:26:25Z</time>
      </trkpt>
      <trkpt lat="42.50155" lon="2.23195">
        <ele>1149.6</ele>
        <time>2017-07-22T13:26:32Z</time>
      </trkpt>
      <trkpt lat="42.50151" lon="2.23202">
        <ele>1149.7</ele>
        <time>2017-07-22T13:26:39Z</time>
      </trkpt>
      <trkpt lat="42.50148" lon="2.23209">
        <ele>1150</ele>
        <time>2017-07-22T13:26:46Z</time>
      </trkpt>
      <trkpt lat="42.50144" lon="2.23216">
        <ele>1150.3</ele>
        <time>2017-07-22T13:26:53Z</time>
      </trkpt>
      <trkpt lat="42.50143" lon="2.23222">
        <ele>1150.6</ele>
        <time>2017-07-22T13:27:00Z</time>
      </trkpt>
      <trkpt lat="42.50139" lon="2.23228">
        <ele>1150.8</ele>
        <time>2017-07-22T13:27:07Z</time>
      </trkpt>
      <trkpt lat="42.50135" lon="2.23234">
        <ele>1150.9</ele>
        <time>2017-07-22T13:27:14Z</time>
      </trkpt>
      <trkpt lat="42.50128" lon="2.2324">
        <ele>1151.1</ele>
        <time>2017-07-22T13:27:21Z</time>
      </trkpt>
      <trkpt lat="42.50123" lon="2.23248">
        <ele>1151.3</ele>
        <time>2017-07-22T13:27:28Z</time>
      </trkpt>
      <trkpt lat="42.50125" lon="2.23248">
        <ele>1151.6</ele>
        <time>2017-07-22T13:27:35Z</time>
      </trkpt>
      <trkpt lat="42.50125" lon="2.23248">
        <ele>1151.6</ele>
        <time>2017-07-22T13:27:37Z</time>
      </trkpt>
      <trkpt lat="42.50117" lon="2.2324">
        <ele>1150.8</ele>
        <time>2017-07-22T13:28:09Z</time>
      </trkpt>
      <trkpt lat="42.50115" lon="2.23245">
        <ele>1151.1</ele>
        <time>2017-07-22T13:28:16Z</time>
      </trkpt>
      <trkpt lat="42.50111" lon="2.23254">
        <ele>1151.2</ele>
        <time>2017-07-22T13:28:23Z</time>
      </trkpt>
      <trkpt lat="42.50106" lon="2.23262">
        <ele>1151.6</ele>
        <time>2017-07-22T13:28:29Z</time>
      </trkpt>
      <trkpt lat="42.50101" lon="2.23268">
        <ele>1151.8</ele>
        <time>2017-07-22T13:28:36Z</time>
      </trkpt>
      <trkpt lat="42.50096" lon="2.23274">
        <ele>1151.8</ele>
        <time>2017-07-22T13:28:43Z</time>
      </trkpt>
      <trkpt lat="42.50089" lon="2.23279">
        <ele>1152</ele>
        <time>2017-07-22T13:28:50Z</time>
      </trkpt>
      <trkpt lat="42.50084" lon="2.23281">
        <ele>1152.3</ele>
        <time>2017-07-22T13:28:57Z</time>
      </trkpt>
      <trkpt lat="42.50082" lon="2.23281">
        <ele>1152.4</ele>
        <time>2017-07-22T13:29:04Z</time>
      </trkpt>
      <trkpt lat="42.50082" lon="2.23281">
        <ele>1152.4</ele>
        <time>2017-07-22T13:29:07Z</time>
      </trkpt>
      <trkpt lat="42.50077" lon="2.23274">
        <ele>1153.1</ele>
        <time>2017-07-22T13:29:14Z</time>
      </trkpt>
      <trkpt lat="42.5007" lon="2.23272">
        <ele>1153.3</ele>
        <time>2017-07-22T13:29:21Z</time>
      </trkpt>
      <trkpt lat="42.50066" lon="2.23271">
        <ele>1153.4</ele>
        <time>2017-07-22T13:29:28Z</time>
      </trkpt>
      <trkpt lat="42.50061" lon="2.23268">
        <ele>1153.6</ele>
        <time>2017-07-22T13:29:35Z</time>
      </trkpt>
      <trkpt lat="42.50054" lon="2.23271">
        <ele>1154</ele>
        <time>2017-07-22T13:29:42Z</time>
      </trkpt>
      <trkpt lat="42.5005" lon="2.23275">
        <ele>1154.3</ele>
        <time>2017-07-22T13:29:49Z</time>
      </trkpt>
      <trkpt lat="42.50046" lon="2.23282">
        <ele>1154.8</ele>
        <time>2017-07-22T13:29:56Z</time>
      </trkpt>
      <trkpt lat="42.50043" lon="2.23287">
        <ele>1155.2</ele>
        <time>2017-07-22T13:30:03Z</time>
      </trkpt>
      <trkpt lat="42.50042" lon="2.23293">
        <ele>1155.9</ele>
        <time>2017-07-22T13:30:10Z</time>
      </trkpt>
      <trkpt lat="42.50042" lon="2.23295">
        <ele>1156.2</ele>
        <time>2017-07-22T13:30:18Z</time>
      </trkpt>
      <trkpt lat="42.50042" lon="2.23295">
        <ele>1156.2</ele>
        <time>2017-07-22T13:30:22Z</time>
      </trkpt>
      <trkpt lat="42.5004" lon="2.23303">
        <ele>1156.6</ele>
        <time>2017-07-22T13:30:30Z</time>
      </trkpt>
      <trkpt lat="42.50039" lon="2.23301">
        <ele>1156.9</ele>
        <time>2017-07-22T13:30:37Z</time>
      </trkpt>
      <trkpt lat="42.50035" lon="2.23294">
        <ele>1157.4</ele>
        <time>2017-07-22T13:30:44Z</time>
      </trkpt>
      <trkpt lat="42.50035" lon="2.23293">
        <ele>1157.6</ele>
        <time>2017-07-22T13:30:51Z</time>
      </trkpt>
      <trkpt lat="42.50035" lon="2.23293">
        <ele>1157.6</ele>
        <time>2017-07-22T13:30:55Z</time>
      </trkpt>
      <trkpt lat="42.50029" lon="2.23281">
        <ele>1159.7</ele>
        <time>2017-07-22T13:31:24Z</time>
      </trkpt>
      <trkpt lat="42.50029" lon="2.23279">
        <ele>1159.7</ele>
        <time>2017-07-22T13:31:31Z</time>
      </trkpt>
      <trkpt lat="42.50029" lon="2.23279">
        <ele>1159.7</ele>
        <time>2017-07-22T13:31:34Z</time>
      </trkpt>
      <trkpt lat="42.50033" lon="2.23281">
        <ele>1159.4</ele>
        <time>2017-07-22T13:31:57Z</time>
      </trkpt>
      <trkpt lat="42.50033" lon="2.23281">
        <ele>1159.4</ele>
        <time>2017-07-22T13:32:02Z</time>
      </trkpt>
      <trkpt lat="42.50025" lon="2.23276">
        <ele>1165</ele>
        <time>2017-07-22T13:35:31Z</time>
      </trkpt>
      <trkpt lat="42.50024" lon="2.23276">
        <ele>1165.2</ele>
        <time>2017-07-22T13:35:38Z</time>
      </trkpt>
      <trkpt lat="42.50024" lon="2.23276">
        <ele>1165.2</ele>
        <time>2017-07-22T13:35:40Z</time>
      </trkpt>
      <trkpt lat="42.50033" lon="2.2328">
        <ele>1164.5</ele>
        <time>2017-07-22T13:35:52Z</time>
      </trkpt>
      <trkpt lat="42.50036" lon="2.23281">
        <ele>1164.7</ele>
        <time>2017-07-22T13:35:59Z</time>
      </trkpt>
      <trkpt lat="42.50036" lon="2.23281">
        <ele>1164.7</ele>
        <time>2017-07-22T13:36:02Z</time>
      </trkpt>
      <trkpt lat="42.5003" lon="2.2329">
        <ele>1170.1</ele>
        <time>2017-07-22T13:38:24Z</time>
      </trkpt>
      <trkpt lat="42.50029" lon="2.23291">
        <ele>1170.2</ele>
        <time>2017-07-22T13:38:31Z</time>
      </trkpt>
      <trkpt lat="42.50029" lon="2.23291">
        <ele>1170.2</ele>
        <time>2017-07-22T13:38:33Z</time>
      </trkpt>
      <trkpt lat="42.50032" lon="2.2328">
        <ele>1171.8</ele>
        <time>2017-07-22T13:39:05Z</time>
      </trkpt>
      <trkpt lat="42.50032" lon="2.2328">
        <ele>1171.7</ele>
        <time>2017-07-22T13:39:12Z</time>
      </trkpt>
      <trkpt lat="42.50041" lon="2.23283">
        <ele>1171.4</ele>
        <time>2017-07-22T13:39:31Z</time>
      </trkpt>
      <trkpt lat="42.50043" lon="2.23284">
        <ele>1170.9</ele>
        <time>2017-07-22T13:39:38Z</time>
      </trkpt>
      <trkpt lat="42.50043" lon="2.23284">
        <ele>1170.9</ele>
        <time>2017-07-22T13:39:41Z</time>
      </trkpt>
      <trkpt lat="42.50046" lon="2.23294">
        <ele>1168.5</ele>
        <time>2017-07-22T13:40:01Z</time>
      </trkpt>
      <trkpt lat="42.50045" lon="2.23301">
        <ele>1168.4</ele>
        <time>2017-07-22T13:40:08Z</time>
      </trkpt>
      <trkpt lat="42.50044" lon="2.2331">
        <ele>1168.3</ele>
        <time>2017-07-22T13:40:15Z</time>
      </trkpt>
      <trkpt lat="42.50044" lon="2.2332">
        <ele>1167.7</ele>
        <time>2017-07-22T13:40:22Z</time>
      </trkpt>
      <trkpt lat="42.50044" lon="2.23328">
        <ele>1167.6</ele>
        <time>2017-07-22T13:40:29Z</time>
      </trkpt>
      <trkpt lat="42.50045" lon="2.23337">
        <ele>1167.5</ele>
        <time>2017-07-22T13:40:36Z</time>
      </trkpt>
      <trkpt lat="42.50046" lon="2.23347">
        <ele>1167.3</ele>
        <time>2017-07-22T13:40:42Z</time>
      </trkpt>
      <trkpt lat="42.50048" lon="2.23357">
        <ele>1167.1</ele>
        <time>2017-07-22T13:40:48Z</time>
      </trkpt>
      <trkpt lat="42.50046" lon="2.23367">
        <ele>1166.9</ele>
        <time>2017-07-22T13:40:55Z</time>
      </trkpt>
      <trkpt lat="42.50046" lon="2.23374">
        <ele>1166.8</ele>
        <time>2017-07-22T13:41:02Z</time>
      </trkpt>
      <trkpt lat="42.50044" lon="2.23379">
        <ele>1166.8</ele>
        <time>2017-07-22T13:41:09Z</time>
      </trkpt>
      <trkpt lat="42.50041" lon="2.23385">
        <ele>1166.9</ele>
        <time>2017-07-22T13:41:16Z</time>
      </trkpt>
      <trkpt lat="42.50037" lon="2.2339">
        <ele>1166.9</ele>
        <time>2017-07-22T13:41:23Z</time>
      </trkpt>
      <trkpt lat="42.5003" lon="2.23393">
        <ele>1166.9</ele>
        <time>2017-07-22T13:41:30Z</time>
      </trkpt>
      <trkpt lat="42.50024" lon="2.23398">
        <ele>1167</ele>
        <time>2017-07-22T13:41:37Z</time>
      </trkpt>
      <trkpt lat="42.5002" lon="2.23403">
        <ele>1166.7</ele>
        <time>2017-07-22T13:41:44Z</time>
      </trkpt>
      <trkpt lat="42.50016" lon="2.23407">
        <ele>1166.9</ele>
        <time>2017-07-22T13:41:51Z</time>
      </trkpt>
      <trkpt lat="42.50011" lon="2.23412">
        <ele>1167</ele>
        <time>2017-07-22T13:41:58Z</time>
      </trkpt>
      <trkpt lat="42.50005" lon="2.23413">
        <ele>1167.1</ele>
        <time>2017-07-22T13:42:05Z</time>
      </trkpt>
      <trkpt lat="42.5" lon="2.23418">
        <ele>1167</ele>
        <time>2017-07-22T13:42:12Z</time>
      </trkpt>
      <trkpt lat="42.49994" lon="2.23423">
        <ele>1167.1</ele>
        <time>2017-07-22T13:42:19Z</time>
      </trkpt>
      <trkpt lat="42.49989" lon="2.23429">
        <ele>1167.2</ele>
        <time>2017-07-22T13:42:26Z</time>
      </trkpt>
      <trkpt lat="42.49983" lon="2.23433">
        <ele>1167.1</ele>
        <time>2017-07-22T13:42:33Z</time>
      </trkpt>
      <trkpt lat="42.4998" lon="2.23439">
        <ele>1167</ele>
        <time>2017-07-22T13:42:40Z</time>
      </trkpt>
      <trkpt lat="42.49975" lon="2.23442">
        <ele>1166.9</ele>
        <time>2017-07-22T13:42:47Z</time>
      </trkpt>
      <trkpt lat="42.49971" lon="2.23447">
        <ele>1166.7</ele>
        <time>2017-07-22T13:42:54Z</time>
      </trkpt>
      <trkpt lat="42.49969" lon="2.23453">
        <ele>1166.9</ele>
        <time>2017-07-22T13:43:01Z</time>
      </trkpt>
      <trkpt lat="42.49963" lon="2.23454">
        <ele>1167.2</ele>
        <time>2017-07-22T13:43:08Z</time>
      </trkpt>
      <trkpt lat="42.49956" lon="2.23457">
        <ele>1167.3</ele>
        <time>2017-07-22T13:43:15Z</time>
      </trkpt>
      <trkpt lat="42.49952" lon="2.23465">
        <ele>1167.3</ele>
        <time>2017-07-22T13:43:22Z</time>
      </trkpt>
      <trkpt lat="42.49949" lon="2.2347">
        <ele>1167.5</ele>
        <time>2017-07-22T13:43:29Z</time>
      </trkpt>
      <trkpt lat="42.49942" lon="2.23475">
        <ele>1167.4</ele>
        <time>2017-07-22T13:43:36Z</time>
      </trkpt>
      <trkpt lat="42.49933" lon="2.23476">
        <ele>1167.6</ele>
        <time>2017-07-22T13:43:43Z</time>
      </trkpt>
      <trkpt lat="42.49931" lon="2.23482">
        <ele>1168</ele>
        <time>2017-07-22T13:43:50Z</time>
      </trkpt>
      <trkpt lat="42.49927" lon="2.2349">
        <ele>1167.9</ele>
        <time>2017-07-22T13:43:57Z</time>
      </trkpt>
      <trkpt lat="42.49924" lon="2.23498">
        <ele>1168.2</ele>
        <time>2017-07-22T13:44:04Z</time>
      </trkpt>
      <trkpt lat="42.49922" lon="2.23504">
        <ele>1168.5</ele>
        <time>2017-07-22T13:44:11Z</time>
      </trkpt>
      <trkpt lat="42.49919" lon="2.23512">
        <ele>1168.8</ele>
        <time>2017-07-22T13:44:18Z</time>
      </trkpt>
      <trkpt lat="42.49916" lon="2.23519">
        <ele>1168.9</ele>
        <time>2017-07-22T13:44:25Z</time>
      </trkpt>
      <trkpt lat="42.49913" lon="2.23522">
        <ele>1169.1</ele>
        <time>2017-07-22T13:44:32Z</time>
      </trkpt>
      <trkpt lat="42.49906" lon="2.23527">
        <ele>1169.2</ele>
        <time>2017-07-22T13:44:39Z</time>
      </trkpt>
      <trkpt lat="42.499" lon="2.23532">
        <ele>1169.6</ele>
        <time>2017-07-22T13:44:46Z</time>
      </trkpt>
      <trkpt lat="42.49895" lon="2.23537">
        <ele>1170</ele>
        <time>2017-07-22T13:44:53Z</time>
      </trkpt>
      <trkpt lat="42.4989" lon="2.23542">
        <ele>1170.5</ele>
        <time>2017-07-22T13:45:00Z</time>
      </trkpt>
      <trkpt lat="42.49885" lon="2.2355">
        <ele>1171.1</ele>
        <time>2017-07-22T13:45:07Z</time>
      </trkpt>
      <trkpt lat="42.4988" lon="2.23556">
        <ele>1171.6</ele>
        <time>2017-07-22T13:45:14Z</time>
      </trkpt>
      <trkpt lat="42.49879" lon="2.23563">
        <ele>1172.1</ele>
        <time>2017-07-22T13:45:21Z</time>
      </trkpt>
      <trkpt lat="42.49873" lon="2.23571">
        <ele>1172.8</ele>
        <time>2017-07-22T13:45:27Z</time>
      </trkpt>
      <trkpt lat="42.4987" lon="2.23575">
        <ele>1172.9</ele>
        <time>2017-07-22T13:45:34Z</time>
      </trkpt>
      <trkpt lat="42.49866" lon="2.23579">
        <ele>1173.3</ele>
        <time>2017-07-22T13:45:41Z</time>
      </trkpt>
      <trkpt lat="42.49862" lon="2.23585">
        <ele>1173.5</ele>
        <time>2017-07-22T13:45:48Z</time>
      </trkpt>
      <trkpt lat="42.49856" lon="2.23591">
        <ele>1174.2</ele>
        <time>2017-07-22T13:45:55Z</time>
      </trkpt>
      <trkpt lat="42.49851" lon="2.23594">
        <ele>1174.8</ele>
        <time>2017-07-22T13:46:02Z</time>
      </trkpt>
      <trkpt lat="42.49846" lon="2.23598">
        <ele>1175.4</ele>
        <time>2017-07-22T13:46:09Z</time>
      </trkpt>
      <trkpt lat="42.49841" lon="2.23603">
        <ele>1176.3</ele>
        <time>2017-07-22T13:46:16Z</time>
      </trkpt>
      <trkpt lat="42.49834" lon="2.23608">
        <ele>1177.2</ele>
        <time>2017-07-22T13:46:22Z</time>
      </trkpt>
      <trkpt lat="42.49831" lon="2.23612">
        <ele>1177.9</ele>
        <time>2017-07-22T13:46:29Z</time>
      </trkpt>
      <trkpt lat="42.49826" lon="2.23613">
        <ele>1178.5</ele>
        <time>2017-07-22T13:46:36Z</time>
      </trkpt>
      <trkpt lat="42.49821" lon="2.23616">
        <ele>1179.2</ele>
        <time>2017-07-22T13:46:43Z</time>
      </trkpt>
      <trkpt lat="42.49817" lon="2.23626">
        <ele>1180.3</ele>
        <time>2017-07-22T13:46:50Z</time>
      </trkpt>
      <trkpt lat="42.49812" lon="2.2363">
        <ele>1180.9</ele>
        <time>2017-07-22T13:46:57Z</time>
      </trkpt>
      <trkpt lat="42.49808" lon="2.23635">
        <ele>1181.5</ele>
        <time>2017-07-22T13:47:04Z</time>
      </trkpt>
      <trkpt lat="42.49801" lon="2.23636">
        <ele>1182.3</ele>
        <time>2017-07-22T13:47:11Z</time>
      </trkpt>
      <trkpt lat="42.49794" lon="2.23641">
        <ele>1183</ele>
        <time>2017-07-22T13:47:18Z</time>
      </trkpt>
      <trkpt lat="42.49792" lon="2.23647">
        <ele>1183.7</ele>
        <time>2017-07-22T13:47:25Z</time>
      </trkpt>
      <trkpt lat="42.49788" lon="2.2365">
        <ele>1184.5</ele>
        <time>2017-07-22T13:47:32Z</time>
      </trkpt>
      <trkpt lat="42.49785" lon="2.23654">
        <ele>1185.5</ele>
        <time>2017-07-22T13:47:39Z</time>
      </trkpt>
      <trkpt lat="42.49779" lon="2.23655">
        <ele>1186.3</ele>
        <time>2017-07-22T13:47:46Z</time>
      </trkpt>
      <trkpt lat="42.49773" lon="2.23656">
        <ele>1186.8</ele>
        <time>2017-07-22T13:47:53Z</time>
      </trkpt>
      <trkpt lat="42.49768" lon="2.23657">
        <ele>1187.9</ele>
        <time>2017-07-22T13:48:00Z</time>
      </trkpt>
      <trkpt lat="42.49761" lon="2.23657">
        <ele>1188.7</ele>
        <time>2017-07-22T13:48:07Z</time>
      </trkpt>
      <trkpt lat="42.49754" lon="2.23658">
        <ele>1189.6</ele>
        <time>2017-07-22T13:48:14Z</time>
      </trkpt>
      <trkpt lat="42.49747" lon="2.23661">
        <ele>1190.7</ele>
        <time>2017-07-22T13:48:21Z</time>
      </trkpt>
      <trkpt lat="42.49742" lon="2.2366">
        <ele>1191.7</ele>
        <time>2017-07-22T13:48:28Z</time>
      </trkpt>
      <trkpt lat="42.49736" lon="2.23659">
        <ele>1192.8</ele>
        <time>2017-07-22T13:48:35Z</time>
      </trkpt>
      <trkpt lat="42.49728" lon="2.23661">
        <ele>1194.1</ele>
        <time>2017-07-22T13:48:42Z</time>
      </trkpt>
      <trkpt lat="42.49721" lon="2.2366">
        <ele>1194.9</ele>
        <time>2017-07-22T13:48:48Z</time>
      </trkpt>
      <trkpt lat="42.49716" lon="2.23658">
        <ele>1195.8</ele>
        <time>2017-07-22T13:48:55Z</time>
      </trkpt>
      <trkpt lat="42.49708" lon="2.23662">
        <ele>1196.4</ele>
        <time>2017-07-22T13:49:02Z</time>
      </trkpt>
      <trkpt lat="42.49704" lon="2.23661">
        <ele>1197.2</ele>
        <time>2017-07-22T13:49:09Z</time>
      </trkpt>
      <trkpt lat="42.49698" lon="2.23665">
        <ele>1198.3</ele>
        <time>2017-07-22T13:49:16Z</time>
      </trkpt>
      <trkpt lat="42.49694" lon="2.23668">
        <ele>1199</ele>
        <time>2017-07-22T13:49:23Z</time>
      </trkpt>
      <trkpt lat="42.49687" lon="2.23672">
        <ele>1199.6</ele>
        <time>2017-07-22T13:49:30Z</time>
      </trkpt>
      <trkpt lat="42.49682" lon="2.23674">
        <ele>1200</ele>
        <time>2017-07-22T13:49:37Z</time>
      </trkpt>
      <trkpt lat="42.49677" lon="2.23675">
        <ele>1200.5</ele>
        <time>2017-07-22T13:49:44Z</time>
      </trkpt>
      <trkpt lat="42.49671" lon="2.23676">
        <ele>1201.3</ele>
        <time>2017-07-22T13:49:51Z</time>
      </trkpt>
      <trkpt lat="42.49663" lon="2.23677">
        <ele>1202</ele>
        <time>2017-07-22T13:49:58Z</time>
      </trkpt>
      <trkpt lat="42.49656" lon="2.2368">
        <ele>1202.5</ele>
        <time>2017-07-22T13:50:03Z</time>
      </trkpt>
      <trkpt lat="42.49652" lon="2.23688">
        <ele>1203.5</ele>
        <time>2017-07-22T13:50:10Z</time>
      </trkpt>
      <trkpt lat="42.49646" lon="2.23693">
        <ele>1204.5</ele>
        <time>2017-07-22T13:50:17Z</time>
      </trkpt>
      <trkpt lat="42.49641" lon="2.23693">
        <ele>1205.8</ele>
        <time>2017-07-22T13:50:24Z</time>
      </trkpt>
      <trkpt lat="42.49635" lon="2.23696">
        <ele>1207</ele>
        <time>2017-07-22T13:50:31Z</time>
      </trkpt>
      <trkpt lat="42.49631" lon="2.23698">
        <ele>1208.2</ele>
        <time>2017-07-22T13:50:38Z</time>
      </trkpt>
      <trkpt lat="42.49628" lon="2.23697">
        <ele>1209</ele>
        <time>2017-07-22T13:50:45Z</time>
      </trkpt>
      <trkpt lat="42.49624" lon="2.23698">
        <ele>1209.8</ele>
        <time>2017-07-22T13:50:52Z</time>
      </trkpt>
      <trkpt lat="42.4962" lon="2.237">
        <ele>1210.9</ele>
        <time>2017-07-22T13:50:59Z</time>
      </trkpt>
      <trkpt lat="42.49614" lon="2.23702">
        <ele>1211.9</ele>
        <time>2017-07-22T13:51:06Z</time>
      </trkpt>
      <trkpt lat="42.49609" lon="2.23705">
        <ele>1213</ele>
        <time>2017-07-22T13:51:13Z</time>
      </trkpt>
      <trkpt lat="42.49602" lon="2.23706">
        <ele>1214.3</ele>
        <time>2017-07-22T13:51:20Z</time>
      </trkpt>
      <trkpt lat="42.49598" lon="2.23707">
        <ele>1215.2</ele>
        <time>2017-07-22T13:51:27Z</time>
      </trkpt>
      <trkpt lat="42.49592" lon="2.2371">
        <ele>1216</ele>
        <time>2017-07-22T13:51:34Z</time>
      </trkpt>
      <trkpt lat="42.49587" lon="2.23713">
        <ele>1216.9</ele>
        <time>2017-07-22T13:51:41Z</time>
      </trkpt>
      <trkpt lat="42.49584" lon="2.23716">
        <ele>1217.7</ele>
        <time>2017-07-22T13:51:48Z</time>
      </trkpt>
      <trkpt lat="42.4958" lon="2.23716">
        <ele>1218.8</ele>
        <time>2017-07-22T13:51:55Z</time>
      </trkpt>
      <trkpt lat="42.49575" lon="2.23713">
        <ele>1220</ele>
        <time>2017-07-22T13:52:02Z</time>
      </trkpt>
      <trkpt lat="42.49571" lon="2.23716">
        <ele>1221.4</ele>
        <time>2017-07-22T13:52:09Z</time>
      </trkpt>
      <trkpt lat="42.49569" lon="2.23716">
        <ele>1221.7</ele>
        <time>2017-07-22T13:52:16Z</time>
      </trkpt>
      <trkpt lat="42.49569" lon="2.23716">
        <ele>1221.7</ele>
        <time>2017-07-22T13:52:18Z</time>
      </trkpt>
      <trkpt lat="42.49562" lon="2.23718">
        <ele>1223.4</ele>
        <time>2017-07-22T13:52:28Z</time>
      </trkpt>
      <trkpt lat="42.49558" lon="2.23715">
        <ele>1224.4</ele>
        <time>2017-07-22T13:52:35Z</time>
      </trkpt>
      <trkpt lat="42.49557" lon="2.23714">
        <ele>1224.7</ele>
        <time>2017-07-22T13:52:42Z</time>
      </trkpt>
      <trkpt lat="42.49557" lon="2.23714">
        <ele>1224.7</ele>
        <time>2017-07-22T13:52:44Z</time>
      </trkpt>
      <trkpt lat="42.49549" lon="2.23723">
        <ele>1227.7</ele>
        <time>2017-07-22T13:53:25Z</time>
      </trkpt>
      <trkpt lat="42.49545" lon="2.23725">
        <ele>1227.9</ele>
        <time>2017-07-22T13:53:32Z</time>
      </trkpt>
      <trkpt lat="42.49541" lon="2.23727">
        <ele>1228.3</ele>
        <time>2017-07-22T13:53:39Z</time>
      </trkpt>
      <trkpt lat="42.49538" lon="2.23734">
        <ele>1228.9</ele>
        <time>2017-07-22T13:53:46Z</time>
      </trkpt>
      <trkpt lat="42.49536" lon="2.23739">
        <ele>1229.3</ele>
        <time>2017-07-22T13:53:53Z</time>
      </trkpt>
      <trkpt lat="42.49537" lon="2.23739">
        <ele>1229.3</ele>
        <time>2017-07-22T13:54:00Z</time>
      </trkpt>
      <trkpt lat="42.49537" lon="2.23739">
        <ele>1229.3</ele>
        <time>2017-07-22T13:54:02Z</time>
      </trkpt>
      <trkpt lat="42.49531" lon="2.23731">
        <ele>1230.8</ele>
        <time>2017-07-22T13:54:45Z</time>
      </trkpt>
      <trkpt lat="42.49528" lon="2.23731">
        <ele>1231</ele>
        <time>2017-07-22T13:54:52Z</time>
      </trkpt>
      <trkpt lat="42.49524" lon="2.23741">
        <ele>1231.5</ele>
        <time>2017-07-22T13:54:59Z</time>
      </trkpt>
      <trkpt lat="42.49524" lon="2.23747">
        <ele>1232.8</ele>
        <time>2017-07-22T13:55:06Z</time>
      </trkpt>
      <trkpt lat="42.49519" lon="2.23746">
        <ele>1233.5</ele>
        <time>2017-07-22T13:55:13Z</time>
      </trkpt>
      <trkpt lat="42.49514" lon="2.23745">
        <ele>1234</ele>
        <time>2017-07-22T13:55:20Z</time>
      </trkpt>
      <trkpt lat="42.49511" lon="2.23745">
        <ele>1234.5</ele>
        <time>2017-07-22T13:55:27Z</time>
      </trkpt>
      <trkpt lat="42.4951" lon="2.23745">
        <ele>1234.6</ele>
        <time>2017-07-22T13:55:34Z</time>
      </trkpt>
      <trkpt lat="42.4951" lon="2.23745">
        <ele>1234.6</ele>
        <time>2017-07-22T13:55:35Z</time>
      </trkpt>
      <trkpt lat="42.4951" lon="2.23756">
        <ele>1237.6</ele>
        <time>2017-07-22T13:56:07Z</time>
      </trkpt>
      <trkpt lat="42.49508" lon="2.23756">
        <ele>1238.2</ele>
        <time>2017-07-22T13:56:14Z</time>
      </trkpt>
      <trkpt lat="42.49508" lon="2.23756">
        <ele>1238.2</ele>
        <time>2017-07-22T13:56:16Z</time>
      </trkpt>
      <trkpt lat="42.49501" lon="2.23753">
        <ele>1239.5</ele>
        <time>2017-07-22T13:56:42Z</time>
      </trkpt>
      <trkpt lat="42.49499" lon="2.23753">
        <ele>1239.6</ele>
        <time>2017-07-22T13:56:49Z</time>
      </trkpt>
      <trkpt lat="42.49499" lon="2.23753">
        <ele>1239.6</ele>
        <time>2017-07-22T13:56:54Z</time>
      </trkpt>
      <trkpt lat="42.49507" lon="2.23744">
        <ele>1240.7</ele>
        <time>2017-07-22T13:57:40Z</time>
      </trkpt>
      <trkpt lat="42.49506" lon="2.23742">
        <ele>1240.9</ele>
        <time>2017-07-22T13:57:47Z</time>
      </trkpt>
      <trkpt lat="42.49506" lon="2.23742">
        <ele>1240.9</ele>
        <time>2017-07-22T13:57:49Z</time>
      </trkpt>
      <trkpt lat="42.49505" lon="2.23754">
        <ele>1242</ele>
        <time>2017-07-22T13:58:15Z</time>
      </trkpt>
      <trkpt lat="42.49503" lon="2.23759">
        <ele>1242.1</ele>
        <time>2017-07-22T13:58:22Z</time>
      </trkpt>
      <trkpt lat="42.49503" lon="2.23759">
        <ele>1242.1</ele>
        <time>2017-07-22T13:58:28Z</time>
      </trkpt>
      <trkpt lat="42.49495" lon="2.23765">
        <ele>1241.7</ele>
        <time>2017-07-22T13:58:42Z</time>
      </trkpt>
      <trkpt lat="42.49495" lon="2.23766">
        <ele>1241.5</ele>
        <time>2017-07-22T13:58:49Z</time>
      </trkpt>
      <trkpt lat="42.49487" lon="2.23764">
        <ele>1241.4</ele>
        <time>2017-07-22T13:59:02Z</time>
      </trkpt>
      <trkpt lat="42.49483" lon="2.23766">
        <ele>1241.5</ele>
        <time>2017-07-22T13:59:09Z</time>
      </trkpt>
      <trkpt lat="42.49482" lon="2.23766">
        <ele>1241.9</ele>
        <time>2017-07-22T13:59:16Z</time>
      </trkpt>
      <trkpt lat="42.49482" lon="2.23766">
        <ele>1241.9</ele>
        <time>2017-07-22T13:59:18Z</time>
      </trkpt>
      <trkpt lat="42.4948" lon="2.23778">
        <ele>1242.6</ele>
        <time>2017-07-22T13:59:28Z</time>
      </trkpt>
      <trkpt lat="42.49477" lon="2.23782">
        <ele>1242.3</ele>
        <time>2017-07-22T13:59:35Z</time>
      </trkpt>
      <trkpt lat="42.49474" lon="2.23785">
        <ele>1242</ele>
        <time>2017-07-22T13:59:42Z</time>
      </trkpt>
      <trkpt lat="42.49468" lon="2.23788">
        <ele>1242</ele>
        <time>2017-07-22T13:59:49Z</time>
      </trkpt>
      <trkpt lat="42.49465" lon="2.2379">
        <ele>1242.1</ele>
        <time>2017-07-22T13:59:56Z</time>
      </trkpt>
      <trkpt lat="42.4946" lon="2.23791">
        <ele>1242.2</ele>
        <time>2017-07-22T14:00:03Z</time>
      </trkpt>
      <trkpt lat="42.49455" lon="2.23796">
        <ele>1242.6</ele>
        <time>2017-07-22T14:00:10Z</time>
      </trkpt>
      <trkpt lat="42.4945" lon="2.23803">
        <ele>1243.5</ele>
        <time>2017-07-22T14:00:17Z</time>
      </trkpt>
      <trkpt lat="42.49446" lon="2.2381">
        <ele>1244</ele>
        <time>2017-07-22T14:00:24Z</time>
      </trkpt>
      <trkpt lat="42.49444" lon="2.23817">
        <ele>1244.8</ele>
        <time>2017-07-22T14:00:31Z</time>
      </trkpt>
      <trkpt lat="42.49441" lon="2.23823">
        <ele>1244.7</ele>
        <time>2017-07-22T14:00:38Z</time>
      </trkpt>
      <trkpt lat="42.49441" lon="2.2383">
        <ele>1244.9</ele>
        <time>2017-07-22T14:00:45Z</time>
      </trkpt>
      <trkpt lat="42.49436" lon="2.23833">
        <ele>1244.7</ele>
        <time>2017-07-22T14:00:52Z</time>
      </trkpt>
      <trkpt lat="42.49432" lon="2.23834">
        <ele>1244.3</ele>
        <time>2017-07-22T14:00:59Z</time>
      </trkpt>
      <trkpt lat="42.49428" lon="2.23839">
        <ele>1244.5</ele>
        <time>2017-07-22T14:01:06Z</time>
      </trkpt>
      <trkpt lat="42.49427" lon="2.23845">
        <ele>1244.7</ele>
        <time>2017-07-22T14:01:13Z</time>
      </trkpt>
      <trkpt lat="42.49425" lon="2.23852">
        <ele>1245.4</ele>
        <time>2017-07-22T14:01:20Z</time>
      </trkpt>
      <trkpt lat="42.49421" lon="2.23861">
        <ele>1246.3</ele>
        <time>2017-07-22T14:01:27Z</time>
      </trkpt>
      <trkpt lat="42.49419" lon="2.23866">
        <ele>1247</ele>
        <time>2017-07-22T14:01:34Z</time>
      </trkpt>
      <trkpt lat="42.49416" lon="2.2387">
        <ele>1248.1</ele>
        <time>2017-07-22T14:01:41Z</time>
      </trkpt>
      <trkpt lat="42.49411" lon="2.23873">
        <ele>1248.5</ele>
        <time>2017-07-22T14:01:48Z</time>
      </trkpt>
      <trkpt lat="42.49406" lon="2.23877">
        <ele>1249.2</ele>
        <time>2017-07-22T14:01:55Z</time>
      </trkpt>
      <trkpt lat="42.49401" lon="2.2388">
        <ele>1249.9</ele>
        <time>2017-07-22T14:02:02Z</time>
      </trkpt>
      <trkpt lat="42.49394" lon="2.23882">
        <ele>1250.7</ele>
        <time>2017-07-22T14:02:09Z</time>
      </trkpt>
      <trkpt lat="42.4939" lon="2.23884">
        <ele>1251.4</ele>
        <time>2017-07-22T14:02:16Z</time>
      </trkpt>
      <trkpt lat="42.49387" lon="2.23888">
        <ele>1252.4</ele>
        <time>2017-07-22T14:02:23Z</time>
      </trkpt>
      <trkpt lat="42.49384" lon="2.23895">
        <ele>1253</ele>
        <time>2017-07-22T14:02:30Z</time>
      </trkpt>
      <trkpt lat="42.4938" lon="2.239">
        <ele>1253.6</ele>
        <time>2017-07-22T14:02:37Z</time>
      </trkpt>
      <trkpt lat="42.49375" lon="2.23902">
        <ele>1254</ele>
        <time>2017-07-22T14:02:44Z</time>
      </trkpt>
      <trkpt lat="42.4937" lon="2.23902">
        <ele>1254.5</ele>
        <time>2017-07-22T14:02:51Z</time>
      </trkpt>
      <trkpt lat="42.49365" lon="2.23908">
        <ele>1255.8</ele>
        <time>2017-07-22T14:02:58Z</time>
      </trkpt>
      <trkpt lat="42.49361" lon="2.23912">
        <ele>1256.8</ele>
        <time>2017-07-22T14:03:05Z</time>
      </trkpt>
      <trkpt lat="42.49357" lon="2.23916">
        <ele>1257.4</ele>
        <time>2017-07-22T14:03:12Z</time>
      </trkpt>
      <trkpt lat="42.49353" lon="2.23919">
        <ele>1258.3</ele>
        <time>2017-07-22T14:03:19Z</time>
      </trkpt>
      <trkpt lat="42.49349" lon="2.23923">
        <ele>1259.1</ele>
        <time>2017-07-22T14:03:26Z</time>
      </trkpt>
      <trkpt lat="42.49343" lon="2.23924">
        <ele>1260</ele>
        <time>2017-07-22T14:03:33Z</time>
      </trkpt>
      <trkpt lat="42.49336" lon="2.23923">
        <ele>1261.5</ele>
        <time>2017-07-22T14:03:40Z</time>
      </trkpt>
      <trkpt lat="42.49331" lon="2.23924">
        <ele>1262.5</ele>
        <time>2017-07-22T14:03:47Z</time>
      </trkpt>
      <trkpt lat="42.49326" lon="2.23927">
        <ele>1263.4</ele>
        <time>2017-07-22T14:03:54Z</time>
      </trkpt>
      <trkpt lat="42.4932" lon="2.23923">
        <ele>1264.3</ele>
        <time>2017-07-22T14:04:01Z</time>
      </trkpt>
      <trkpt lat="42.49313" lon="2.23918">
        <ele>1265.1</ele>
        <time>2017-07-22T14:04:08Z</time>
      </trkpt>
      <trkpt lat="42.49311" lon="2.23916">
        <ele>1266.1</ele>
        <time>2017-07-22T14:04:15Z</time>
      </trkpt>
      <trkpt lat="42.49306" lon="2.23918">
        <ele>1266.8</ele>
        <time>2017-07-22T14:04:22Z</time>
      </trkpt>
      <trkpt lat="42.493" lon="2.23917">
        <ele>1267.3</ele>
        <time>2017-07-22T14:04:29Z</time>
      </trkpt>
      <trkpt lat="42.49294" lon="2.23915">
        <ele>1268</ele>
        <time>2017-07-22T14:04:36Z</time>
      </trkpt>
      <trkpt lat="42.49287" lon="2.23911">
        <ele>1268.9</ele>
        <time>2017-07-22T14:04:43Z</time>
      </trkpt>
      <trkpt lat="42.49279" lon="2.23906">
        <ele>1269.8</ele>
        <time>2017-07-22T14:04:50Z</time>
      </trkpt>
      <trkpt lat="42.49273" lon="2.23906">
        <ele>1270.5</ele>
        <time>2017-07-22T14:04:57Z</time>
      </trkpt>
      <trkpt lat="42.49268" lon="2.23906">
        <ele>1271.2</ele>
        <time>2017-07-22T14:05:04Z</time>
      </trkpt>
      <trkpt lat="42.49268" lon="2.23906">
        <ele>1271.7</ele>
        <time>2017-07-22T14:05:11Z</time>
      </trkpt>
      <trkpt lat="42.49261" lon="2.23906">
        <ele>1272.3</ele>
        <time>2017-07-22T14:05:18Z</time>
      </trkpt>
      <trkpt lat="42.49258" lon="2.23907">
        <ele>1272.7</ele>
        <time>2017-07-22T14:05:25Z</time>
      </trkpt>
      <trkpt lat="42.49258" lon="2.23907">
        <ele>1272.7</ele>
        <time>2017-07-22T14:05:28Z</time>
      </trkpt>
      <trkpt lat="42.49258" lon="2.2392">
        <ele>1276</ele>
        <time>2017-07-22T14:06:00Z</time>
      </trkpt>
      <trkpt lat="42.49257" lon="2.23923">
        <ele>1276.5</ele>
        <time>2017-07-22T14:06:07Z</time>
      </trkpt>
      <trkpt lat="42.49257" lon="2.23923">
        <ele>1276.5</ele>
        <time>2017-07-22T14:06:09Z</time>
      </trkpt>
      <trkpt lat="42.49266" lon="2.23926">
        <ele>1288</ele>
        <time>2017-07-22T14:07:22Z</time>
      </trkpt>
      <trkpt lat="42.49264" lon="2.23923">
        <ele>1289</ele>
        <time>2017-07-22T14:07:29Z</time>
      </trkpt>
      <trkpt lat="42.49259" lon="2.23919">
        <ele>1289.1</ele>
        <time>2017-07-22T14:07:36Z</time>
      </trkpt>
      <trkpt lat="42.49258" lon="2.23917">
        <ele>1289.3</ele>
        <time>2017-07-22T14:07:43Z</time>
      </trkpt>
      <trkpt lat="42.49256" lon="2.23913">
        <ele>1289.2</ele>
        <time>2017-07-22T14:07:50Z</time>
      </trkpt>
      <trkpt lat="42.49255" lon="2.23903">
        <ele>1289.6</ele>
        <time>2017-07-22T14:07:57Z</time>
      </trkpt>
      <trkpt lat="42.49254" lon="2.23901">
        <ele>1289.6</ele>
        <time>2017-07-22T14:08:04Z</time>
      </trkpt>
      <trkpt lat="42.49255" lon="2.23896">
        <ele>1290.1</ele>
        <time>2017-07-22T14:08:11Z</time>
      </trkpt>
      <trkpt lat="42.49251" lon="2.23891">
        <ele>1290.1</ele>
        <time>2017-07-22T14:08:18Z</time>
      </trkpt>
      <trkpt lat="42.49248" lon="2.23892">
        <ele>1290.5</ele>
        <time>2017-07-22T14:08:25Z</time>
      </trkpt>
      <trkpt lat="42.49248" lon="2.23892">
        <ele>1290.5</ele>
        <time>2017-07-22T14:08:31Z</time>
      </trkpt>
      <trkpt lat="42.49241" lon="2.23892">
        <ele>1291.5</ele>
        <time>2017-07-22T14:08:42Z</time>
      </trkpt>
      <trkpt lat="42.49238" lon="2.23888">
        <ele>1291.5</ele>
        <time>2017-07-22T14:08:49Z</time>
      </trkpt>
      <trkpt lat="42.49234" lon="2.23886">
        <ele>1291.3</ele>
        <time>2017-07-22T14:08:56Z</time>
      </trkpt>
      <trkpt lat="42.49234" lon="2.23886">
        <ele>1291.5</ele>
        <time>2017-07-22T14:09:03Z</time>
      </trkpt>
      <trkpt lat="42.49234" lon="2.23886">
        <ele>1291.5</ele>
        <time>2017-07-22T14:09:06Z</time>
      </trkpt>
      <trkpt lat="42.49228" lon="2.23881">
        <ele>1292.6</ele>
        <time>2017-07-22T14:09:17Z</time>
      </trkpt>
      <trkpt lat="42.49222" lon="2.23882">
        <ele>1292.9</ele>
        <time>2017-07-22T14:09:24Z</time>
      </trkpt>
      <trkpt lat="42.49219" lon="2.23884">
        <ele>1293</ele>
        <time>2017-07-22T14:09:31Z</time>
      </trkpt>
      <trkpt lat="42.49218" lon="2.23884">
        <ele>1293</ele>
        <time>2017-07-22T14:09:38Z</time>
      </trkpt>
      <trkpt lat="42.49218" lon="2.23884">
        <ele>1293</ele>
        <time>2017-07-22T14:09:39Z</time>
      </trkpt>
      <trkpt lat="42.49213" lon="2.23895">
        <ele>1293.5</ele>
        <time>2017-07-22T14:09:46Z</time>
      </trkpt>
      <trkpt lat="42.49208" lon="2.23904">
        <ele>1293.5</ele>
        <time>2017-07-22T14:09:53Z</time>
      </trkpt>
      <trkpt lat="42.49202" lon="2.23909">
        <ele>1293.8</ele>
        <time>2017-07-22T14:10:00Z</time>
      </trkpt>
      <trkpt lat="42.49196" lon="2.23908">
        <ele>1294.2</ele>
        <time>2017-07-22T14:10:07Z</time>
      </trkpt>
      <trkpt lat="42.49192" lon="2.23905">
        <ele>1294.3</ele>
        <time>2017-07-22T14:10:14Z</time>
      </trkpt>
      <trkpt lat="42.49187" lon="2.23901">
        <ele>1294.5</ele>
        <time>2017-07-22T14:10:21Z</time>
      </trkpt>
      <trkpt lat="42.49183" lon="2.23896">
        <ele>1294.7</ele>
        <time>2017-07-22T14:10:28Z</time>
      </trkpt>
      <trkpt lat="42.49177" lon="2.2389">
        <ele>1295.2</ele>
        <time>2017-07-22T14:10:35Z</time>
      </trkpt>
      <trkpt lat="42.49173" lon="2.23887">
        <ele>1295.4</ele>
        <time>2017-07-22T14:10:42Z</time>
      </trkpt>
      <trkpt lat="42.49167" lon="2.23886">
        <ele>1295.8</ele>
        <time>2017-07-22T14:10:49Z</time>
      </trkpt>
      <trkpt lat="42.49164" lon="2.23886">
        <ele>1296.2</ele>
        <time>2017-07-22T14:10:56Z</time>
      </trkpt>
      <trkpt lat="42.49157" lon="2.23887">
        <ele>1296.5</ele>
        <time>2017-07-22T14:11:03Z</time>
      </trkpt>
      <trkpt lat="42.49151" lon="2.23887">
        <ele>1297</ele>
        <time>2017-07-22T14:11:10Z</time>
      </trkpt>
      <trkpt lat="42.49144" lon="2.2389">
        <ele>1297.1</ele>
        <time>2017-07-22T14:11:17Z</time>
      </trkpt>
      <trkpt lat="42.4914" lon="2.23892">
        <ele>1297.2</ele>
        <time>2017-07-22T14:11:24Z</time>
      </trkpt>
      <trkpt lat="42.49136" lon="2.23894">
        <ele>1297.6</ele>
        <time>2017-07-22T14:11:31Z</time>
      </trkpt>
      <trkpt lat="42.49129" lon="2.23898">
        <ele>1298.3</ele>
        <time>2017-07-22T14:11:38Z</time>
      </trkpt>
      <trkpt lat="42.49126" lon="2.23903">
        <ele>1298.8</ele>
        <time>2017-07-22T14:11:45Z</time>
      </trkpt>
      <trkpt lat="42.49123" lon="2.23909">
        <ele>1300</ele>
        <time>2017-07-22T14:11:52Z</time>
      </trkpt>
      <trkpt lat="42.49121" lon="2.23911">
        <ele>1300.6</ele>
        <time>2017-07-22T14:11:59Z</time>
      </trkpt>
      <trkpt lat="42.49121" lon="2.23911">
        <ele>1300.6</ele>
        <time>2017-07-22T14:12:02Z</time>
      </trkpt>
      <trkpt lat="42.49113" lon="2.23916">
        <ele>1301.7</ele>
        <time>2017-07-22T14:12:15Z</time>
      </trkpt>
      <trkpt lat="42.49111" lon="2.23918">
        <ele>1301.9</ele>
        <time>2017-07-22T14:12:22Z</time>
      </trkpt>
      <trkpt lat="42.49107" lon="2.23922">
        <ele>1302.2</ele>
        <time>2017-07-22T14:12:29Z</time>
      </trkpt>
      <trkpt lat="42.49103" lon="2.23927">
        <ele>1302.4</ele>
        <time>2017-07-22T14:12:36Z</time>
      </trkpt>
      <trkpt lat="42.49099" lon="2.23932">
        <ele>1303</ele>
        <time>2017-07-22T14:12:43Z</time>
      </trkpt>
      <trkpt lat="42.49097" lon="2.23934">
        <ele>1303.6</ele>
        <time>2017-07-22T14:12:50Z</time>
      </trkpt>
      <trkpt lat="42.49092" lon="2.2394">
        <ele>1304.1</ele>
        <time>2017-07-22T14:12:57Z</time>
      </trkpt>
      <trkpt lat="42.49089" lon="2.23944">
        <ele>1304.5</ele>
        <time>2017-07-22T14:13:04Z</time>
      </trkpt>
      <trkpt lat="42.49083" lon="2.2395">
        <ele>1305.3</ele>
        <time>2017-07-22T14:13:11Z</time>
      </trkpt>
      <trkpt lat="42.49081" lon="2.2395">
        <ele>1306.1</ele>
        <time>2017-07-22T14:13:18Z</time>
      </trkpt>
      <trkpt lat="42.49076" lon="2.23957">
        <ele>1306.9</ele>
        <time>2017-07-22T14:13:25Z</time>
      </trkpt>
      <trkpt lat="42.49071" lon="2.23962">
        <ele>1307.6</ele>
        <time>2017-07-22T14:13:32Z</time>
      </trkpt>
      <trkpt lat="42.49068" lon="2.23966">
        <ele>1308.3</ele>
        <time>2017-07-22T14:13:39Z</time>
      </trkpt>
      <trkpt lat="42.49066" lon="2.23968">
        <ele>1309</ele>
        <time>2017-07-22T14:13:46Z</time>
      </trkpt>
      <trkpt lat="42.49058" lon="2.23967">
        <ele>1309.6</ele>
        <time>2017-07-22T14:13:53Z</time>
      </trkpt>
      <trkpt lat="42.49053" lon="2.2397">
        <ele>1310.9</ele>
        <time>2017-07-22T14:14:00Z</time>
      </trkpt>
      <trkpt lat="42.49046" lon="2.23971">
        <ele>1312</ele>
        <time>2017-07-22T14:14:07Z</time>
      </trkpt>
      <trkpt lat="42.4904" lon="2.23968">
        <ele>1312.8</ele>
        <time>2017-07-22T14:14:14Z</time>
      </trkpt>
      <trkpt lat="42.49037" lon="2.23968">
        <ele>1314.1</ele>
        <time>2017-07-22T14:14:21Z</time>
      </trkpt>
      <trkpt lat="42.49031" lon="2.23969">
        <ele>1315.2</ele>
        <time>2017-07-22T14:14:28Z</time>
      </trkpt>
      <trkpt lat="42.49028" lon="2.23969">
        <ele>1316</ele>
        <time>2017-07-22T14:14:36Z</time>
      </trkpt>
      <trkpt lat="42.49023" lon="2.23969">
        <ele>1317.2</ele>
        <time>2017-07-22T14:14:42Z</time>
      </trkpt>
      <trkpt lat="42.49019" lon="2.23967">
        <ele>1318.2</ele>
        <time>2017-07-22T14:14:49Z</time>
      </trkpt>
      <trkpt lat="42.49014" lon="2.23968">
        <ele>1319.2</ele>
        <time>2017-07-22T14:14:56Z</time>
      </trkpt>
      <trkpt lat="42.49009" lon="2.23963">
        <ele>1320.2</ele>
        <time>2017-07-22T14:15:03Z</time>
      </trkpt>
      <trkpt lat="42.49006" lon="2.2396">
        <ele>1321.2</ele>
        <time>2017-07-22T14:15:10Z</time>
      </trkpt>
      <trkpt lat="42.49002" lon="2.23955">
        <ele>1321.8</ele>
        <time>2017-07-22T14:15:17Z</time>
      </trkpt>
      <trkpt lat="42.48997" lon="2.2395">
        <ele>1322.5</ele>
        <time>2017-07-22T14:15:24Z</time>
      </trkpt>
      <trkpt lat="42.48991" lon="2.23944">
        <ele>1323.3</ele>
        <time>2017-07-22T14:15:31Z</time>
      </trkpt>
      <trkpt lat="42.48986" lon="2.23942">
        <ele>1324.4</ele>
        <time>2017-07-22T14:15:38Z</time>
      </trkpt>
      <trkpt lat="42.48981" lon="2.23936">
        <ele>1325.6</ele>
        <time>2017-07-22T14:15:45Z</time>
      </trkpt>
      <trkpt lat="42.48977" lon="2.23931">
        <ele>1326.6</ele>
        <time>2017-07-22T14:15:52Z</time>
      </trkpt>
      <trkpt lat="42.48971" lon="2.23927">
        <ele>1327</ele>
        <time>2017-07-22T14:15:59Z</time>
      </trkpt>
      <trkpt lat="42.48968" lon="2.23925">
        <ele>1327.8</ele>
        <time>2017-07-22T14:16:06Z</time>
      </trkpt>
      <trkpt lat="42.4896" lon="2.23926">
        <ele>1328.5</ele>
        <time>2017-07-22T14:16:13Z</time>
      </trkpt>
      <trkpt lat="42.48955" lon="2.23924">
        <ele>1329.4</ele>
        <time>2017-07-22T14:16:20Z</time>
      </trkpt>
      <trkpt lat="42.48951" lon="2.23924">
        <ele>1330.2</ele>
        <time>2017-07-22T14:16:27Z</time>
      </trkpt>
      <trkpt lat="42.48945" lon="2.23925">
        <ele>1331.2</ele>
        <time>2017-07-22T14:16:34Z</time>
      </trkpt>
      <trkpt lat="42.48939" lon="2.23922">
        <ele>1332</ele>
        <time>2017-07-22T14:16:41Z</time>
      </trkpt>
      <trkpt lat="42.48935" lon="2.23918">
        <ele>1332.9</ele>
        <time>2017-07-22T14:16:48Z</time>
      </trkpt>
      <trkpt lat="42.48932" lon="2.23915">
        <ele>1333.6</ele>
        <time>2017-07-22T14:16:55Z</time>
      </trkpt>
      <trkpt lat="42.48931" lon="2.23913">
        <ele>1334.3</ele>
        <time>2017-07-22T14:17:02Z</time>
      </trkpt>
      <trkpt lat="42.48931" lon="2.23913">
        <ele>1334.4</ele>
        <time>2017-07-22T14:17:09Z</time>
      </trkpt>
      <trkpt lat="42.48931" lon="2.23913">
        <ele>1334.4</ele>
        <time>2017-07-22T14:17:10Z</time>
      </trkpt>
      <trkpt lat="42.48928" lon="2.23903">
        <ele>1336.7</ele>
        <time>2017-07-22T14:17:25Z</time>
      </trkpt>
      <trkpt lat="42.48926" lon="2.23903">
        <ele>1336.8</ele>
        <time>2017-07-22T14:17:32Z</time>
      </trkpt>
      <trkpt lat="42.48924" lon="2.23895">
        <ele>1337.2</ele>
        <time>2017-07-22T14:17:39Z</time>
      </trkpt>
      <trkpt lat="42.48923" lon="2.23889">
        <ele>1337.8</ele>
        <time>2017-07-22T14:17:46Z</time>
      </trkpt>
      <trkpt lat="42.48919" lon="2.23886">
        <ele>1338</ele>
        <time>2017-07-22T14:17:53Z</time>
      </trkpt>
      <trkpt lat="42.48916" lon="2.23883">
        <ele>1338.4</ele>
        <time>2017-07-22T14:18:00Z</time>
      </trkpt>
      <trkpt lat="42.48913" lon="2.23873">
        <ele>1338.8</ele>
        <time>2017-07-22T14:18:07Z</time>
      </trkpt>
      <trkpt lat="42.48907" lon="2.23871">
        <ele>1339.1</ele>
        <time>2017-07-22T14:18:14Z</time>
      </trkpt>
      <trkpt lat="42.48906" lon="2.23864">
        <ele>1339.5</ele>
        <time>2017-07-22T14:18:21Z</time>
      </trkpt>
      <trkpt lat="42.48904" lon="2.23859">
        <ele>1340.5</ele>
        <time>2017-07-22T14:18:28Z</time>
      </trkpt>
      <trkpt lat="42.489" lon="2.2386">
        <ele>1340.9</ele>
        <time>2017-07-22T14:18:35Z</time>
      </trkpt>
      <trkpt lat="42.489" lon="2.2386">
        <ele>1340.9</ele>
        <time>2017-07-22T14:18:39Z</time>
      </trkpt>
      <trkpt lat="42.48895" lon="2.23852">
        <ele>1343.1</ele>
        <time>2017-07-22T14:18:46Z</time>
      </trkpt>
      <trkpt lat="42.48891" lon="2.23851">
        <ele>1344.1</ele>
        <time>2017-07-22T14:18:53Z</time>
      </trkpt>
      <trkpt lat="42.48888" lon="2.23848">
        <ele>1345.1</ele>
        <time>2017-07-22T14:19:00Z</time>
      </trkpt>
      <trkpt lat="42.48884" lon="2.23844">
        <ele>1345.7</ele>
        <time>2017-07-22T14:19:07Z</time>
      </trkpt>
      <trkpt lat="42.48879" lon="2.23844">
        <ele>1346.3</ele>
        <time>2017-07-22T14:19:14Z</time>
      </trkpt>
      <trkpt lat="42.48876" lon="2.23842">
        <ele>1346.8</ele>
        <time>2017-07-22T14:19:21Z</time>
      </trkpt>
      <trkpt lat="42.48876" lon="2.23833">
        <ele>1347.7</ele>
        <time>2017-07-22T14:19:28Z</time>
      </trkpt>
      <trkpt lat="42.48872" lon="2.2383">
        <ele>1348.5</ele>
        <time>2017-07-22T14:19:35Z</time>
      </trkpt>
      <trkpt lat="42.48867" lon="2.23824">
        <ele>1349.5</ele>
        <time>2017-07-22T14:19:42Z</time>
      </trkpt>
      <trkpt lat="42.48864" lon="2.23819">
        <ele>1350.4</ele>
        <time>2017-07-22T14:19:49Z</time>
      </trkpt>
      <trkpt lat="42.48859" lon="2.23817">
        <ele>1351.5</ele>
        <time>2017-07-22T14:19:56Z</time>
      </trkpt>
      <trkpt lat="42.48856" lon="2.23819">
        <ele>1352.3</ele>
        <time>2017-07-22T14:20:03Z</time>
      </trkpt>
      <trkpt lat="42.48851" lon="2.23817">
        <ele>1352.7</ele>
        <time>2017-07-22T14:20:10Z</time>
      </trkpt>
      <trkpt lat="42.48848" lon="2.23813">
        <ele>1353.7</ele>
        <time>2017-07-22T14:20:17Z</time>
      </trkpt>
      <trkpt lat="42.48846" lon="2.23809">
        <ele>1354.8</ele>
        <time>2017-07-22T14:20:24Z</time>
      </trkpt>
      <trkpt lat="42.48842" lon="2.23808">
        <ele>1356.1</ele>
        <time>2017-07-22T14:20:31Z</time>
      </trkpt>
      <trkpt lat="42.48839" lon="2.23801">
        <ele>1357.3</ele>
        <time>2017-07-22T14:20:38Z</time>
      </trkpt>
      <trkpt lat="42.48833" lon="2.23803">
        <ele>1357.9</ele>
        <time>2017-07-22T14:20:45Z</time>
      </trkpt>
      <trkpt lat="42.48833" lon="2.23799">
        <ele>1358.8</ele>
        <time>2017-07-22T14:20:52Z</time>
      </trkpt>
      <trkpt lat="42.48833" lon="2.23799">
        <ele>1358.8</ele>
        <time>2017-07-22T14:20:59Z</time>
      </trkpt>
      <trkpt lat="42.48825" lon="2.23804">
        <ele>1360.6</ele>
        <time>2017-07-22T14:21:05Z</time>
      </trkpt>
      <trkpt lat="42.48819" lon="2.23801">
        <ele>1362</ele>
        <time>2017-07-22T14:21:12Z</time>
      </trkpt>
      <trkpt lat="42.48814" lon="2.23801">
        <ele>1364.2</ele>
        <time>2017-07-22T14:21:19Z</time>
      </trkpt>
      <trkpt lat="42.48808" lon="2.23801">
        <ele>1365.7</ele>
        <time>2017-07-22T14:21:26Z</time>
      </trkpt>
      <trkpt lat="42.48805" lon="2.23796">
        <ele>1367.7</ele>
        <time>2017-07-22T14:21:33Z</time>
      </trkpt>
      <trkpt lat="42.48798" lon="2.23795">
        <ele>1369.6</ele>
        <time>2017-07-22T14:21:40Z</time>
      </trkpt>
      <trkpt lat="42.48792" lon="2.23792">
        <ele>1371.2</ele>
        <time>2017-07-22T14:21:47Z</time>
      </trkpt>
      <trkpt lat="42.48788" lon="2.2379">
        <ele>1372.7</ele>
        <time>2017-07-22T14:21:54Z</time>
      </trkpt>
      <trkpt lat="42.48781" lon="2.23788">
        <ele>1374.2</ele>
        <time>2017-07-22T14:22:02Z</time>
      </trkpt>
      <trkpt lat="42.48774" lon="2.2379">
        <ele>1375.7</ele>
        <time>2017-07-22T14:22:08Z</time>
      </trkpt>
      <trkpt lat="42.48772" lon="2.23792">
        <ele>1377.1</ele>
        <time>2017-07-22T14:22:15Z</time>
      </trkpt>
      <trkpt lat="42.48766" lon="2.23795">
        <ele>1378.6</ele>
        <time>2017-07-22T14:22:22Z</time>
      </trkpt>
      <trkpt lat="42.4876" lon="2.23796">
        <ele>1379.8</ele>
        <time>2017-07-22T14:22:29Z</time>
      </trkpt>
      <trkpt lat="42.48756" lon="2.238">
        <ele>1381.2</ele>
        <time>2017-07-22T14:22:37Z</time>
      </trkpt>
      <trkpt lat="42.48755" lon="2.23798">
        <ele>1382.5</ele>
        <time>2017-07-22T14:22:43Z</time>
      </trkpt>
      <trkpt lat="42.48753" lon="2.23799">
        <ele>1383.4</ele>
        <time>2017-07-22T14:22:50Z</time>
      </trkpt>
      <trkpt lat="42.48753" lon="2.23799">
        <ele>1383.4</ele>
        <time>2017-07-22T14:22:55Z</time>
      </trkpt>
      <trkpt lat="42.48748" lon="2.23805">
        <ele>1385.3</ele>
        <time>2017-07-22T14:23:08Z</time>
      </trkpt>
      <trkpt lat="42.48742" lon="2.23811">
        <ele>1385.9</ele>
        <time>2017-07-22T14:23:15Z</time>
      </trkpt>
      <trkpt lat="42.48739" lon="2.23814">
        <ele>1386.4</ele>
        <time>2017-07-22T14:23:22Z</time>
      </trkpt>
      <trkpt lat="42.48736" lon="2.23818">
        <ele>1386.7</ele>
        <time>2017-07-22T14:23:29Z</time>
      </trkpt>
      <trkpt lat="42.48736" lon="2.23818">
        <ele>1386.9</ele>
        <time>2017-07-22T14:23:35Z</time>
      </trkpt>
      <trkpt lat="42.48733" lon="2.23819">
        <ele>1387.9</ele>
        <time>2017-07-22T14:23:42Z</time>
      </trkpt>
      <trkpt lat="42.48727" lon="2.23826">
        <ele>1388.2</ele>
        <time>2017-07-22T14:23:48Z</time>
      </trkpt>
      <trkpt lat="42.48722" lon="2.23823">
        <ele>1388.6</ele>
        <time>2017-07-22T14:23:55Z</time>
      </trkpt>
      <trkpt lat="42.48718" lon="2.23823">
        <ele>1389.1</ele>
        <time>2017-07-22T14:24:02Z</time>
      </trkpt>
      <trkpt lat="42.48715" lon="2.23823">
        <ele>1389.5</ele>
        <time>2017-07-22T14:24:09Z</time>
      </trkpt>
      <trkpt lat="42.4871" lon="2.23824">
        <ele>1390.1</ele>
        <time>2017-07-22T14:24:16Z</time>
      </trkpt>
      <trkpt lat="42.48704" lon="2.23825">
        <ele>1390.8</ele>
        <time>2017-07-22T14:24:23Z</time>
      </trkpt>
      <trkpt lat="42.48701" lon="2.23826">
        <ele>1391.4</ele>
        <time>2017-07-22T14:24:30Z</time>
      </trkpt>
      <trkpt lat="42.48701" lon="2.23826">
        <ele>1391.4</ele>
        <time>2017-07-22T14:24:36Z</time>
      </trkpt>
      <trkpt lat="42.48693" lon="2.23827">
        <ele>1392.4</ele>
        <time>2017-07-22T14:24:44Z</time>
      </trkpt>
      <trkpt lat="42.48689" lon="2.2383">
        <ele>1392.6</ele>
        <time>2017-07-22T14:24:51Z</time>
      </trkpt>
      <trkpt lat="42.48684" lon="2.23832">
        <ele>1392.5</ele>
        <time>2017-07-22T14:24:58Z</time>
      </trkpt>
      <trkpt lat="42.4868" lon="2.23832">
        <ele>1393.1</ele>
        <time>2017-07-22T14:25:05Z</time>
      </trkpt>
      <trkpt lat="42.48673" lon="2.23836">
        <ele>1393</ele>
        <time>2017-07-22T14:25:10Z</time>
      </trkpt>
      <trkpt lat="42.48667" lon="2.23834">
        <ele>1393.4</ele>
        <time>2017-07-22T14:25:17Z</time>
      </trkpt>
      <trkpt lat="42.48663" lon="2.23831">
        <ele>1393.4</ele>
        <time>2017-07-22T14:25:24Z</time>
      </trkpt>
      <trkpt lat="42.48656" lon="2.23831">
        <ele>1393.8</ele>
        <time>2017-07-22T14:25:31Z</time>
      </trkpt>
      <trkpt lat="42.48651" lon="2.23828">
        <ele>1394.4</ele>
        <time>2017-07-22T14:25:38Z</time>
      </trkpt>
      <trkpt lat="42.48646" lon="2.23824">
        <ele>1395</ele>
        <time>2017-07-22T14:25:45Z</time>
      </trkpt>
      <trkpt lat="42.48642" lon="2.23822">
        <ele>1395.8</ele>
        <time>2017-07-22T14:25:52Z</time>
      </trkpt>
      <trkpt lat="42.48639" lon="2.23818">
        <ele>1396.2</ele>
        <time>2017-07-22T14:25:59Z</time>
      </trkpt>
      <trkpt lat="42.48632" lon="2.23814">
        <ele>1396.3</ele>
        <time>2017-07-22T14:26:06Z</time>
      </trkpt>
      <trkpt lat="42.48628" lon="2.23818">
        <ele>1396.9</ele>
        <time>2017-07-22T14:26:13Z</time>
      </trkpt>
      <trkpt lat="42.48624" lon="2.23819">
        <ele>1397.7</ele>
        <time>2017-07-22T14:26:20Z</time>
      </trkpt>
      <trkpt lat="42.4862" lon="2.23816">
        <ele>1398.3</ele>
        <time>2017-07-22T14:26:27Z</time>
      </trkpt>
      <trkpt lat="42.48616" lon="2.23816">
        <ele>1398.9</ele>
        <time>2017-07-22T14:26:34Z</time>
      </trkpt>
      <trkpt lat="42.48612" lon="2.23812">
        <ele>1399.3</ele>
        <time>2017-07-22T14:26:41Z</time>
      </trkpt>
      <trkpt lat="42.48608" lon="2.2381">
        <ele>1399.6</ele>
        <time>2017-07-22T14:26:48Z</time>
      </trkpt>
      <trkpt lat="42.48603" lon="2.23817">
        <ele>1400.2</ele>
        <time>2017-07-22T14:26:55Z</time>
      </trkpt>
      <trkpt lat="42.48598" lon="2.23816">
        <ele>1400.7</ele>
        <time>2017-07-22T14:27:02Z</time>
      </trkpt>
      <trkpt lat="42.48592" lon="2.23818">
        <ele>1401.1</ele>
        <time>2017-07-22T14:27:09Z</time>
      </trkpt>
      <trkpt lat="42.48589" lon="2.23818">
        <ele>1401.6</ele>
        <time>2017-07-22T14:27:16Z</time>
      </trkpt>
      <trkpt lat="42.48588" lon="2.23819">
        <ele>1402</ele>
        <time>2017-07-22T14:27:23Z</time>
      </trkpt>
      <trkpt lat="42.4858" lon="2.23821">
        <ele>1403.1</ele>
        <time>2017-07-22T14:27:30Z</time>
      </trkpt>
      <trkpt lat="42.48576" lon="2.23822">
        <ele>1403.7</ele>
        <time>2017-07-22T14:27:37Z</time>
      </trkpt>
      <trkpt lat="42.48573" lon="2.23822">
        <ele>1404.1</ele>
        <time>2017-07-22T14:27:44Z</time>
      </trkpt>
      <trkpt lat="42.4857" lon="2.23822">
        <ele>1404.6</ele>
        <time>2017-07-22T14:27:51Z</time>
      </trkpt>
      <trkpt lat="42.48567" lon="2.23823">
        <ele>1405</ele>
        <time>2017-07-22T14:27:58Z</time>
      </trkpt>
      <trkpt lat="42.48563" lon="2.23826">
        <ele>1405.2</ele>
        <time>2017-07-22T14:28:05Z</time>
      </trkpt>
      <trkpt lat="42.48559" lon="2.23824">
        <ele>1405.7</ele>
        <time>2017-07-22T14:28:12Z</time>
      </trkpt>
      <trkpt lat="42.48558" lon="2.23822">
        <ele>1406.3</ele>
        <time>2017-07-22T14:28:19Z</time>
      </trkpt>
      <trkpt lat="42.48558" lon="2.23822">
        <ele>1406.3</ele>
        <time>2017-07-22T14:28:24Z</time>
      </trkpt>
      <trkpt lat="42.48551" lon="2.23823">
        <ele>1406.9</ele>
        <time>2017-07-22T14:28:31Z</time>
      </trkpt>
      <trkpt lat="42.48547" lon="2.23823">
        <ele>1407.5</ele>
        <time>2017-07-22T14:28:38Z</time>
      </trkpt>
      <trkpt lat="42.48546" lon="2.23822">
        <ele>1407.6</ele>
        <time>2017-07-22T14:28:45Z</time>
      </trkpt>
      <trkpt lat="42.48542" lon="2.23826">
        <ele>1408</ele>
        <time>2017-07-22T14:28:52Z</time>
      </trkpt>
      <trkpt lat="42.48539" lon="2.23823">
        <ele>1408.6</ele>
        <time>2017-07-22T14:28:59Z</time>
      </trkpt>
      <trkpt lat="42.48538" lon="2.23823">
        <ele>1408.8</ele>
        <time>2017-07-22T14:29:06Z</time>
      </trkpt>
      <trkpt lat="42.48538" lon="2.23823">
        <ele>1408.8</ele>
        <time>2017-07-22T14:29:10Z</time>
      </trkpt>
      <trkpt lat="42.48529" lon="2.2382">
        <ele>1409.2</ele>
        <time>2017-07-22T14:29:32Z</time>
      </trkpt>
      <trkpt lat="42.48525" lon="2.23827">
        <ele>1409.5</ele>
        <time>2017-07-22T14:29:39Z</time>
      </trkpt>
      <trkpt lat="42.48521" lon="2.2383">
        <ele>1409.9</ele>
        <time>2017-07-22T14:29:47Z</time>
      </trkpt>
      <trkpt lat="42.48515" lon="2.23835">
        <ele>1410.3</ele>
        <time>2017-07-22T14:29:53Z</time>
      </trkpt>
      <trkpt lat="42.4851" lon="2.23839">
        <ele>1410.7</ele>
        <time>2017-07-22T14:30:00Z</time>
      </trkpt>
      <trkpt lat="42.48507" lon="2.23837">
        <ele>1411.1</ele>
        <time>2017-07-22T14:30:07Z</time>
      </trkpt>
      <trkpt lat="42.48503" lon="2.23836">
        <ele>1411.4</ele>
        <time>2017-07-22T14:30:14Z</time>
      </trkpt>
      <trkpt lat="42.48499" lon="2.23835">
        <ele>1412.1</ele>
        <time>2017-07-22T14:30:21Z</time>
      </trkpt>
      <trkpt lat="42.48495" lon="2.23839">
        <ele>1412.7</ele>
        <time>2017-07-22T14:30:28Z</time>
      </trkpt>
      <trkpt lat="42.4849" lon="2.23846">
        <ele>1413</ele>
        <time>2017-07-22T14:30:35Z</time>
      </trkpt>
      <trkpt lat="42.48489" lon="2.23847">
        <ele>1413.1</ele>
        <time>2017-07-22T14:30:42Z</time>
      </trkpt>
      <trkpt lat="42.48482" lon="2.23852">
        <ele>1413.7</ele>
        <time>2017-07-22T14:30:49Z</time>
      </trkpt>
      <trkpt lat="42.4848" lon="2.23852">
        <ele>1414.1</ele>
        <time>2017-07-22T14:30:56Z</time>
      </trkpt>
      <trkpt lat="42.48478" lon="2.23852">
        <ele>1414.2</ele>
        <time>2017-07-22T14:31:00Z</time>
      </trkpt>
      <trkpt lat="42.48473" lon="2.23859">
        <ele>1414.5</ele>
        <time>2017-07-22T14:31:10Z</time>
      </trkpt>
      <trkpt lat="42.48468" lon="2.23862">
        <ele>1414.5</ele>
        <time>2017-07-22T14:31:17Z</time>
      </trkpt>
      <trkpt lat="42.48466" lon="2.23859">
        <ele>1414.7</ele>
        <time>2017-07-22T14:31:25Z</time>
      </trkpt>
      <trkpt lat="42.48463" lon="2.23859">
        <ele>1415.1</ele>
        <time>2017-07-22T14:31:31Z</time>
      </trkpt>
      <trkpt lat="42.4846" lon="2.23862">
        <ele>1416.5</ele>
        <time>2017-07-22T14:31:38Z</time>
      </trkpt>
      <trkpt lat="42.48456" lon="2.23868">
        <ele>1418.6</ele>
        <time>2017-07-22T14:31:45Z</time>
      </trkpt>
      <trkpt lat="42.48451" lon="2.23866">
        <ele>1420.9</ele>
        <time>2017-07-22T14:31:52Z</time>
      </trkpt>
      <trkpt lat="42.48444" lon="2.23872">
        <ele>1422.8</ele>
        <time>2017-07-22T14:31:59Z</time>
      </trkpt>
      <trkpt lat="42.48438" lon="2.23877">
        <ele>1424.4</ele>
        <time>2017-07-22T14:32:06Z</time>
      </trkpt>
      <trkpt lat="42.48434" lon="2.23881">
        <ele>1426.3</ele>
        <time>2017-07-22T14:32:13Z</time>
      </trkpt>
      <trkpt lat="42.48431" lon="2.23882">
        <ele>1428.5</ele>
        <time>2017-07-22T14:32:20Z</time>
      </trkpt>
      <trkpt lat="42.48428" lon="2.23884">
        <ele>1430.5</ele>
        <time>2017-07-22T14:32:27Z</time>
      </trkpt>
      <trkpt lat="42.48427" lon="2.23886">
        <ele>1431.2</ele>
        <time>2017-07-22T14:32:34Z</time>
      </trkpt>
      <trkpt lat="42.48427" lon="2.23886">
        <ele>1431.2</ele>
        <time>2017-07-22T14:32:37Z</time>
      </trkpt>
      <trkpt lat="42.4842" lon="2.23885">
        <ele>1433.9</ele>
        <time>2017-07-22T14:32:46Z</time>
      </trkpt>
      <trkpt lat="42.48416" lon="2.2389">
        <ele>1435.8</ele>
        <time>2017-07-22T14:32:53Z</time>
      </trkpt>
      <trkpt lat="42.48411" lon="2.23889">
        <ele>1437.1</ele>
        <time>2017-07-22T14:33:00Z</time>
      </trkpt>
      <trkpt lat="42.48406" lon="2.2389">
        <ele>1438.2</ele>
        <time>2017-07-22T14:33:07Z</time>
      </trkpt>
      <trkpt lat="42.48402" lon="2.23891">
        <ele>1438.6</ele>
        <time>2017-07-22T14:33:14Z</time>
      </trkpt>
      <trkpt lat="42.48398" lon="2.23891">
        <ele>1439.5</ele>
        <time>2017-07-22T14:33:21Z</time>
      </trkpt>
      <trkpt lat="42.48394" lon="2.23889">
        <ele>1440</ele>
        <time>2017-07-22T14:33:28Z</time>
      </trkpt>
      <trkpt lat="42.48388" lon="2.23891">
        <ele>1440.4</ele>
        <time>2017-07-22T14:33:35Z</time>
      </trkpt>
      <trkpt lat="42.48384" lon="2.23892">
        <ele>1441.2</ele>
        <time>2017-07-22T14:33:42Z</time>
      </trkpt>
      <trkpt lat="42.48379" lon="2.23892">
        <ele>1442.5</ele>
        <time>2017-07-22T14:33:49Z</time>
      </trkpt>
      <trkpt lat="42.48374" lon="2.2389">
        <ele>1443.4</ele>
        <time>2017-07-22T14:33:56Z</time>
      </trkpt>
      <trkpt lat="42.48372" lon="2.23892">
        <ele>1444.2</ele>
        <time>2017-07-22T14:34:03Z</time>
      </trkpt>
      <trkpt lat="42.48371" lon="2.23893">
        <ele>1444.3</ele>
        <time>2017-07-22T14:34:10Z</time>
      </trkpt>
      <trkpt lat="42.48371" lon="2.23893">
        <ele>1444.3</ele>
        <time>2017-07-22T14:34:12Z</time>
      </trkpt>
      <trkpt lat="42.48364" lon="2.23897">
        <ele>1445.4</ele>
        <time>2017-07-22T14:34:17Z</time>
      </trkpt>
      <trkpt lat="42.48361" lon="2.23894">
        <ele>1445.7</ele>
        <time>2017-07-22T14:34:24Z</time>
      </trkpt>
      <trkpt lat="42.48355" lon="2.23893">
        <ele>1446.2</ele>
        <time>2017-07-22T14:34:31Z</time>
      </trkpt>
      <trkpt lat="42.48348" lon="2.239">
        <ele>1447.1</ele>
        <time>2017-07-22T14:34:38Z</time>
      </trkpt>
      <trkpt lat="42.48346" lon="2.23901">
        <ele>1447.6</ele>
        <time>2017-07-22T14:34:45Z</time>
      </trkpt>
      <trkpt lat="42.48346" lon="2.239">
        <ele>1447.7</ele>
        <time>2017-07-22T14:34:52Z</time>
      </trkpt>
      <trkpt lat="42.48346" lon="2.239">
        <ele>1447.7</ele>
        <time>2017-07-22T14:34:54Z</time>
      </trkpt>
      <trkpt lat="42.48339" lon="2.23904">
        <ele>1448.6</ele>
        <time>2017-07-22T14:35:01Z</time>
      </trkpt>
      <trkpt lat="42.48334" lon="2.23907">
        <ele>1448.9</ele>
        <time>2017-07-22T14:35:08Z</time>
      </trkpt>
      <trkpt lat="42.48329" lon="2.23907">
        <ele>1449.2</ele>
        <time>2017-07-22T14:35:15Z</time>
      </trkpt>
      <trkpt lat="42.48326" lon="2.23909">
        <ele>1449.6</ele>
        <time>2017-07-22T14:35:22Z</time>
      </trkpt>
      <trkpt lat="42.48319" lon="2.23914">
        <ele>1449.6</ele>
        <time>2017-07-22T14:35:29Z</time>
      </trkpt>
      <trkpt lat="42.48316" lon="2.23917">
        <ele>1450</ele>
        <time>2017-07-22T14:35:36Z</time>
      </trkpt>
      <trkpt lat="42.48313" lon="2.23924">
        <ele>1450.9</ele>
        <time>2017-07-22T14:35:43Z</time>
      </trkpt>
      <trkpt lat="42.4831" lon="2.23929">
        <ele>1451.5</ele>
        <time>2017-07-22T14:35:50Z</time>
      </trkpt>
      <trkpt lat="42.48307" lon="2.23932">
        <ele>1453</ele>
        <time>2017-07-22T14:35:57Z</time>
      </trkpt>
      <trkpt lat="42.48304" lon="2.23933">
        <ele>1453.7</ele>
        <time>2017-07-22T14:36:04Z</time>
      </trkpt>
      <trkpt lat="42.48304" lon="2.23937">
        <ele>1454.1</ele>
        <time>2017-07-22T14:36:11Z</time>
      </trkpt>
      <trkpt lat="42.48304" lon="2.23936">
        <ele>1454.2</ele>
        <time>2017-07-22T14:36:18Z</time>
      </trkpt>
      <trkpt lat="42.483" lon="2.23937">
        <ele>1454.2</ele>
        <time>2017-07-22T14:36:25Z</time>
      </trkpt>
      <trkpt lat="42.48293" lon="2.23944">
        <ele>1453.8</ele>
        <time>2017-07-22T14:36:30Z</time>
      </trkpt>
      <trkpt lat="42.48288" lon="2.23947">
        <ele>1453.3</ele>
        <time>2017-07-22T14:36:37Z</time>
      </trkpt>
      <trkpt lat="42.48284" lon="2.23947">
        <ele>1453.4</ele>
        <time>2017-07-22T14:36:44Z</time>
      </trkpt>
      <trkpt lat="42.48279" lon="2.23947">
        <ele>1453.7</ele>
        <time>2017-07-22T14:36:51Z</time>
      </trkpt>
      <trkpt lat="42.48275" lon="2.23946">
        <ele>1454.1</ele>
        <time>2017-07-22T14:36:58Z</time>
      </trkpt>
      <trkpt lat="42.48271" lon="2.23946">
        <ele>1455.4</ele>
        <time>2017-07-22T14:37:05Z</time>
      </trkpt>
      <trkpt lat="42.48264" lon="2.23947">
        <ele>1456.8</ele>
        <time>2017-07-22T14:37:12Z</time>
      </trkpt>
      <trkpt lat="42.4826" lon="2.23949">
        <ele>1457.9</ele>
        <time>2017-07-22T14:37:19Z</time>
      </trkpt>
      <trkpt lat="42.48256" lon="2.23947">
        <ele>1459.5</ele>
        <time>2017-07-22T14:37:26Z</time>
      </trkpt>
      <trkpt lat="42.48251" lon="2.23946">
        <ele>1461</ele>
        <time>2017-07-22T14:37:33Z</time>
      </trkpt>
      <trkpt lat="42.48243" lon="2.23949">
        <ele>1462.5</ele>
        <time>2017-07-22T14:37:40Z</time>
      </trkpt>
      <trkpt lat="42.48239" lon="2.23947">
        <ele>1464.1</ele>
        <time>2017-07-22T14:37:47Z</time>
      </trkpt>
      <trkpt lat="42.48234" lon="2.23948">
        <ele>1466</ele>
        <time>2017-07-22T14:37:54Z</time>
      </trkpt>
      <trkpt lat="42.48229" lon="2.23948">
        <ele>1467.7</ele>
        <time>2017-07-22T14:38:01Z</time>
      </trkpt>
      <trkpt lat="42.48223" lon="2.2395">
        <ele>1468.8</ele>
        <time>2017-07-22T14:38:08Z</time>
      </trkpt>
      <trkpt lat="42.48218" lon="2.23949">
        <ele>1470</ele>
        <time>2017-07-22T14:38:15Z</time>
      </trkpt>
      <trkpt lat="42.48214" lon="2.23946">
        <ele>1471</ele>
        <time>2017-07-22T14:38:22Z</time>
      </trkpt>
      <trkpt lat="42.48212" lon="2.23944">
        <ele>1471.7</ele>
        <time>2017-07-22T14:38:29Z</time>
      </trkpt>
      <trkpt lat="42.48205" lon="2.23944">
        <ele>1473.4</ele>
        <time>2017-07-22T14:38:36Z</time>
      </trkpt>
      <trkpt lat="42.482" lon="2.23944">
        <ele>1474.3</ele>
        <time>2017-07-22T14:38:43Z</time>
      </trkpt>
      <trkpt lat="42.48197" lon="2.23943">
        <ele>1475.8</ele>
        <time>2017-07-22T14:38:50Z</time>
      </trkpt>
      <trkpt lat="42.48193" lon="2.23941">
        <ele>1476.7</ele>
        <time>2017-07-22T14:38:57Z</time>
      </trkpt>
      <trkpt lat="42.48185" lon="2.23944">
        <ele>1478.2</ele>
        <time>2017-07-22T14:39:04Z</time>
      </trkpt>
      <trkpt lat="42.4818" lon="2.23945">
        <ele>1478.9</ele>
        <time>2017-07-22T14:39:11Z</time>
      </trkpt>
      <trkpt lat="42.48175" lon="2.23944">
        <ele>1479.8</ele>
        <time>2017-07-22T14:39:18Z</time>
      </trkpt>
      <trkpt lat="42.48171" lon="2.23943">
        <ele>1480.9</ele>
        <time>2017-07-22T14:39:25Z</time>
      </trkpt>
      <trkpt lat="42.48167" lon="2.23938">
        <ele>1481.3</ele>
        <time>2017-07-22T14:39:32Z</time>
      </trkpt>
      <trkpt lat="42.48165" lon="2.23938">
        <ele>1482</ele>
        <time>2017-07-22T14:39:39Z</time>
      </trkpt>
      <trkpt lat="42.48157" lon="2.23941">
        <ele>1483.3</ele>
        <time>2017-07-22T14:39:46Z</time>
      </trkpt>
      <trkpt lat="42.48153" lon="2.23941">
        <ele>1484.3</ele>
        <time>2017-07-22T14:39:53Z</time>
      </trkpt>
      <trkpt lat="42.4815" lon="2.23942">
        <ele>1485.1</ele>
        <time>2017-07-22T14:40:00Z</time>
      </trkpt>
      <trkpt lat="42.48145" lon="2.23941">
        <ele>1486.4</ele>
        <time>2017-07-22T14:40:07Z</time>
      </trkpt>
      <trkpt lat="42.48138" lon="2.23944">
        <ele>1487.7</ele>
        <time>2017-07-22T14:40:14Z</time>
      </trkpt>
      <trkpt lat="42.48133" lon="2.23943">
        <ele>1488.9</ele>
        <time>2017-07-22T14:40:21Z</time>
      </trkpt>
      <trkpt lat="42.48129" lon="2.23942">
        <ele>1489.3</ele>
        <time>2017-07-22T14:40:28Z</time>
      </trkpt>
      <trkpt lat="42.48122" lon="2.23942">
        <ele>1489.8</ele>
        <time>2017-07-22T14:40:35Z</time>
      </trkpt>
      <trkpt lat="42.48117" lon="2.23949">
        <ele>1490.5</ele>
        <time>2017-07-22T14:40:41Z</time>
      </trkpt>
      <trkpt lat="42.48111" lon="2.23951">
        <ele>1491.2</ele>
        <time>2017-07-22T14:40:48Z</time>
      </trkpt>
      <trkpt lat="42.4811" lon="2.23949">
        <ele>1491.9</ele>
        <time>2017-07-22T14:40:55Z</time>
      </trkpt>
      <trkpt lat="42.48105" lon="2.2395">
        <ele>1493.2</ele>
        <time>2017-07-22T14:41:02Z</time>
      </trkpt>
      <trkpt lat="42.481" lon="2.23946">
        <ele>1494.8</ele>
        <time>2017-07-22T14:41:09Z</time>
      </trkpt>
      <trkpt lat="42.48094" lon="2.23947">
        <ele>1495.2</ele>
        <time>2017-07-22T14:41:16Z</time>
      </trkpt>
      <trkpt lat="42.4809" lon="2.23948">
        <ele>1495.5</ele>
        <time>2017-07-22T14:41:23Z</time>
      </trkpt>
      <trkpt lat="42.48089" lon="2.23944">
        <ele>1495.4</ele>
        <time>2017-07-22T14:41:30Z</time>
      </trkpt>
      <trkpt lat="42.48084" lon="2.23944">
        <ele>1495.3</ele>
        <time>2017-07-22T14:41:37Z</time>
      </trkpt>
      <trkpt lat="42.48079" lon="2.23947">
        <ele>1495</ele>
        <time>2017-07-22T14:41:44Z</time>
      </trkpt>
      <trkpt lat="42.48075" lon="2.2395">
        <ele>1495.8</ele>
        <time>2017-07-22T14:41:51Z</time>
      </trkpt>
      <trkpt lat="42.48073" lon="2.23951">
        <ele>1496.3</ele>
        <time>2017-07-22T14:41:58Z</time>
      </trkpt>
      <trkpt lat="42.48065" lon="2.23951">
        <ele>1497.9</ele>
        <time>2017-07-22T14:42:05Z</time>
      </trkpt>
      <trkpt lat="42.48063" lon="2.23951">
        <ele>1498.3</ele>
        <time>2017-07-22T14:42:12Z</time>
      </trkpt>
      <trkpt lat="42.48061" lon="2.2395">
        <ele>1498.5</ele>
        <time>2017-07-22T14:42:19Z</time>
      </trkpt>
      <trkpt lat="42.48061" lon="2.2395">
        <ele>1498.5</ele>
        <time>2017-07-22T14:42:26Z</time>
      </trkpt>
      <trkpt lat="42.48051" lon="2.23956">
        <ele>1499.8</ele>
        <time>2017-07-22T14:42:28Z</time>
      </trkpt>
      <trkpt lat="42.48046" lon="2.23957">
        <ele>1501.5</ele>
        <time>2017-07-22T14:42:35Z</time>
      </trkpt>
      <trkpt lat="42.48043" lon="2.23959">
        <ele>1503.1</ele>
        <time>2017-07-22T14:42:42Z</time>
      </trkpt>
      <trkpt lat="42.4804" lon="2.23961">
        <ele>1504.4</ele>
        <time>2017-07-22T14:42:49Z</time>
      </trkpt>
      <trkpt lat="42.4804" lon="2.23962">
        <ele>1504.5</ele>
        <time>2017-07-22T14:42:56Z</time>
      </trkpt>
      <trkpt lat="42.48034" lon="2.23962">
        <ele>1506</ele>
        <time>2017-07-22T14:43:03Z</time>
      </trkpt>
      <trkpt lat="42.48034" lon="2.23962">
        <ele>1506</ele>
        <time>2017-07-22T14:43:09Z</time>
      </trkpt>
      <trkpt lat="42.48026" lon="2.23962">
        <ele>1507.7</ele>
        <time>2017-07-22T14:43:14Z</time>
      </trkpt>
      <trkpt lat="42.48024" lon="2.23966">
        <ele>1507.8</ele>
        <time>2017-07-22T14:43:21Z</time>
      </trkpt>
      <trkpt lat="42.48017" lon="2.23965">
        <ele>1508.7</ele>
        <time>2017-07-22T14:43:25Z</time>
      </trkpt>
      <trkpt lat="42.48012" lon="2.23971">
        <ele>1509.6</ele>
        <time>2017-07-22T14:43:32Z</time>
      </trkpt>
      <trkpt lat="42.48008" lon="2.23971">
        <ele>1510.4</ele>
        <time>2017-07-22T14:43:39Z</time>
      </trkpt>
      <trkpt lat="42.48005" lon="2.23974">
        <ele>1510.9</ele>
        <time>2017-07-22T14:43:46Z</time>
      </trkpt>
      <trkpt lat="42.48" lon="2.23976">
        <ele>1512.1</ele>
        <time>2017-07-22T14:43:53Z</time>
      </trkpt>
      <trkpt lat="42.47997" lon="2.23977">
        <ele>1513</ele>
        <time>2017-07-22T14:44:00Z</time>
      </trkpt>
      <trkpt lat="42.47994" lon="2.23977">
        <ele>1513.7</ele>
        <time>2017-07-22T14:44:07Z</time>
      </trkpt>
      <trkpt lat="42.47987" lon="2.2398">
        <ele>1514.6</ele>
        <time>2017-07-22T14:44:14Z</time>
      </trkpt>
      <trkpt lat="42.47985" lon="2.23979">
        <ele>1515.2</ele>
        <time>2017-07-22T14:44:21Z</time>
      </trkpt>
      <trkpt lat="42.47985" lon="2.23979">
        <ele>1515.2</ele>
        <time>2017-07-22T14:44:27Z</time>
      </trkpt>
      <trkpt lat="42.47978" lon="2.23977">
        <ele>1516.7</ele>
        <time>2017-07-22T14:44:50Z</time>
      </trkpt>
      <trkpt lat="42.47974" lon="2.23977">
        <ele>1517</ele>
        <time>2017-07-22T14:44:57Z</time>
      </trkpt>
      <trkpt lat="42.4797" lon="2.23974">
        <ele>1517.2</ele>
        <time>2017-07-22T14:45:04Z</time>
      </trkpt>
      <trkpt lat="42.4797" lon="2.23974">
        <ele>1517.3</ele>
        <time>2017-07-22T14:45:09Z</time>
      </trkpt>
      <trkpt lat="42.47963" lon="2.23973">
        <ele>1518.5</ele>
        <time>2017-07-22T14:45:16Z</time>
      </trkpt>
      <trkpt lat="42.47961" lon="2.23973">
        <ele>1519</ele>
        <time>2017-07-22T14:45:23Z</time>
      </trkpt>
      <trkpt lat="42.47958" lon="2.23975">
        <ele>1518.9</ele>
        <time>2017-07-22T14:45:30Z</time>
      </trkpt>
      <trkpt lat="42.47957" lon="2.23975">
        <ele>1518.9</ele>
        <time>2017-07-22T14:45:37Z</time>
      </trkpt>
      <trkpt lat="42.47957" lon="2.23975">
        <ele>1518.9</ele>
        <time>2017-07-22T14:45:38Z</time>
      </trkpt>
      <trkpt lat="42.47948" lon="2.23971">
        <ele>1520.2</ele>
        <time>2017-07-22T14:45:49Z</time>
      </trkpt>
      <trkpt lat="42.47943" lon="2.23973">
        <ele>1520.9</ele>
        <time>2017-07-22T14:45:56Z</time>
      </trkpt>
      <trkpt lat="42.47939" lon="2.23975">
        <ele>1521.2</ele>
        <time>2017-07-22T14:46:03Z</time>
      </trkpt>
      <trkpt lat="42.47932" lon="2.23977">
        <ele>1521.9</ele>
        <time>2017-07-22T14:46:10Z</time>
      </trkpt>
      <trkpt lat="42.47928" lon="2.23977">
        <ele>1522.3</ele>
        <time>2017-07-22T14:46:17Z</time>
      </trkpt>
      <trkpt lat="42.47921" lon="2.23982">
        <ele>1522.5</ele>
        <time>2017-07-22T14:46:22Z</time>
      </trkpt>
      <trkpt lat="42.47917" lon="2.2398">
        <ele>1522.9</ele>
        <time>2017-07-22T14:46:29Z</time>
      </trkpt>
      <trkpt lat="42.47914" lon="2.2398">
        <ele>1523.7</ele>
        <time>2017-07-22T14:46:36Z</time>
      </trkpt>
      <trkpt lat="42.4791" lon="2.23982">
        <ele>1523.5</ele>
        <time>2017-07-22T14:46:43Z</time>
      </trkpt>
      <trkpt lat="42.47907" lon="2.23982">
        <ele>1522.7</ele>
        <time>2017-07-22T14:46:50Z</time>
      </trkpt>
      <trkpt lat="42.479" lon="2.23985">
        <ele>1522</ele>
        <time>2017-07-22T14:46:55Z</time>
      </trkpt>
      <trkpt lat="42.47894" lon="2.23987">
        <ele>1521.1</ele>
        <time>2017-07-22T14:47:02Z</time>
      </trkpt>
      <trkpt lat="42.4789" lon="2.23996">
        <ele>1520.6</ele>
        <time>2017-07-22T14:47:06Z</time>
      </trkpt>
      <trkpt lat="42.47891" lon="2.23996">
        <ele>1521.2</ele>
        <time>2017-07-22T14:47:13Z</time>
      </trkpt>
      <trkpt lat="42.47889" lon="2.23995">
        <ele>1521.1</ele>
        <time>2017-07-22T14:47:20Z</time>
      </trkpt>
      <trkpt lat="42.47886" lon="2.23993">
        <ele>1520.9</ele>
        <time>2017-07-22T14:47:27Z</time>
      </trkpt>
      <trkpt lat="42.47881" lon="2.23995">
        <ele>1521.4</ele>
        <time>2017-07-22T14:47:34Z</time>
      </trkpt>
      <trkpt lat="42.4788" lon="2.23995">
        <ele>1521.4</ele>
        <time>2017-07-22T14:47:41Z</time>
      </trkpt>
      <trkpt lat="42.4788" lon="2.23995">
        <ele>1521.4</ele>
        <time>2017-07-22T14:47:42Z</time>
      </trkpt>
      <trkpt lat="42.47872" lon="2.23993">
        <ele>1522.6</ele>
        <time>2017-07-22T14:47:49Z</time>
      </trkpt>
      <trkpt lat="42.47871" lon="2.2399">
        <ele>1522.9</ele>
        <time>2017-07-22T14:47:56Z</time>
      </trkpt>
      <trkpt lat="42.47865" lon="2.2399">
        <ele>1523.6</ele>
        <time>2017-07-22T14:48:03Z</time>
      </trkpt>
      <trkpt lat="42.47861" lon="2.2399">
        <ele>1524.3</ele>
        <time>2017-07-22T14:48:10Z</time>
      </trkpt>
      <trkpt lat="42.47856" lon="2.23992">
        <ele>1524.7</ele>
        <time>2017-07-22T14:48:17Z</time>
      </trkpt>
      <trkpt lat="42.47853" lon="2.23993">
        <ele>1525.2</ele>
        <time>2017-07-22T14:48:24Z</time>
      </trkpt>
      <trkpt lat="42.47846" lon="2.2399">
        <ele>1526.3</ele>
        <time>2017-07-22T14:48:30Z</time>
      </trkpt>
      <trkpt lat="42.4784" lon="2.23989">
        <ele>1527</ele>
        <time>2017-07-22T14:48:37Z</time>
      </trkpt>
      <trkpt lat="42.47837" lon="2.2399">
        <ele>1527.1</ele>
        <time>2017-07-22T14:48:44Z</time>
      </trkpt>
      <trkpt lat="42.47836" lon="2.2399">
        <ele>1527.2</ele>
        <time>2017-07-22T14:48:52Z</time>
      </trkpt>
      <trkpt lat="42.47836" lon="2.2399">
        <ele>1527.2</ele>
        <time>2017-07-22T14:48:54Z</time>
      </trkpt>
      <trkpt lat="42.47841" lon="2.23989">
        <ele>1526.8</ele>
        <time>2017-07-22T14:49:00Z</time>
      </trkpt>
      <trkpt lat="42.47841" lon="2.23989">
        <ele>1526.7</ele>
        <time>2017-07-22T14:49:08Z</time>
      </trkpt>
      <trkpt lat="42.47834" lon="2.23985">
        <ele>1527</ele>
        <time>2017-07-22T14:49:12Z</time>
      </trkpt>
      <trkpt lat="42.47826" lon="2.23982">
        <ele>1528.3</ele>
        <time>2017-07-22T14:49:19Z</time>
      </trkpt>
      <trkpt lat="42.47819" lon="2.23988">
        <ele>1529.5</ele>
        <time>2017-07-22T14:49:25Z</time>
      </trkpt>
      <trkpt lat="42.47815" lon="2.23997">
        <ele>1530.9</ele>
        <time>2017-07-22T14:49:29Z</time>
      </trkpt>
      <trkpt lat="42.47816" lon="2.24002">
        <ele>1532.7</ele>
        <time>2017-07-22T14:49:36Z</time>
      </trkpt>
      <trkpt lat="42.47811" lon="2.24">
        <ele>1535.6</ele>
        <time>2017-07-22T14:49:43Z</time>
      </trkpt>
      <trkpt lat="42.47808" lon="2.24">
        <ele>1537.1</ele>
        <time>2017-07-22T14:49:50Z</time>
      </trkpt>
      <trkpt lat="42.47805" lon="2.23996">
        <ele>1539.5</ele>
        <time>2017-07-22T14:49:57Z</time>
      </trkpt>
      <trkpt lat="42.47802" lon="2.23993">
        <ele>1541.6</ele>
        <time>2017-07-22T14:50:04Z</time>
      </trkpt>
      <trkpt lat="42.47798" lon="2.23994">
        <ele>1543.1</ele>
        <time>2017-07-22T14:50:11Z</time>
      </trkpt>
      <trkpt lat="42.47793" lon="2.23995">
        <ele>1544.1</ele>
        <time>2017-07-22T14:50:18Z</time>
      </trkpt>
      <trkpt lat="42.47792" lon="2.23995">
        <ele>1544.8</ele>
        <time>2017-07-22T14:50:25Z</time>
      </trkpt>
      <trkpt lat="42.47794" lon="2.23992">
        <ele>1545.2</ele>
        <time>2017-07-22T14:50:32Z</time>
      </trkpt>
      <trkpt lat="42.47798" lon="2.23995">
        <ele>1545.4</ele>
        <time>2017-07-22T14:50:39Z</time>
      </trkpt>
      <trkpt lat="42.47799" lon="2.23996">
        <ele>1545.5</ele>
        <time>2017-07-22T14:50:46Z</time>
      </trkpt>
      <trkpt lat="42.47799" lon="2.23996">
        <ele>1545.5</ele>
        <time>2017-07-22T14:50:48Z</time>
      </trkpt>
      <trkpt lat="42.47802" lon="2.24001">
        <ele>1545.6</ele>
        <time>2017-07-22T14:50:57Z</time>
      </trkpt>
      <trkpt lat="42.47802" lon="2.24001">
        <ele>1545.6</ele>
        <time>2017-07-22T14:51:00Z</time>
      </trkpt>
      <trkpt lat="42.47793" lon="2.23996">
        <ele>1545.8</ele>
        <time>2017-07-22T14:51:18Z</time>
      </trkpt>
      <trkpt lat="42.47793" lon="2.23994">
        <ele>1545.8</ele>
        <time>2017-07-22T14:51:25Z</time>
      </trkpt>
      <trkpt lat="42.47793" lon="2.23994">
        <ele>1545.8</ele>
        <time>2017-07-22T14:51:27Z</time>
      </trkpt>
      <trkpt lat="42.47796" lon="2.23998">
        <ele>1546.8</ele>
        <time>2017-07-22T14:51:40Z</time>
      </trkpt>
      <trkpt lat="42.47795" lon="2.23998">
        <ele>1547</ele>
        <time>2017-07-22T14:51:47Z</time>
      </trkpt>
      <trkpt lat="42.47789" lon="2.23986">
        <ele>1549.1</ele>
        <time>2017-07-22T14:51:50Z</time>
      </trkpt>
      <trkpt lat="42.47788" lon="2.23986">
        <ele>1549.4</ele>
        <time>2017-07-22T14:51:57Z</time>
      </trkpt>
      <trkpt lat="42.47793" lon="2.2399">
        <ele>1549</ele>
        <time>2017-07-22T14:52:06Z</time>
      </trkpt>
      <trkpt lat="42.47793" lon="2.2399">
        <ele>1548.8</ele>
        <time>2017-07-22T14:52:11Z</time>
      </trkpt>
      <trkpt lat="42.47794" lon="2.23993">
        <ele>1548</ele>
        <time>2017-07-22T14:52:22Z</time>
      </trkpt>
      <trkpt lat="42.47796" lon="2.23994">
        <ele>1548.2</ele>
        <time>2017-07-22T14:52:29Z</time>
      </trkpt>
      <trkpt lat="42.47798" lon="2.23996">
        <ele>1548.8</ele>
        <time>2017-07-22T14:52:36Z</time>
      </trkpt>
      <trkpt lat="42.478" lon="2.23998">
        <ele>1549.5</ele>
        <time>2017-07-22T14:52:43Z</time>
      </trkpt>
      <trkpt lat="42.47809" lon="2.23995">
        <ele>1549.9</ele>
        <time>2017-07-22T14:52:47Z</time>
      </trkpt>
      <trkpt lat="42.47812" lon="2.2399">
        <ele>1550.8</ele>
        <time>2017-07-22T14:52:54Z</time>
      </trkpt>
      <trkpt lat="42.47807" lon="2.23992">
        <ele>1551.8</ele>
        <time>2017-07-22T14:53:01Z</time>
      </trkpt>
      <trkpt lat="42.47816" lon="2.23957">
        <ele>1555.7</ele>
        <time>2017-07-22T14:53:27Z</time>
      </trkpt>
      <trkpt lat="42.47796" lon="2.23985">
        <ele>1556.5</ele>
        <time>2017-07-22T14:53:31Z</time>
      </trkpt>
      <trkpt lat="42.47787" lon="2.23994">
        <ele>1557.1</ele>
        <time>2017-07-22T14:53:37Z</time>
      </trkpt>
      <trkpt lat="42.47786" lon="2.2399">
        <ele>1557.3</ele>
        <time>2017-07-22T14:53:44Z</time>
      </trkpt>
      <trkpt lat="42.47788" lon="2.23989">
        <ele>1558</ele>
        <time>2017-07-22T14:53:51Z</time>
      </trkpt>
      <trkpt lat="42.47794" lon="2.23993">
        <ele>1557.8</ele>
        <time>2017-07-22T14:53:58Z</time>
      </trkpt>
      <trkpt lat="42.47798" lon="2.23996">
        <ele>1558.4</ele>
        <time>2017-07-22T14:54:05Z</time>
      </trkpt>
      <trkpt lat="42.47796" lon="2.23992">
        <ele>1559.3</ele>
        <time>2017-07-22T14:54:12Z</time>
      </trkpt>
      <trkpt lat="42.47799" lon="2.23988">
        <ele>1560.1</ele>
        <time>2017-07-22T14:54:19Z</time>
      </trkpt>
      <trkpt lat="42.47796" lon="2.23987">
        <ele>1560.7</ele>
        <time>2017-07-22T14:54:26Z</time>
      </trkpt>
      <trkpt lat="42.47801" lon="2.23989">
        <ele>1561.9</ele>
        <time>2017-07-22T14:54:33Z</time>
      </trkpt>
      <trkpt lat="42.47799" lon="2.23993">
        <ele>1563.1</ele>
        <time>2017-07-22T14:54:40Z</time>
      </trkpt>
      <trkpt lat="42.47802" lon="2.23993">
        <ele>1561.7</ele>
        <time>2017-07-22T14:54:47Z</time>
      </trkpt>
      <trkpt lat="42.47804" lon="2.23993">
        <ele>1559.9</ele>
        <time>2017-07-22T14:54:54Z</time>
      </trkpt>
      <trkpt lat="42.47803" lon="2.23992">
        <ele>1560.2</ele>
        <time>2017-07-22T14:55:01Z</time>
      </trkpt>
      <trkpt lat="42.47803" lon="2.23992">
        <ele>1560.2</ele>
        <time>2017-07-22T14:55:04Z</time>
      </trkpt>
      <trkpt lat="42.47807" lon="2.23991">
        <ele>1559.4</ele>
        <time>2017-07-22T14:55:35Z</time>
      </trkpt>
      <trkpt lat="42.47807" lon="2.23991">
        <ele>1559.4</ele>
        <time>2017-07-22T14:55:39Z</time>
      </trkpt>
      <trkpt lat="42.47802" lon="2.2399">
        <ele>1559.3</ele>
        <time>2017-07-22T14:55:49Z</time>
      </trkpt>
      <trkpt lat="42.47796" lon="2.23989">
        <ele>1558.6</ele>
        <time>2017-07-22T14:55:56Z</time>
      </trkpt>
      <trkpt lat="42.47796" lon="2.23988">
        <ele>1558.4</ele>
        <time>2017-07-22T14:56:03Z</time>
      </trkpt>
      <trkpt lat="42.47795" lon="2.23991">
        <ele>1558.8</ele>
        <time>2017-07-22T14:56:10Z</time>
      </trkpt>
      <trkpt lat="42.47795" lon="2.23991">
        <ele>1558.8</ele>
        <time>2017-07-22T14:56:14Z</time>
      </trkpt>
      <trkpt lat="42.47802" lon="2.23994">
        <ele>1558.2</ele>
        <time>2017-07-22T14:56:34Z</time>
      </trkpt>
      <trkpt lat="42.47803" lon="2.23996">
        <ele>1558.2</ele>
        <time>2017-07-22T14:56:41Z</time>
      </trkpt>
      <trkpt lat="42.47803" lon="2.23996">
        <ele>1558.2</ele>
        <time>2017-07-22T14:56:46Z</time>
      </trkpt>
      <trkpt lat="42.47796" lon="2.23997">
        <ele>1558.8</ele>
        <time>2017-07-22T14:56:53Z</time>
      </trkpt>
      <trkpt lat="42.47793" lon="2.23995">
        <ele>1558.3</ele>
        <time>2017-07-22T14:57:00Z</time>
      </trkpt>
      <trkpt lat="42.47789" lon="2.23988">
        <ele>1557.5</ele>
        <time>2017-07-22T14:57:07Z</time>
      </trkpt>
      <trkpt lat="42.47789" lon="2.23982">
        <ele>1556.2</ele>
        <time>2017-07-22T14:57:14Z</time>
      </trkpt>
      <trkpt lat="42.47796" lon="2.23979">
        <ele>1555.3</ele>
        <time>2017-07-22T14:57:19Z</time>
      </trkpt>
      <trkpt lat="42.47797" lon="2.23979">
        <ele>1555.3</ele>
        <time>2017-07-22T14:57:26Z</time>
      </trkpt>
      <trkpt lat="42.47795" lon="2.23984">
        <ele>1557.2</ele>
        <time>2017-07-22T14:57:33Z</time>
      </trkpt>
      <trkpt lat="42.47793" lon="2.23985">
        <ele>1556.2</ele>
        <time>2017-07-22T14:57:40Z</time>
      </trkpt>
      <trkpt lat="42.47786" lon="2.23988">
        <ele>1555.8</ele>
        <time>2017-07-22T14:57:47Z</time>
      </trkpt>
      <trkpt lat="42.47778" lon="2.23989">
        <ele>1557.1</ele>
        <time>2017-07-22T14:57:54Z</time>
      </trkpt>
      <trkpt lat="42.47775" lon="2.23985">
        <ele>1558.5</ele>
        <time>2017-07-22T14:58:01Z</time>
      </trkpt>
      <trkpt lat="42.4777" lon="2.23986">
        <ele>1560.3</ele>
        <time>2017-07-22T14:58:08Z</time>
      </trkpt>
      <trkpt lat="42.47764" lon="2.23986">
        <ele>1561.7</ele>
        <time>2017-07-22T14:58:15Z</time>
      </trkpt>
      <trkpt lat="42.47762" lon="2.2399">
        <ele>1562.3</ele>
        <time>2017-07-22T14:58:22Z</time>
      </trkpt>
      <trkpt lat="42.47756" lon="2.23996">
        <ele>1563.1</ele>
        <time>2017-07-22T14:58:24Z</time>
      </trkpt>
      <trkpt lat="42.47748" lon="2.23999">
        <ele>1564.2</ele>
        <time>2017-07-22T14:58:30Z</time>
      </trkpt>
      <trkpt lat="42.47744" lon="2.23995">
        <ele>1566.4</ele>
        <time>2017-07-22T14:58:37Z</time>
      </trkpt>
      <trkpt lat="42.47747" lon="2.23989">
        <ele>1569.2</ele>
        <time>2017-07-22T14:58:44Z</time>
      </trkpt>
      <trkpt lat="42.47742" lon="2.23989">
        <ele>1570.4</ele>
        <time>2017-07-22T14:58:51Z</time>
      </trkpt>
      <trkpt lat="42.47735" lon="2.23993">
        <ele>1571.5</ele>
        <time>2017-07-22T14:58:58Z</time>
      </trkpt>
      <trkpt lat="42.47727" lon="2.23996">
        <ele>1572.7</ele>
        <time>2017-07-22T14:59:05Z</time>
      </trkpt>
      <trkpt lat="42.47723" lon="2.23998">
        <ele>1573.5</ele>
        <time>2017-07-22T14:59:12Z</time>
      </trkpt>
      <trkpt lat="42.47723" lon="2.23998">
        <ele>1573.5</ele>
        <time>2017-07-22T14:59:18Z</time>
      </trkpt>
      <trkpt lat="42.47717" lon="2.24004">
        <ele>1574.2</ele>
        <time>2017-07-22T14:59:20Z</time>
      </trkpt>
      <trkpt lat="42.4771" lon="2.24007">
        <ele>1574.9</ele>
        <time>2017-07-22T14:59:26Z</time>
      </trkpt>
      <trkpt lat="42.47704" lon="2.24002">
        <ele>1575.5</ele>
        <time>2017-07-22T14:59:33Z</time>
      </trkpt>
      <trkpt lat="42.47697" lon="2.24006">
        <ele>1576.5</ele>
        <time>2017-07-22T14:59:38Z</time>
      </trkpt>
      <trkpt lat="42.47692" lon="2.24003">
        <ele>1577.7</ele>
        <time>2017-07-22T14:59:45Z</time>
      </trkpt>
      <trkpt lat="42.47685" lon="2.24007">
        <ele>1579.3</ele>
        <time>2017-07-22T14:59:52Z</time>
      </trkpt>
      <trkpt lat="42.47679" lon="2.24002">
        <ele>1580.9</ele>
        <time>2017-07-22T14:59:59Z</time>
      </trkpt>
      <trkpt lat="42.47672" lon="2.24003">
        <ele>1582.3</ele>
        <time>2017-07-22T15:00:06Z</time>
      </trkpt>
      <trkpt lat="42.47666" lon="2.23998">
        <ele>1582.9</ele>
        <time>2017-07-22T15:00:13Z</time>
      </trkpt>
      <trkpt lat="42.47659" lon="2.23994">
        <ele>1583.1</ele>
        <time>2017-07-22T15:00:19Z</time>
      </trkpt>
      <trkpt lat="42.47652" lon="2.23992">
        <ele>1584.1</ele>
        <time>2017-07-22T15:00:26Z</time>
      </trkpt>
      <trkpt lat="42.47648" lon="2.23986">
        <ele>1585.2</ele>
        <time>2017-07-22T15:00:33Z</time>
      </trkpt>
      <trkpt lat="42.47641" lon="2.23983">
        <ele>1586.2</ele>
        <time>2017-07-22T15:00:40Z</time>
      </trkpt>
      <trkpt lat="42.47635" lon="2.23981">
        <ele>1587.2</ele>
        <time>2017-07-22T15:00:47Z</time>
      </trkpt>
      <trkpt lat="42.4763" lon="2.23976">
        <ele>1587.6</ele>
        <time>2017-07-22T15:00:54Z</time>
      </trkpt>
      <trkpt lat="42.47624" lon="2.23976">
        <ele>1588.5</ele>
        <time>2017-07-22T15:01:01Z</time>
      </trkpt>
      <trkpt lat="42.47618" lon="2.23975">
        <ele>1588.6</ele>
        <time>2017-07-22T15:01:08Z</time>
      </trkpt>
      <trkpt lat="42.47613" lon="2.23971">
        <ele>1589.2</ele>
        <time>2017-07-22T15:01:15Z</time>
      </trkpt>
      <trkpt lat="42.47609" lon="2.23967">
        <ele>1590.5</ele>
        <time>2017-07-22T15:01:22Z</time>
      </trkpt>
      <trkpt lat="42.47604" lon="2.23962">
        <ele>1591.7</ele>
        <time>2017-07-22T15:01:29Z</time>
      </trkpt>
      <trkpt lat="42.47603" lon="2.2396">
        <ele>1591.9</ele>
        <time>2017-07-22T15:01:36Z</time>
      </trkpt>
      <trkpt lat="42.47596" lon="2.23956">
        <ele>1592.9</ele>
        <time>2017-07-22T15:01:42Z</time>
      </trkpt>
      <trkpt lat="42.47591" lon="2.23955">
        <ele>1593.7</ele>
        <time>2017-07-22T15:01:49Z</time>
      </trkpt>
      <trkpt lat="42.47587" lon="2.23954">
        <ele>1594.7</ele>
        <time>2017-07-22T15:01:56Z</time>
      </trkpt>
      <trkpt lat="42.47582" lon="2.2396">
        <ele>1596.1</ele>
        <time>2017-07-22T15:02:02Z</time>
      </trkpt>
      <trkpt lat="42.47576" lon="2.23963">
        <ele>1597.4</ele>
        <time>2017-07-22T15:02:09Z</time>
      </trkpt>
      <trkpt lat="42.47572" lon="2.23966">
        <ele>1598.1</ele>
        <time>2017-07-22T15:02:16Z</time>
      </trkpt>
      <trkpt lat="42.47564" lon="2.23968">
        <ele>1598.5</ele>
        <time>2017-07-22T15:02:23Z</time>
      </trkpt>
      <trkpt lat="42.47558" lon="2.23964">
        <ele>1599.1</ele>
        <time>2017-07-22T15:02:30Z</time>
      </trkpt>
      <trkpt lat="42.47554" lon="2.2397">
        <ele>1599.1</ele>
        <time>2017-07-22T15:02:37Z</time>
      </trkpt>
      <trkpt lat="42.47549" lon="2.23969">
        <ele>1598.8</ele>
        <time>2017-07-22T15:02:44Z</time>
      </trkpt>
      <trkpt lat="42.47542" lon="2.23971">
        <ele>1599.8</ele>
        <time>2017-07-22T15:02:51Z</time>
      </trkpt>
      <trkpt lat="42.47537" lon="2.23971">
        <ele>1601.2</ele>
        <time>2017-07-22T15:02:58Z</time>
      </trkpt>
      <trkpt lat="42.47531" lon="2.23976">
        <ele>1603.5</ele>
        <time>2017-07-22T15:03:05Z</time>
      </trkpt>
      <trkpt lat="42.47528" lon="2.23977">
        <ele>1604.8</ele>
        <time>2017-07-22T15:03:12Z</time>
      </trkpt>
      <trkpt lat="42.47523" lon="2.23977">
        <ele>1605.9</ele>
        <time>2017-07-22T15:03:19Z</time>
      </trkpt>
      <trkpt lat="42.47516" lon="2.23977">
        <ele>1607.4</ele>
        <time>2017-07-22T15:03:26Z</time>
      </trkpt>
      <trkpt lat="42.47511" lon="2.23977">
        <ele>1608</ele>
        <time>2017-07-22T15:03:33Z</time>
      </trkpt>
      <trkpt lat="42.47505" lon="2.23977">
        <ele>1608.4</ele>
        <time>2017-07-22T15:03:40Z</time>
      </trkpt>
      <trkpt lat="42.47498" lon="2.23978">
        <ele>1609.5</ele>
        <time>2017-07-22T15:03:47Z</time>
      </trkpt>
      <trkpt lat="42.47493" lon="2.23973">
        <ele>1610.3</ele>
        <time>2017-07-22T15:03:54Z</time>
      </trkpt>
      <trkpt lat="42.47489" lon="2.2397">
        <ele>1610.7</ele>
        <time>2017-07-22T15:04:01Z</time>
      </trkpt>
      <trkpt lat="42.47484" lon="2.23962">
        <ele>1611.2</ele>
        <time>2017-07-22T15:04:08Z</time>
      </trkpt>
      <trkpt lat="42.47478" lon="2.23955">
        <ele>1612.8</ele>
        <time>2017-07-22T15:04:15Z</time>
      </trkpt>
      <trkpt lat="42.47474" lon="2.2395">
        <ele>1614.1</ele>
        <time>2017-07-22T15:04:22Z</time>
      </trkpt>
      <trkpt lat="42.47469" lon="2.23944">
        <ele>1615.1</ele>
        <time>2017-07-22T15:04:29Z</time>
      </trkpt>
      <trkpt lat="42.47465" lon="2.2394">
        <ele>1616.3</ele>
        <time>2017-07-22T15:04:36Z</time>
      </trkpt>
      <trkpt lat="42.47461" lon="2.23936">
        <ele>1617.2</ele>
        <time>2017-07-22T15:04:43Z</time>
      </trkpt>
      <trkpt lat="42.47455" lon="2.23934">
        <ele>1617.9</ele>
        <time>2017-07-22T15:04:50Z</time>
      </trkpt>
      <trkpt lat="42.47452" lon="2.23927">
        <ele>1618.2</ele>
        <time>2017-07-22T15:04:57Z</time>
      </trkpt>
      <trkpt lat="42.47443" lon="2.23928">
        <ele>1619.1</ele>
        <time>2017-07-22T15:05:04Z</time>
      </trkpt>
      <trkpt lat="42.47438" lon="2.23927">
        <ele>1620.3</ele>
        <time>2017-07-22T15:05:11Z</time>
      </trkpt>
      <trkpt lat="42.47433" lon="2.23925">
        <ele>1620.9</ele>
        <time>2017-07-22T15:05:18Z</time>
      </trkpt>
      <trkpt lat="42.47426" lon="2.23923">
        <ele>1622</ele>
        <time>2017-07-22T15:05:25Z</time>
      </trkpt>
      <trkpt lat="42.47422" lon="2.23923">
        <ele>1623.3</ele>
        <time>2017-07-22T15:05:32Z</time>
      </trkpt>
      <trkpt lat="42.47414" lon="2.23923">
        <ele>1624.2</ele>
        <time>2017-07-22T15:05:38Z</time>
      </trkpt>
      <trkpt lat="42.47408" lon="2.23919">
        <ele>1625.5</ele>
        <time>2017-07-22T15:05:45Z</time>
      </trkpt>
      <trkpt lat="42.47402" lon="2.23919">
        <ele>1626.3</ele>
        <time>2017-07-22T15:05:52Z</time>
      </trkpt>
      <trkpt lat="42.47398" lon="2.23917">
        <ele>1626.8</ele>
        <time>2017-07-22T15:05:59Z</time>
      </trkpt>
      <trkpt lat="42.47391" lon="2.23914">
        <ele>1628</ele>
        <time>2017-07-22T15:06:05Z</time>
      </trkpt>
      <trkpt lat="42.47386" lon="2.23912">
        <ele>1628.7</ele>
        <time>2017-07-22T15:06:12Z</time>
      </trkpt>
      <trkpt lat="42.47379" lon="2.23912">
        <ele>1629.3</ele>
        <time>2017-07-22T15:06:19Z</time>
      </trkpt>
      <trkpt lat="42.47374" lon="2.23912">
        <ele>1629.9</ele>
        <time>2017-07-22T15:06:26Z</time>
      </trkpt>
      <trkpt lat="42.47369" lon="2.23914">
        <ele>1630.6</ele>
        <time>2017-07-22T15:06:33Z</time>
      </trkpt>
      <trkpt lat="42.47364" lon="2.23914">
        <ele>1631.2</ele>
        <time>2017-07-22T15:06:40Z</time>
      </trkpt>
      <trkpt lat="42.47361" lon="2.23911">
        <ele>1632</ele>
        <time>2017-07-22T15:06:47Z</time>
      </trkpt>
      <trkpt lat="42.47353" lon="2.23907">
        <ele>1633.1</ele>
        <time>2017-07-22T15:06:54Z</time>
      </trkpt>
      <trkpt lat="42.47348" lon="2.23906">
        <ele>1634.3</ele>
        <time>2017-07-22T15:07:01Z</time>
      </trkpt>
      <trkpt lat="42.47344" lon="2.23904">
        <ele>1635.3</ele>
        <time>2017-07-22T15:07:08Z</time>
      </trkpt>
      <trkpt lat="42.47339" lon="2.23904">
        <ele>1636.3</ele>
        <time>2017-07-22T15:07:15Z</time>
      </trkpt>
      <trkpt lat="42.47333" lon="2.23903">
        <ele>1637.5</ele>
        <time>2017-07-22T15:07:22Z</time>
      </trkpt>
      <trkpt lat="42.47329" lon="2.239">
        <ele>1638.3</ele>
        <time>2017-07-22T15:07:29Z</time>
      </trkpt>
      <trkpt lat="42.47321" lon="2.23903">
        <ele>1639</ele>
        <time>2017-07-22T15:07:36Z</time>
      </trkpt>
      <trkpt lat="42.47314" lon="2.23907">
        <ele>1639.4</ele>
        <time>2017-07-22T15:07:43Z</time>
      </trkpt>
      <trkpt lat="42.47312" lon="2.23903">
        <ele>1639.2</ele>
        <time>2017-07-22T15:07:50Z</time>
      </trkpt>
      <trkpt lat="42.47306" lon="2.23895">
        <ele>1638.4</ele>
        <time>2017-07-22T15:07:56Z</time>
      </trkpt>
      <trkpt lat="42.47301" lon="2.2389">
        <ele>1638.5</ele>
        <time>2017-07-22T15:08:03Z</time>
      </trkpt>
      <trkpt lat="42.47298" lon="2.23888">
        <ele>1638.6</ele>
        <time>2017-07-22T15:08:10Z</time>
      </trkpt>
      <trkpt lat="42.47296" lon="2.23886">
        <ele>1638.9</ele>
        <time>2017-07-22T15:08:17Z</time>
      </trkpt>
      <trkpt lat="42.4729" lon="2.23884">
        <ele>1639.6</ele>
        <time>2017-07-22T15:08:24Z</time>
      </trkpt>
      <trkpt lat="42.47284" lon="2.23882">
        <ele>1639.8</ele>
        <time>2017-07-22T15:08:31Z</time>
      </trkpt>
      <trkpt lat="42.47279" lon="2.23876">
        <ele>1640.4</ele>
        <time>2017-07-22T15:08:38Z</time>
      </trkpt>
      <trkpt lat="42.47274" lon="2.23869">
        <ele>1641.1</ele>
        <time>2017-07-22T15:08:45Z</time>
      </trkpt>
      <trkpt lat="42.4727" lon="2.23862">
        <ele>1642.1</ele>
        <time>2017-07-22T15:08:52Z</time>
      </trkpt>
      <trkpt lat="42.47264" lon="2.23858">
        <ele>1642.8</ele>
        <time>2017-07-22T15:08:59Z</time>
      </trkpt>
      <trkpt lat="42.47261" lon="2.23849">
        <ele>1643.9</ele>
        <time>2017-07-22T15:09:06Z</time>
      </trkpt>
      <trkpt lat="42.47258" lon="2.23842">
        <ele>1644.2</ele>
        <time>2017-07-22T15:09:13Z</time>
      </trkpt>
      <trkpt lat="42.47253" lon="2.23837">
        <ele>1644.9</ele>
        <time>2017-07-22T15:09:20Z</time>
      </trkpt>
      <trkpt lat="42.47247" lon="2.23835">
        <ele>1645.3</ele>
        <time>2017-07-22T15:09:27Z</time>
      </trkpt>
      <trkpt lat="42.47243" lon="2.23833">
        <ele>1645.9</ele>
        <time>2017-07-22T15:09:34Z</time>
      </trkpt>
      <trkpt lat="42.47241" lon="2.23828">
        <ele>1646.2</ele>
        <time>2017-07-22T15:09:41Z</time>
      </trkpt>
      <trkpt lat="42.4724" lon="2.23822">
        <ele>1646.9</ele>
        <time>2017-07-22T15:09:48Z</time>
      </trkpt>
      <trkpt lat="42.47238" lon="2.23818">
        <ele>1647.6</ele>
        <time>2017-07-22T15:09:55Z</time>
      </trkpt>
      <trkpt lat="42.47238" lon="2.23815">
        <ele>1648.3</ele>
        <time>2017-07-22T15:10:02Z</time>
      </trkpt>
      <trkpt lat="42.47238" lon="2.23808">
        <ele>1648.8</ele>
        <time>2017-07-22T15:10:09Z</time>
      </trkpt>
      <trkpt lat="42.47236" lon="2.23803">
        <ele>1649.8</ele>
        <time>2017-07-22T15:10:16Z</time>
      </trkpt>
      <trkpt lat="42.47231" lon="2.238">
        <ele>1650.5</ele>
        <time>2017-07-22T15:10:23Z</time>
      </trkpt>
      <trkpt lat="42.47231" lon="2.238">
        <ele>1650.5</ele>
        <time>2017-07-22T15:10:30Z</time>
      </trkpt>
      <trkpt lat="42.47229" lon="2.23793">
        <ele>1651</ele>
        <time>2017-07-22T15:10:44Z</time>
      </trkpt>
      <trkpt lat="42.47229" lon="2.23793">
        <ele>1651</ele>
        <time>2017-07-22T15:10:50Z</time>
      </trkpt>
      <trkpt lat="42.47228" lon="2.23782">
        <ele>1652.3</ele>
        <time>2017-07-22T15:11:01Z</time>
      </trkpt>
      <trkpt lat="42.47227" lon="2.23777">
        <ele>1652.8</ele>
        <time>2017-07-22T15:11:08Z</time>
      </trkpt>
      <trkpt lat="42.47228" lon="2.23768">
        <ele>1653.1</ele>
        <time>2017-07-22T15:11:15Z</time>
      </trkpt>
      <trkpt lat="42.47226" lon="2.2377">
        <ele>1653.5</ele>
        <time>2017-07-22T15:11:22Z</time>
      </trkpt>
      <trkpt lat="42.47224" lon="2.23765">
        <ele>1654.1</ele>
        <time>2017-07-22T15:11:29Z</time>
      </trkpt>
      <trkpt lat="42.47225" lon="2.23761">
        <ele>1654.7</ele>
        <time>2017-07-22T15:11:36Z</time>
      </trkpt>
      <trkpt lat="42.47225" lon="2.23761">
        <ele>1654.7</ele>
        <time>2017-07-22T15:11:40Z</time>
      </trkpt>
      <trkpt lat="42.47231" lon="2.23756">
        <ele>1656.1</ele>
        <time>2017-07-22T15:11:48Z</time>
      </trkpt>
      <trkpt lat="42.47234" lon="2.23758">
        <ele>1656.7</ele>
        <time>2017-07-22T15:11:55Z</time>
      </trkpt>
      <trkpt lat="42.47234" lon="2.23758">
        <ele>1656.7</ele>
        <time>2017-07-22T15:12:02Z</time>
      </trkpt>
      <trkpt lat="42.47227" lon="2.23748">
        <ele>1661</ele>
        <time>2017-07-22T15:12:42Z</time>
      </trkpt>
      <trkpt lat="42.47227" lon="2.23747">
        <ele>1661.6</ele>
        <time>2017-07-22T15:12:49Z</time>
      </trkpt>
      <trkpt lat="42.47227" lon="2.23743">
        <ele>1662.1</ele>
        <time>2017-07-22T15:12:56Z</time>
      </trkpt>
      <trkpt lat="42.47227" lon="2.23743">
        <ele>1662.1</ele>
        <time>2017-07-22T15:13:02Z</time>
      </trkpt>
      <trkpt lat="42.47228" lon="2.23733">
        <ele>1664.5</ele>
        <time>2017-07-22T15:13:15Z</time>
      </trkpt>
      <trkpt lat="42.47229" lon="2.23731">
        <ele>1664.9</ele>
        <time>2017-07-22T15:13:22Z</time>
      </trkpt>
      <trkpt lat="42.47229" lon="2.23731">
        <ele>1664.9</ele>
        <time>2017-07-22T15:13:24Z</time>
      </trkpt>
      <trkpt lat="42.47225" lon="2.23722">
        <ele>1666.7</ele>
        <time>2017-07-22T15:13:38Z</time>
      </trkpt>
      <trkpt lat="42.4722" lon="2.23721">
        <ele>1667.4</ele>
        <time>2017-07-22T15:13:45Z</time>
      </trkpt>
      <trkpt lat="42.47222" lon="2.2372">
        <ele>1667.8</ele>
        <time>2017-07-22T15:13:52Z</time>
      </trkpt>
      <trkpt lat="42.4722" lon="2.23711">
        <ele>1669.3</ele>
        <time>2017-07-22T15:13:59Z</time>
      </trkpt>
      <trkpt lat="42.47222" lon="2.2371">
        <ele>1669.7</ele>
        <time>2017-07-22T15:14:06Z</time>
      </trkpt>
      <trkpt lat="42.47222" lon="2.2371">
        <ele>1669.7</ele>
        <time>2017-07-22T15:14:10Z</time>
      </trkpt>
      <trkpt lat="42.47216" lon="2.23704">
        <ele>1676.4</ele>
        <time>2017-07-22T15:14:39Z</time>
      </trkpt>
      <trkpt lat="42.47212" lon="2.23703">
        <ele>1677.2</ele>
        <time>2017-07-22T15:14:46Z</time>
      </trkpt>
      <trkpt lat="42.4721" lon="2.237">
        <ele>1678.5</ele>
        <time>2017-07-22T15:14:53Z</time>
      </trkpt>
      <trkpt lat="42.47205" lon="2.23698">
        <ele>1679.2</ele>
        <time>2017-07-22T15:15:00Z</time>
      </trkpt>
      <trkpt lat="42.47201" lon="2.23695">
        <ele>1679.8</ele>
        <time>2017-07-22T15:15:07Z</time>
      </trkpt>
      <trkpt lat="42.47197" lon="2.23693">
        <ele>1680.4</ele>
        <time>2017-07-22T15:15:14Z</time>
      </trkpt>
      <trkpt lat="42.47193" lon="2.23694">
        <ele>1681.5</ele>
        <time>2017-07-22T15:15:21Z</time>
      </trkpt>
      <trkpt lat="42.47187" lon="2.23692">
        <ele>1682.5</ele>
        <time>2017-07-22T15:15:28Z</time>
      </trkpt>
      <trkpt lat="42.47184" lon="2.23691">
        <ele>1683.4</ele>
        <time>2017-07-22T15:15:35Z</time>
      </trkpt>
      <trkpt lat="42.47182" lon="2.2369">
        <ele>1683.7</ele>
        <time>2017-07-22T15:15:42Z</time>
      </trkpt>
      <trkpt lat="42.47182" lon="2.2369">
        <ele>1683.7</ele>
        <time>2017-07-22T15:15:45Z</time>
      </trkpt>
      <trkpt lat="42.47175" lon="2.23689">
        <ele>1685.6</ele>
        <time>2017-07-22T15:15:51Z</time>
      </trkpt>
      <trkpt lat="42.4717" lon="2.23689">
        <ele>1686.7</ele>
        <time>2017-07-22T15:15:58Z</time>
      </trkpt>
      <trkpt lat="42.47165" lon="2.23688">
        <ele>1687.4</ele>
        <time>2017-07-22T15:16:05Z</time>
      </trkpt>
      <trkpt lat="42.4716" lon="2.23686">
        <ele>1688.2</ele>
        <time>2017-07-22T15:16:12Z</time>
      </trkpt>
      <trkpt lat="42.47157" lon="2.23687">
        <ele>1688.6</ele>
        <time>2017-07-22T15:16:19Z</time>
      </trkpt>
      <trkpt lat="42.47155" lon="2.23689">
        <ele>1688.7</ele>
        <time>2017-07-22T15:16:26Z</time>
      </trkpt>
      <trkpt lat="42.47155" lon="2.23689">
        <ele>1688.7</ele>
        <time>2017-07-22T15:16:32Z</time>
      </trkpt>
      <trkpt lat="42.47146" lon="2.23684">
        <ele>1692.1</ele>
        <time>2017-07-22T15:16:56Z</time>
      </trkpt>
      <trkpt lat="42.47144" lon="2.2368">
        <ele>1692.9</ele>
        <time>2017-07-22T15:17:03Z</time>
      </trkpt>
      <trkpt lat="42.47142" lon="2.23676">
        <ele>1693.4</ele>
        <time>2017-07-22T15:17:10Z</time>
      </trkpt>
      <trkpt lat="42.4714" lon="2.23677">
        <ele>1693.7</ele>
        <time>2017-07-22T15:17:17Z</time>
      </trkpt>
      <trkpt lat="42.47139" lon="2.23673">
        <ele>1694.2</ele>
        <time>2017-07-22T15:17:24Z</time>
      </trkpt>
      <trkpt lat="42.47135" lon="2.23671">
        <ele>1694.9</ele>
        <time>2017-07-22T15:17:31Z</time>
      </trkpt>
      <trkpt lat="42.47131" lon="2.2367">
        <ele>1695.6</ele>
        <time>2017-07-22T15:17:38Z</time>
      </trkpt>
      <trkpt lat="42.47125" lon="2.23664">
        <ele>1696.6</ele>
        <time>2017-07-22T15:17:45Z</time>
      </trkpt>
      <trkpt lat="42.47119" lon="2.23665">
        <ele>1697.2</ele>
        <time>2017-07-22T15:17:52Z</time>
      </trkpt>
      <trkpt lat="42.47112" lon="2.23662">
        <ele>1697.6</ele>
        <time>2017-07-22T15:17:59Z</time>
      </trkpt>
      <trkpt lat="42.47107" lon="2.2366">
        <ele>1697.9</ele>
        <time>2017-07-22T15:18:06Z</time>
      </trkpt>
      <trkpt lat="42.47105" lon="2.23652">
        <ele>1698.2</ele>
        <time>2017-07-22T15:18:13Z</time>
      </trkpt>
      <trkpt lat="42.47103" lon="2.23642">
        <ele>1698.6</ele>
        <time>2017-07-22T15:18:20Z</time>
      </trkpt>
      <trkpt lat="42.47098" lon="2.23636">
        <ele>1698.7</ele>
        <time>2017-07-22T15:18:27Z</time>
      </trkpt>
      <trkpt lat="42.47093" lon="2.23633">
        <ele>1699.5</ele>
        <time>2017-07-22T15:18:34Z</time>
      </trkpt>
      <trkpt lat="42.47091" lon="2.23633">
        <ele>1699.7</ele>
        <time>2017-07-22T15:18:41Z</time>
      </trkpt>
      <trkpt lat="42.47091" lon="2.23633">
        <ele>1699.7</ele>
        <time>2017-07-22T15:18:43Z</time>
      </trkpt>
      <trkpt lat="42.47086" lon="2.23639">
        <ele>1700.8</ele>
        <time>2017-07-22T15:18:49Z</time>
      </trkpt>
      <trkpt lat="42.47083" lon="2.23637">
        <ele>1701.5</ele>
        <time>2017-07-22T15:18:56Z</time>
      </trkpt>
      <trkpt lat="42.4708" lon="2.23634">
        <ele>1701.8</ele>
        <time>2017-07-22T15:19:03Z</time>
      </trkpt>
      <trkpt lat="42.47074" lon="2.2363">
        <ele>1702.7</ele>
        <time>2017-07-22T15:19:10Z</time>
      </trkpt>
      <trkpt lat="42.47068" lon="2.23627">
        <ele>1704</ele>
        <time>2017-07-22T15:19:17Z</time>
      </trkpt>
      <trkpt lat="42.47065" lon="2.23622">
        <ele>1705.1</ele>
        <time>2017-07-22T15:19:24Z</time>
      </trkpt>
      <trkpt lat="42.47061" lon="2.23621">
        <ele>1705.9</ele>
        <time>2017-07-22T15:19:31Z</time>
      </trkpt>
      <trkpt lat="42.47058" lon="2.23616">
        <ele>1706.5</ele>
        <time>2017-07-22T15:19:38Z</time>
      </trkpt>
      <trkpt lat="42.47053" lon="2.23612">
        <ele>1707.2</ele>
        <time>2017-07-22T15:19:45Z</time>
      </trkpt>
      <trkpt lat="42.47051" lon="2.23611">
        <ele>1707.7</ele>
        <time>2017-07-22T15:19:52Z</time>
      </trkpt>
      <trkpt lat="42.47049" lon="2.23606">
        <ele>1708</ele>
        <time>2017-07-22T15:19:59Z</time>
      </trkpt>
      <trkpt lat="42.47048" lon="2.23596">
        <ele>1708.6</ele>
        <time>2017-07-22T15:20:05Z</time>
      </trkpt>
      <trkpt lat="42.47045" lon="2.23592">
        <ele>1709.7</ele>
        <time>2017-07-22T15:20:12Z</time>
      </trkpt>
      <trkpt lat="42.47042" lon="2.23586">
        <ele>1710.5</ele>
        <time>2017-07-22T15:20:19Z</time>
      </trkpt>
      <trkpt lat="42.47039" lon="2.2358">
        <ele>1711.7</ele>
        <time>2017-07-22T15:20:26Z</time>
      </trkpt>
      <trkpt lat="42.47033" lon="2.23579">
        <ele>1712.2</ele>
        <time>2017-07-22T15:20:33Z</time>
      </trkpt>
      <trkpt lat="42.4703" lon="2.23572">
        <ele>1712.8</ele>
        <time>2017-07-22T15:20:40Z</time>
      </trkpt>
      <trkpt lat="42.4703" lon="2.23573">
        <ele>1713.2</ele>
        <time>2017-07-22T15:20:48Z</time>
      </trkpt>
      <trkpt lat="42.47028" lon="2.23568">
        <ele>1713.9</ele>
        <time>2017-07-22T15:20:54Z</time>
      </trkpt>
      <trkpt lat="42.47023" lon="2.23561">
        <ele>1714.5</ele>
        <time>2017-07-22T15:21:01Z</time>
      </trkpt>
      <trkpt lat="42.47016" lon="2.23555">
        <ele>1715.7</ele>
        <time>2017-07-22T15:21:08Z</time>
      </trkpt>
      <trkpt lat="42.47013" lon="2.23545">
        <ele>1716.7</ele>
        <time>2017-07-22T15:21:14Z</time>
      </trkpt>
      <trkpt lat="42.47008" lon="2.23539">
        <ele>1718.7</ele>
        <time>2017-07-22T15:21:21Z</time>
      </trkpt>
      <trkpt lat="42.47001" lon="2.23534">
        <ele>1719.6</ele>
        <time>2017-07-22T15:21:27Z</time>
      </trkpt>
      <trkpt lat="42.46995" lon="2.23528">
        <ele>1720.4</ele>
        <time>2017-07-22T15:21:34Z</time>
      </trkpt>
      <trkpt lat="42.46989" lon="2.23523">
        <ele>1721</ele>
        <time>2017-07-22T15:21:41Z</time>
      </trkpt>
      <trkpt lat="42.46983" lon="2.23518">
        <ele>1722.1</ele>
        <time>2017-07-22T15:21:48Z</time>
      </trkpt>
      <trkpt lat="42.46978" lon="2.23511">
        <ele>1723.3</ele>
        <time>2017-07-22T15:21:55Z</time>
      </trkpt>
      <trkpt lat="42.46973" lon="2.23506">
        <ele>1724.5</ele>
        <time>2017-07-22T15:22:02Z</time>
      </trkpt>
      <trkpt lat="42.46969" lon="2.235">
        <ele>1725.5</ele>
        <time>2017-07-22T15:22:09Z</time>
      </trkpt>
      <trkpt lat="42.46965" lon="2.23496">
        <ele>1726.2</ele>
        <time>2017-07-22T15:22:16Z</time>
      </trkpt>
      <trkpt lat="42.46961" lon="2.2349">
        <ele>1726.9</ele>
        <time>2017-07-22T15:22:23Z</time>
      </trkpt>
      <trkpt lat="42.46958" lon="2.23485">
        <ele>1728.2</ele>
        <time>2017-07-22T15:22:30Z</time>
      </trkpt>
      <trkpt lat="42.46955" lon="2.23479">
        <ele>1729.3</ele>
        <time>2017-07-22T15:22:37Z</time>
      </trkpt>
      <trkpt lat="42.46952" lon="2.23472">
        <ele>1730.4</ele>
        <time>2017-07-22T15:22:44Z</time>
      </trkpt>
      <trkpt lat="42.4695" lon="2.23467">
        <ele>1731.4</ele>
        <time>2017-07-22T15:22:51Z</time>
      </trkpt>
      <trkpt lat="42.46947" lon="2.2346">
        <ele>1732.5</ele>
        <time>2017-07-22T15:22:58Z</time>
      </trkpt>
      <trkpt lat="42.46944" lon="2.23456">
        <ele>1734</ele>
        <time>2017-07-22T15:23:05Z</time>
      </trkpt>
      <trkpt lat="42.4694" lon="2.23451">
        <ele>1735.3</ele>
        <time>2017-07-22T15:23:12Z</time>
      </trkpt>
      <trkpt lat="42.46934" lon="2.2345">
        <ele>1736.5</ele>
        <time>2017-07-22T15:23:19Z</time>
      </trkpt>
      <trkpt lat="42.46929" lon="2.23445">
        <ele>1737.3</ele>
        <time>2017-07-22T15:23:26Z</time>
      </trkpt>
      <trkpt lat="42.46924" lon="2.23439">
        <ele>1737.8</ele>
        <time>2017-07-22T15:23:33Z</time>
      </trkpt>
      <trkpt lat="42.46917" lon="2.23436">
        <ele>1738.3</ele>
        <time>2017-07-22T15:23:40Z</time>
      </trkpt>
      <trkpt lat="42.46911" lon="2.23433">
        <ele>1739</ele>
        <time>2017-07-22T15:23:47Z</time>
      </trkpt>
      <trkpt lat="42.46904" lon="2.2343">
        <ele>1739.2</ele>
        <time>2017-07-22T15:23:54Z</time>
      </trkpt>
      <trkpt lat="42.46899" lon="2.23426">
        <ele>1740</ele>
        <time>2017-07-22T15:24:01Z</time>
      </trkpt>
      <trkpt lat="42.46892" lon="2.23423">
        <ele>1740.8</ele>
        <time>2017-07-22T15:24:08Z</time>
      </trkpt>
      <trkpt lat="42.46886" lon="2.23418">
        <ele>1741.6</ele>
        <time>2017-07-22T15:24:15Z</time>
      </trkpt>
      <trkpt lat="42.46881" lon="2.23412">
        <ele>1742.7</ele>
        <time>2017-07-22T15:24:22Z</time>
      </trkpt>
      <trkpt lat="42.46879" lon="2.23404">
        <ele>1744.5</ele>
        <time>2017-07-22T15:24:29Z</time>
      </trkpt>
      <trkpt lat="42.46876" lon="2.23398">
        <ele>1745.8</ele>
        <time>2017-07-22T15:24:36Z</time>
      </trkpt>
      <trkpt lat="42.46874" lon="2.23391">
        <ele>1746.9</ele>
        <time>2017-07-22T15:24:43Z</time>
      </trkpt>
      <trkpt lat="42.46873" lon="2.23386">
        <ele>1747.7</ele>
        <time>2017-07-22T15:24:50Z</time>
      </trkpt>
      <trkpt lat="42.46871" lon="2.23381">
        <ele>1748.3</ele>
        <time>2017-07-22T15:24:57Z</time>
      </trkpt>
      <trkpt lat="42.46869" lon="2.23375">
        <ele>1748.4</ele>
        <time>2017-07-22T15:25:04Z</time>
      </trkpt>
      <trkpt lat="42.46868" lon="2.23368">
        <ele>1748.7</ele>
        <time>2017-07-22T15:25:11Z</time>
      </trkpt>
      <trkpt lat="42.46867" lon="2.23361">
        <ele>1748.8</ele>
        <time>2017-07-22T15:25:18Z</time>
      </trkpt>
      <trkpt lat="42.46867" lon="2.23353">
        <ele>1748.8</ele>
        <time>2017-07-22T15:25:25Z</time>
      </trkpt>
      <trkpt lat="42.46867" lon="2.23348">
        <ele>1749.2</ele>
        <time>2017-07-22T15:25:32Z</time>
      </trkpt>
      <trkpt lat="42.46866" lon="2.23342">
        <ele>1749.3</ele>
        <time>2017-07-22T15:25:39Z</time>
      </trkpt>
      <trkpt lat="42.46866" lon="2.23336">
        <ele>1749.6</ele>
        <time>2017-07-22T15:25:46Z</time>
      </trkpt>
      <trkpt lat="42.46864" lon="2.23326">
        <ele>1750</ele>
        <time>2017-07-22T15:25:53Z</time>
      </trkpt>
      <trkpt lat="42.46861" lon="2.2332">
        <ele>1750.7</ele>
        <time>2017-07-22T15:26:00Z</time>
      </trkpt>
      <trkpt lat="42.46863" lon="2.23311">
        <ele>1751.1</ele>
        <time>2017-07-22T15:26:07Z</time>
      </trkpt>
      <trkpt lat="42.46862" lon="2.23303">
        <ele>1751.6</ele>
        <time>2017-07-22T15:26:14Z</time>
      </trkpt>
      <trkpt lat="42.46858" lon="2.23299">
        <ele>1751.6</ele>
        <time>2017-07-22T15:26:21Z</time>
      </trkpt>
      <trkpt lat="42.46856" lon="2.23298">
        <ele>1752.1</ele>
        <time>2017-07-22T15:26:28Z</time>
      </trkpt>
      <trkpt lat="42.46856" lon="2.23298">
        <ele>1752.1</ele>
        <time>2017-07-22T15:26:31Z</time>
      </trkpt>
      <trkpt lat="42.4685" lon="2.23295">
        <ele>1752</ele>
        <time>2017-07-22T15:26:46Z</time>
      </trkpt>
      <trkpt lat="42.46844" lon="2.2329">
        <ele>1751.2</ele>
        <time>2017-07-22T15:26:53Z</time>
      </trkpt>
      <trkpt lat="42.46837" lon="2.23285">
        <ele>1750.7</ele>
        <time>2017-07-22T15:27:00Z</time>
      </trkpt>
      <trkpt lat="42.46835" lon="2.23277">
        <ele>1750.2</ele>
        <time>2017-07-22T15:27:07Z</time>
      </trkpt>
      <trkpt lat="42.46832" lon="2.23271">
        <ele>1749.8</ele>
        <time>2017-07-22T15:27:14Z</time>
      </trkpt>
      <trkpt lat="42.46828" lon="2.23264">
        <ele>1749.5</ele>
        <time>2017-07-22T15:27:21Z</time>
      </trkpt>
      <trkpt lat="42.46824" lon="2.23259">
        <ele>1749.4</ele>
        <time>2017-07-22T15:27:28Z</time>
      </trkpt>
      <trkpt lat="42.4682" lon="2.23255">
        <ele>1748.9</ele>
        <time>2017-07-22T15:27:35Z</time>
      </trkpt>
      <trkpt lat="42.46818" lon="2.23251">
        <ele>1748.1</ele>
        <time>2017-07-22T15:27:42Z</time>
      </trkpt>
      <trkpt lat="42.46817" lon="2.23247">
        <ele>1747.8</ele>
        <time>2017-07-22T15:27:49Z</time>
      </trkpt>
      <trkpt lat="42.46817" lon="2.23241">
        <ele>1747.5</ele>
        <time>2017-07-22T15:27:56Z</time>
      </trkpt>
      <trkpt lat="42.46815" lon="2.23236">
        <ele>1747.2</ele>
        <time>2017-07-22T15:28:03Z</time>
      </trkpt>
      <trkpt lat="42.46812" lon="2.23228">
        <ele>1746.9</ele>
        <time>2017-07-22T15:28:10Z</time>
      </trkpt>
      <trkpt lat="42.46808" lon="2.23221">
        <ele>1746.7</ele>
        <time>2017-07-22T15:28:17Z</time>
      </trkpt>
      <trkpt lat="42.46804" lon="2.23213">
        <ele>1746</ele>
        <time>2017-07-22T15:28:24Z</time>
      </trkpt>
      <trkpt lat="42.46799" lon="2.23206">
        <ele>1745.7</ele>
        <time>2017-07-22T15:28:30Z</time>
      </trkpt>
      <trkpt lat="42.468" lon="2.23197">
        <ele>1745.5</ele>
        <time>2017-07-22T15:28:37Z</time>
      </trkpt>
      <trkpt lat="42.46799" lon="2.2319">
        <ele>1745.2</ele>
        <time>2017-07-22T15:28:44Z</time>
      </trkpt>
      <trkpt lat="42.46798" lon="2.23182">
        <ele>1745</ele>
        <time>2017-07-22T15:28:51Z</time>
      </trkpt>
      <trkpt lat="42.46796" lon="2.23177">
        <ele>1744.6</ele>
        <time>2017-07-22T15:28:58Z</time>
      </trkpt>
      <trkpt lat="42.46792" lon="2.23174">
        <ele>1744.7</ele>
        <time>2017-07-22T15:29:05Z</time>
      </trkpt>
      <trkpt lat="42.46788" lon="2.23169">
        <ele>1744.9</ele>
        <time>2017-07-22T15:29:12Z</time>
      </trkpt>
      <trkpt lat="42.46788" lon="2.2316">
        <ele>1744.6</ele>
        <time>2017-07-22T15:29:19Z</time>
      </trkpt>
      <trkpt lat="42.46785" lon="2.23152">
        <ele>1744.5</ele>
        <time>2017-07-22T15:29:26Z</time>
      </trkpt>
      <trkpt lat="42.4678" lon="2.23146">
        <ele>1744.6</ele>
        <time>2017-07-22T15:29:33Z</time>
      </trkpt>
      <trkpt lat="42.46777" lon="2.23141">
        <ele>1744.4</ele>
        <time>2017-07-22T15:29:40Z</time>
      </trkpt>
      <trkpt lat="42.46773" lon="2.23136">
        <ele>1744.3</ele>
        <time>2017-07-22T15:29:47Z</time>
      </trkpt>
      <trkpt lat="42.46769" lon="2.23132">
        <ele>1744.2</ele>
        <time>2017-07-22T15:29:54Z</time>
      </trkpt>
      <trkpt lat="42.46765" lon="2.23128">
        <ele>1744.3</ele>
        <time>2017-07-22T15:30:01Z</time>
      </trkpt>
      <trkpt lat="42.46763" lon="2.23121">
        <ele>1744.5</ele>
        <time>2017-07-22T15:30:08Z</time>
      </trkpt>
      <trkpt lat="42.46761" lon="2.23113">
        <ele>1745</ele>
        <time>2017-07-22T15:30:15Z</time>
      </trkpt>
      <trkpt lat="42.4676" lon="2.23106">
        <ele>1745.8</ele>
        <time>2017-07-22T15:30:22Z</time>
      </trkpt>
      <trkpt lat="42.46758" lon="2.23099">
        <ele>1746.4</ele>
        <time>2017-07-22T15:30:29Z</time>
      </trkpt>
      <trkpt lat="42.46758" lon="2.23093">
        <ele>1747.3</ele>
        <time>2017-07-22T15:30:36Z</time>
      </trkpt>
      <trkpt lat="42.46758" lon="2.23085">
        <ele>1748.1</ele>
        <time>2017-07-22T15:30:43Z</time>
      </trkpt>
      <trkpt lat="42.46756" lon="2.23081">
        <ele>1748.6</ele>
        <time>2017-07-22T15:30:50Z</time>
      </trkpt>
      <trkpt lat="42.46752" lon="2.23075">
        <ele>1748.8</ele>
        <time>2017-07-22T15:30:57Z</time>
      </trkpt>
      <trkpt lat="42.46752" lon="2.23068">
        <ele>1749</ele>
        <time>2017-07-22T15:31:04Z</time>
      </trkpt>
      <trkpt lat="42.4675" lon="2.23063">
        <ele>1749.4</ele>
        <time>2017-07-22T15:31:11Z</time>
      </trkpt>
      <trkpt lat="42.46747" lon="2.23059">
        <ele>1750.1</ele>
        <time>2017-07-22T15:31:18Z</time>
      </trkpt>
      <trkpt lat="42.46745" lon="2.23056">
        <ele>1750.6</ele>
        <time>2017-07-22T15:31:25Z</time>
      </trkpt>
      <trkpt lat="42.46746" lon="2.23051">
        <ele>1750.9</ele>
        <time>2017-07-22T15:31:32Z</time>
      </trkpt>
      <trkpt lat="42.46746" lon="2.23045">
        <ele>1751.7</ele>
        <time>2017-07-22T15:31:39Z</time>
      </trkpt>
      <trkpt lat="42.46742" lon="2.2304">
        <ele>1752.4</ele>
        <time>2017-07-22T15:31:46Z</time>
      </trkpt>
      <trkpt lat="42.46737" lon="2.23035">
        <ele>1753.2</ele>
        <time>2017-07-22T15:31:53Z</time>
      </trkpt>
      <trkpt lat="42.46733" lon="2.23033">
        <ele>1753.9</ele>
        <time>2017-07-22T15:32:00Z</time>
      </trkpt>
      <trkpt lat="42.46731" lon="2.23029">
        <ele>1754.4</ele>
        <time>2017-07-22T15:32:07Z</time>
      </trkpt>
      <trkpt lat="42.46726" lon="2.23024">
        <ele>1755</ele>
        <time>2017-07-22T15:32:14Z</time>
      </trkpt>
      <trkpt lat="42.46725" lon="2.23017">
        <ele>1755.4</ele>
        <time>2017-07-22T15:32:21Z</time>
      </trkpt>
      <trkpt lat="42.46724" lon="2.23011">
        <ele>1756.2</ele>
        <time>2017-07-22T15:32:28Z</time>
      </trkpt>
      <trkpt lat="42.46721" lon="2.2301">
        <ele>1757.4</ele>
        <time>2017-07-22T15:32:35Z</time>
      </trkpt>
      <trkpt lat="42.46719" lon="2.23011">
        <ele>1758.3</ele>
        <time>2017-07-22T15:32:42Z</time>
      </trkpt>
      <trkpt lat="42.46714" lon="2.23008">
        <ele>1759.2</ele>
        <time>2017-07-22T15:32:49Z</time>
      </trkpt>
      <trkpt lat="42.46712" lon="2.23002">
        <ele>1760</ele>
        <time>2017-07-22T15:32:56Z</time>
      </trkpt>
      <trkpt lat="42.46711" lon="2.23">
        <ele>1760.6</ele>
        <time>2017-07-22T15:33:03Z</time>
      </trkpt>
      <trkpt lat="42.46706" lon="2.22999">
        <ele>1761.2</ele>
        <time>2017-07-22T15:33:10Z</time>
      </trkpt>
      <trkpt lat="42.46701" lon="2.22996">
        <ele>1761.8</ele>
        <time>2017-07-22T15:33:17Z</time>
      </trkpt>
      <trkpt lat="42.46696" lon="2.22992">
        <ele>1762.6</ele>
        <time>2017-07-22T15:33:24Z</time>
      </trkpt>
      <trkpt lat="42.46693" lon="2.22987">
        <ele>1763.2</ele>
        <time>2017-07-22T15:33:31Z</time>
      </trkpt>
      <trkpt lat="42.4669" lon="2.22978">
        <ele>1763.5</ele>
        <time>2017-07-22T15:33:38Z</time>
      </trkpt>
      <trkpt lat="42.46691" lon="2.22975">
        <ele>1763.9</ele>
        <time>2017-07-22T15:33:45Z</time>
      </trkpt>
      <trkpt lat="42.46691" lon="2.22975">
        <ele>1763.9</ele>
        <time>2017-07-22T15:33:47Z</time>
      </trkpt>
      <trkpt lat="42.4669" lon="2.22967">
        <ele>1764</ele>
        <time>2017-07-22T15:33:59Z</time>
      </trkpt>
      <trkpt lat="42.46687" lon="2.22961">
        <ele>1764.3</ele>
        <time>2017-07-22T15:34:06Z</time>
      </trkpt>
      <trkpt lat="42.46686" lon="2.22953">
        <ele>1764.5</ele>
        <time>2017-07-22T15:34:13Z</time>
      </trkpt>
      <trkpt lat="42.46685" lon="2.22945">
        <ele>1764.8</ele>
        <time>2017-07-22T15:34:20Z</time>
      </trkpt>
      <trkpt lat="42.46683" lon="2.22936">
        <ele>1765.2</ele>
        <time>2017-07-22T15:34:27Z</time>
      </trkpt>
      <trkpt lat="42.46683" lon="2.22929">
        <ele>1765.7</ele>
        <time>2017-07-22T15:34:34Z</time>
      </trkpt>
      <trkpt lat="42.46681" lon="2.22923">
        <ele>1766.8</ele>
        <time>2017-07-22T15:34:41Z</time>
      </trkpt>
      <trkpt lat="42.46681" lon="2.22915">
        <ele>1767.7</ele>
        <time>2017-07-22T15:34:48Z</time>
      </trkpt>
      <trkpt lat="42.46674" lon="2.22912">
        <ele>1768.8</ele>
        <time>2017-07-22T15:34:55Z</time>
      </trkpt>
      <trkpt lat="42.46673" lon="2.22905">
        <ele>1769.3</ele>
        <time>2017-07-22T15:35:02Z</time>
      </trkpt>
      <trkpt lat="42.46671" lon="2.229">
        <ele>1770.1</ele>
        <time>2017-07-22T15:35:09Z</time>
      </trkpt>
      <trkpt lat="42.46669" lon="2.22893">
        <ele>1771.3</ele>
        <time>2017-07-22T15:35:16Z</time>
      </trkpt>
      <trkpt lat="42.46666" lon="2.22893">
        <ele>1772.4</ele>
        <time>2017-07-22T15:35:23Z</time>
      </trkpt>
      <trkpt lat="42.46663" lon="2.22888">
        <ele>1773.1</ele>
        <time>2017-07-22T15:35:30Z</time>
      </trkpt>
      <trkpt lat="42.4666" lon="2.22878">
        <ele>1774.2</ele>
        <time>2017-07-22T15:35:37Z</time>
      </trkpt>
      <trkpt lat="42.46659" lon="2.2287">
        <ele>1775</ele>
        <time>2017-07-22T15:35:44Z</time>
      </trkpt>
      <trkpt lat="42.46658" lon="2.22861">
        <ele>1775.5</ele>
        <time>2017-07-22T15:35:51Z</time>
      </trkpt>
      <trkpt lat="42.46656" lon="2.22851">
        <ele>1776.5</ele>
        <time>2017-07-22T15:35:58Z</time>
      </trkpt>
      <trkpt lat="42.46652" lon="2.22843">
        <ele>1777.7</ele>
        <time>2017-07-22T15:36:05Z</time>
      </trkpt>
      <trkpt lat="42.46648" lon="2.2284">
        <ele>1778.1</ele>
        <time>2017-07-22T15:36:12Z</time>
      </trkpt>
      <trkpt lat="42.46645" lon="2.22836">
        <ele>1778.5</ele>
        <time>2017-07-22T15:36:19Z</time>
      </trkpt>
      <trkpt lat="42.46643" lon="2.22832">
        <ele>1779</ele>
        <time>2017-07-22T15:36:26Z</time>
      </trkpt>
      <trkpt lat="42.46641" lon="2.22826">
        <ele>1779.5</ele>
        <time>2017-07-22T15:36:33Z</time>
      </trkpt>
      <trkpt lat="42.46638" lon="2.22821">
        <ele>1780</ele>
        <time>2017-07-22T15:36:40Z</time>
      </trkpt>
      <trkpt lat="42.46634" lon="2.22816">
        <ele>1780.8</ele>
        <time>2017-07-22T15:36:47Z</time>
      </trkpt>
      <trkpt lat="42.46631" lon="2.22812">
        <ele>1781.6</ele>
        <time>2017-07-22T15:36:54Z</time>
      </trkpt>
      <trkpt lat="42.46629" lon="2.22803">
        <ele>1782.7</ele>
        <time>2017-07-22T15:37:01Z</time>
      </trkpt>
      <trkpt lat="42.46628" lon="2.22795">
        <ele>1784.2</ele>
        <time>2017-07-22T15:37:08Z</time>
      </trkpt>
      <trkpt lat="42.46628" lon="2.22788">
        <ele>1785.4</ele>
        <time>2017-07-22T15:37:15Z</time>
      </trkpt>
      <trkpt lat="42.46628" lon="2.22781">
        <ele>1786.3</ele>
        <time>2017-07-22T15:37:22Z</time>
      </trkpt>
      <trkpt lat="42.46621" lon="2.22775">
        <ele>1787</ele>
        <time>2017-07-22T15:37:28Z</time>
      </trkpt>
      <trkpt lat="42.46617" lon="2.2277">
        <ele>1787.7</ele>
        <time>2017-07-22T15:37:35Z</time>
      </trkpt>
      <trkpt lat="42.46613" lon="2.22761">
        <ele>1788.5</ele>
        <time>2017-07-22T15:37:41Z</time>
      </trkpt>
      <trkpt lat="42.46609" lon="2.22754">
        <ele>1789.1</ele>
        <time>2017-07-22T15:37:48Z</time>
      </trkpt>
      <trkpt lat="42.46604" lon="2.22748">
        <ele>1789.9</ele>
        <time>2017-07-22T15:37:55Z</time>
      </trkpt>
      <trkpt lat="42.46598" lon="2.22741">
        <ele>1790.8</ele>
        <time>2017-07-22T15:38:01Z</time>
      </trkpt>
      <trkpt lat="42.46596" lon="2.2274">
        <ele>1791.3</ele>
        <time>2017-07-22T15:38:08Z</time>
      </trkpt>
      <trkpt lat="42.46596" lon="2.2274">
        <ele>1791.3</ele>
        <time>2017-07-22T15:38:10Z</time>
      </trkpt>
      <trkpt lat="42.46591" lon="2.22731">
        <ele>1791.7</ele>
        <time>2017-07-22T15:38:21Z</time>
      </trkpt>
      <trkpt lat="42.46591" lon="2.22728">
        <ele>1792.1</ele>
        <time>2017-07-22T15:38:28Z</time>
      </trkpt>
      <trkpt lat="42.46591" lon="2.22734">
        <ele>1792.7</ele>
        <time>2017-07-22T15:38:35Z</time>
      </trkpt>
      <trkpt lat="42.46593" lon="2.22739">
        <ele>1793.1</ele>
        <time>2017-07-22T15:38:42Z</time>
      </trkpt>
      <trkpt lat="42.46593" lon="2.22739">
        <ele>1793.1</ele>
        <time>2017-07-22T15:38:46Z</time>
      </trkpt>
      <trkpt lat="42.46591" lon="2.2273">
        <ele>1796.2</ele>
        <time>2017-07-22T15:39:46Z</time>
      </trkpt>
      <trkpt lat="42.46591" lon="2.22728">
        <ele>1796.6</ele>
        <time>2017-07-22T15:39:53Z</time>
      </trkpt>
      <trkpt lat="42.46591" lon="2.22728">
        <ele>1796.6</ele>
        <time>2017-07-22T15:39:57Z</time>
      </trkpt>
      <trkpt lat="42.46595" lon="2.2272">
        <ele>1797.7</ele>
        <time>2017-07-22T15:40:09Z</time>
      </trkpt>
      <trkpt lat="42.46597" lon="2.22712">
        <ele>1798.7</ele>
        <time>2017-07-22T15:40:16Z</time>
      </trkpt>
      <trkpt lat="42.46597" lon="2.22707">
        <ele>1799.5</ele>
        <time>2017-07-22T15:40:23Z</time>
      </trkpt>
      <trkpt lat="42.46593" lon="2.227">
        <ele>1800.1</ele>
        <time>2017-07-22T15:40:30Z</time>
      </trkpt>
      <trkpt lat="42.46591" lon="2.22692">
        <ele>1800.6</ele>
        <time>2017-07-22T15:40:37Z</time>
      </trkpt>
      <trkpt lat="42.46587" lon="2.22684">
        <ele>1801.8</ele>
        <time>2017-07-22T15:40:44Z</time>
      </trkpt>
      <trkpt lat="42.46583" lon="2.22678">
        <ele>1803</ele>
        <time>2017-07-22T15:40:51Z</time>
      </trkpt>
      <trkpt lat="42.46578" lon="2.22672">
        <ele>1803.7</ele>
        <time>2017-07-22T15:40:58Z</time>
      </trkpt>
      <trkpt lat="42.46571" lon="2.22667">
        <ele>1803.9</ele>
        <time>2017-07-22T15:41:05Z</time>
      </trkpt>
      <trkpt lat="42.46564" lon="2.22665">
        <ele>1803.9</ele>
        <time>2017-07-22T15:41:12Z</time>
      </trkpt>
      <trkpt lat="42.46556" lon="2.22662">
        <ele>1804.4</ele>
        <time>2017-07-22T15:41:19Z</time>
      </trkpt>
      <trkpt lat="42.46548" lon="2.22658">
        <ele>1805.2</ele>
        <time>2017-07-22T15:41:26Z</time>
      </trkpt>
      <trkpt lat="42.46541" lon="2.22655">
        <ele>1805.4</ele>
        <time>2017-07-22T15:41:33Z</time>
      </trkpt>
      <trkpt lat="42.46535" lon="2.22651">
        <ele>1805.5</ele>
        <time>2017-07-22T15:41:40Z</time>
      </trkpt>
      <trkpt lat="42.46529" lon="2.22648">
        <ele>1805</ele>
        <time>2017-07-22T15:41:47Z</time>
      </trkpt>
      <trkpt lat="42.46522" lon="2.22644">
        <ele>1805.4</ele>
        <time>2017-07-22T15:41:54Z</time>
      </trkpt>
      <trkpt lat="42.46517" lon="2.22637">
        <ele>1805.9</ele>
        <time>2017-07-22T15:42:02Z</time>
      </trkpt>
      <trkpt lat="42.46514" lon="2.22631">
        <ele>1806</ele>
        <time>2017-07-22T15:42:08Z</time>
      </trkpt>
      <trkpt lat="42.46513" lon="2.22625">
        <ele>1806.1</ele>
        <time>2017-07-22T15:42:15Z</time>
      </trkpt>
      <trkpt lat="42.46512" lon="2.22619">
        <ele>1806.7</ele>
        <time>2017-07-22T15:42:22Z</time>
      </trkpt>
      <trkpt lat="42.46508" lon="2.22616">
        <ele>1806.9</ele>
        <time>2017-07-22T15:42:29Z</time>
      </trkpt>
      <trkpt lat="42.46506" lon="2.22611">
        <ele>1807.9</ele>
        <time>2017-07-22T15:42:36Z</time>
      </trkpt>
      <trkpt lat="42.46504" lon="2.22605">
        <ele>1808.3</ele>
        <time>2017-07-22T15:42:43Z</time>
      </trkpt>
      <trkpt lat="42.46499" lon="2.22598">
        <ele>1808.9</ele>
        <time>2017-07-22T15:42:50Z</time>
      </trkpt>
      <trkpt lat="42.46497" lon="2.22588">
        <ele>1809.5</ele>
        <time>2017-07-22T15:42:57Z</time>
      </trkpt>
      <trkpt lat="42.46495" lon="2.22578">
        <ele>1810.2</ele>
        <time>2017-07-22T15:43:03Z</time>
      </trkpt>
      <trkpt lat="42.46492" lon="2.22568">
        <ele>1811.4</ele>
        <time>2017-07-22T15:43:10Z</time>
      </trkpt>
      <trkpt lat="42.46488" lon="2.22559">
        <ele>1812.6</ele>
        <time>2017-07-22T15:43:16Z</time>
      </trkpt>
      <trkpt lat="42.46485" lon="2.2255">
        <ele>1813.9</ele>
        <time>2017-07-22T15:43:23Z</time>
      </trkpt>
      <trkpt lat="42.46482" lon="2.22542">
        <ele>1814.3</ele>
        <time>2017-07-22T15:43:29Z</time>
      </trkpt>
      <trkpt lat="42.46479" lon="2.22532">
        <ele>1815.2</ele>
        <time>2017-07-22T15:43:36Z</time>
      </trkpt>
      <trkpt lat="42.46477" lon="2.22522">
        <ele>1815.6</ele>
        <time>2017-07-22T15:43:43Z</time>
      </trkpt>
      <trkpt lat="42.46473" lon="2.22511">
        <ele>1815.9</ele>
        <time>2017-07-22T15:43:50Z</time>
      </trkpt>
      <trkpt lat="42.46473" lon="2.225">
        <ele>1816.6</ele>
        <time>2017-07-22T15:43:56Z</time>
      </trkpt>
      <trkpt lat="42.46473" lon="2.22491">
        <ele>1816.9</ele>
        <time>2017-07-22T15:44:03Z</time>
      </trkpt>
      <trkpt lat="42.46473" lon="2.2248">
        <ele>1816.7</ele>
        <time>2017-07-22T15:44:10Z</time>
      </trkpt>
      <trkpt lat="42.46471" lon="2.22471">
        <ele>1816.1</ele>
        <time>2017-07-22T15:44:17Z</time>
      </trkpt>
      <trkpt lat="42.46469" lon="2.22462">
        <ele>1815.4</ele>
        <time>2017-07-22T15:44:24Z</time>
      </trkpt>
      <trkpt lat="42.46463" lon="2.22456">
        <ele>1814.4</ele>
        <time>2017-07-22T15:44:31Z</time>
      </trkpt>
      <trkpt lat="42.4646" lon="2.22449">
        <ele>1813.4</ele>
        <time>2017-07-22T15:44:38Z</time>
      </trkpt>
      <trkpt lat="42.46459" lon="2.22441">
        <ele>1812.9</ele>
        <time>2017-07-22T15:44:45Z</time>
      </trkpt>
      <trkpt lat="42.46456" lon="2.22433">
        <ele>1812.8</ele>
        <time>2017-07-22T15:44:52Z</time>
      </trkpt>
      <trkpt lat="42.46451" lon="2.22426">
        <ele>1812.4</ele>
        <time>2017-07-22T15:44:58Z</time>
      </trkpt>
      <trkpt lat="42.46447" lon="2.2242">
        <ele>1812.4</ele>
        <time>2017-07-22T15:45:05Z</time>
      </trkpt>
      <trkpt lat="42.46443" lon="2.22413">
        <ele>1813.1</ele>
        <time>2017-07-22T15:45:12Z</time>
      </trkpt>
      <trkpt lat="42.46439" lon="2.22406">
        <ele>1814.7</ele>
        <time>2017-07-22T15:45:19Z</time>
      </trkpt>
      <trkpt lat="42.46437" lon="2.224">
        <ele>1816.3</ele>
        <time>2017-07-22T15:45:26Z</time>
      </trkpt>
      <trkpt lat="42.46434" lon="2.22396">
        <ele>1818</ele>
        <time>2017-07-22T15:45:33Z</time>
      </trkpt>
      <trkpt lat="42.46434" lon="2.22395">
        <ele>1818.5</ele>
        <time>2017-07-22T15:45:37Z</time>
      </trkpt>
    </trkseg>
  </trk>
</gpx>